<?xml version='1.0' encoding='UTF-8'?>
<gpx version="1.1" creator="https://www.komoot.de" xmlns="http://www.topografix.com/GPX/1/1" xmlns:xsi="http://www.w3.org/2001/XMLSchema-instance" xsi:schemaLocation="http://www.topografix.com/GPX/1/1 http://www.topografix.com/GPX/1/1/gpx.xsd">
  <metadata>
    <name>2 patates v2024-09-08T20:53</name>
    <author>
      <link href="https://www.komoot.de">
        <text>komoot</text>
        <type>text/html</type>
      </link>
    </author>
  </metadata>
  <trk>
    <name>2 patates v2024-09-08T20:53</name>
    <trkseg>
      <trkpt lat="48.891602" lon="2.261863">
        <ele>27.211655</ele>
        <time>2024-09-08T18:53:37.179Z</time>
      </trkpt>
      <trkpt lat="48.892245" lon="2.262505">
        <ele>27.211655</ele>
        <time>2024-09-08T18:54:10.074Z</time>
      </trkpt>
      <trkpt lat="48.892245" lon="2.262505">
        <ele>27.211655</ele>
        <time>2024-09-08T18:54:10.094Z</time>
      </trkpt>
      <trkpt lat="48.892242" lon="2.262510">
        <ele>27.211655</ele>
        <time>2024-09-08T18:54:10.152Z</time>
      </trkpt>
      <trkpt lat="48.892131" lon="2.262743">
        <ele>27.222710</ele>
        <time>2024-09-08T18:54:14.016Z</time>
      </trkpt>
      <trkpt lat="48.892131" lon="2.262914">
        <ele>27.242292</ele>
        <time>2024-09-08T18:54:16.199Z</time>
      </trkpt>
      <trkpt lat="48.891621" lon="2.262385">
        <ele>27.349805</ele>
        <time>2024-09-08T18:54:31.125Z</time>
      </trkpt>
      <trkpt lat="48.891190" lon="2.261292">
        <ele>27.495751</ele>
        <time>2024-09-08T18:54:53.788Z</time>
      </trkpt>
      <trkpt lat="48.890968" lon="2.260833">
        <ele>27.764206</ele>
        <time>2024-09-08T18:55:04.683Z</time>
      </trkpt>
      <trkpt lat="48.890760" lon="2.260389">
        <ele>28.178188</ele>
        <time>2024-09-08T18:55:15.302Z</time>
      </trkpt>
      <trkpt lat="48.890711" lon="2.260344">
        <ele>28.244295</ele>
        <time>2024-09-08T18:55:17.125Z</time>
      </trkpt>
      <trkpt lat="48.890368" lon="2.260761">
        <ele>28.751441</ele>
        <time>2024-09-08T18:55:28.705Z</time>
      </trkpt>
      <trkpt lat="48.890240" lon="2.260538">
        <ele>28.976228</ele>
        <time>2024-09-08T18:55:33.059Z</time>
      </trkpt>
      <trkpt lat="48.890204" lon="2.260524">
        <ele>29.019143</ele>
        <time>2024-09-08T18:55:34.029Z</time>
      </trkpt>
      <trkpt lat="48.890272" lon="2.260655">
        <ele>29.145885</ele>
        <time>2024-09-08T18:55:37.513Z</time>
      </trkpt>
      <trkpt lat="48.890240" lon="2.260694">
        <ele>29.193244</ele>
        <time>2024-09-08T18:55:38.892Z</time>
      </trkpt>
      <trkpt lat="48.890147" lon="2.260530">
        <ele>29.357700</ele>
        <time>2024-09-08T18:55:41.946Z</time>
      </trkpt>
      <trkpt lat="48.889996" lon="2.260344">
        <ele>29.582116</ele>
        <time>2024-09-08T18:55:47.711Z</time>
      </trkpt>
      <trkpt lat="48.889627" lon="2.259794">
        <ele>29.849523</ele>
        <time>2024-09-08T18:56:00.844Z</time>
      </trkpt>
      <trkpt lat="48.889472" lon="2.259608">
        <ele>29.947325</ele>
        <time>2024-09-08T18:56:06.111Z</time>
      </trkpt>
      <trkpt lat="48.889435" lon="2.259565">
        <ele>29.970391</ele>
        <time>2024-09-08T18:56:07.166Z</time>
      </trkpt>
      <trkpt lat="48.889165" lon="2.259200">
        <ele>30.149335</ele>
        <time>2024-09-08T18:56:14.042Z</time>
      </trkpt>
      <trkpt lat="48.888908" lon="2.258797">
        <ele>30.332189</ele>
        <time>2024-09-08T18:56:20.854Z</time>
      </trkpt>
      <trkpt lat="48.888434" lon="2.258152">
        <ele>30.584799</ele>
        <time>2024-09-08T18:56:32.726Z</time>
      </trkpt>
      <trkpt lat="48.888094" lon="2.257704">
        <ele>30.717312</ele>
        <time>2024-09-08T18:56:41.799Z</time>
      </trkpt>
      <trkpt lat="48.887845" lon="2.257413">
        <ele>30.809814</ele>
        <time>2024-09-08T18:56:48.365Z</time>
      </trkpt>
      <trkpt lat="48.887310" lon="2.256763">
        <ele>31.011521</ele>
        <time>2024-09-08T18:57:04.856Z</time>
      </trkpt>
      <trkpt lat="48.886401" lon="2.256093">
        <ele>30.667146</ele>
        <time>2024-09-08T18:57:23.552Z</time>
      </trkpt>
      <trkpt lat="48.885997" lon="2.255811">
        <ele>30.504266</ele>
        <time>2024-09-08T18:57:31.129Z</time>
      </trkpt>
      <trkpt lat="48.885284" lon="2.255286">
        <ele>30.219153</ele>
        <time>2024-09-08T18:57:44.909Z</time>
      </trkpt>
      <trkpt lat="48.884970" lon="2.255091">
        <ele>30.099147</ele>
        <time>2024-09-08T18:57:50.888Z</time>
      </trkpt>
      <trkpt lat="48.884915" lon="2.255067">
        <ele>30.078901</ele>
        <time>2024-09-08T18:57:51.860Z</time>
      </trkpt>
      <trkpt lat="48.884244" lon="2.254743">
        <ele>29.829806</ele>
        <time>2024-09-08T18:58:04.037Z</time>
      </trkpt>
      <trkpt lat="48.883701" lon="2.254282">
        <ele>30.002613</ele>
        <time>2024-09-08T18:58:18.669Z</time>
      </trkpt>
      <trkpt lat="48.883398" lon="2.254010">
        <ele>30.293357</ele>
        <time>2024-09-08T18:58:28.574Z</time>
      </trkpt>
      <trkpt lat="48.882922" lon="2.253597">
        <ele>30.746202</ele>
        <time>2024-09-08T18:58:42.307Z</time>
      </trkpt>
      <trkpt lat="48.882390" lon="2.253145">
        <ele>31.208548</ele>
        <time>2024-09-08T18:58:55.846Z</time>
      </trkpt>
      <trkpt lat="48.881513" lon="2.252381">
        <ele>31.086689</ele>
        <time>2024-09-08T18:59:14.539Z</time>
      </trkpt>
      <trkpt lat="48.880674" lon="2.251526">
        <ele>30.938353</ele>
        <time>2024-09-08T18:59:33.044Z</time>
      </trkpt>
      <trkpt lat="48.880077" lon="2.250780">
        <ele>30.767895</ele>
        <time>2024-09-08T18:59:47.649Z</time>
      </trkpt>
      <trkpt lat="48.879423" lon="2.249955">
        <ele>30.560724</ele>
        <time>2024-09-08T19:00:03.334Z</time>
      </trkpt>
      <trkpt lat="48.878549" lon="2.248810">
        <ele>30.051792</ele>
        <time>2024-09-08T19:00:24.371Z</time>
      </trkpt>
      <trkpt lat="48.877782" lon="2.247902">
        <ele>29.611763</ele>
        <time>2024-09-08T19:00:41.264Z</time>
      </trkpt>
      <trkpt lat="48.877541" lon="2.247619">
        <ele>29.469238</ele>
        <time>2024-09-08T19:00:46.828Z</time>
      </trkpt>
      <trkpt lat="48.877542" lon="2.247554">
        <ele>29.449223</ele>
        <time>2024-09-08T19:00:47.516Z</time>
      </trkpt>
      <trkpt lat="48.877512" lon="2.247477">
        <ele>29.421673</ele>
        <time>2024-09-08T19:00:48.526Z</time>
      </trkpt>
      <trkpt lat="48.876971" lon="2.246963">
        <ele>29.123082</ele>
        <time>2024-09-08T19:01:00.283Z</time>
      </trkpt>
      <trkpt lat="48.876466" lon="2.246473">
        <ele>28.899857</ele>
        <time>2024-09-08T19:01:11.162Z</time>
      </trkpt>
      <trkpt lat="48.876355" lon="2.246295">
        <ele>28.859693</ele>
        <time>2024-09-08T19:01:14.171Z</time>
      </trkpt>
      <trkpt lat="48.876333" lon="2.246184">
        <ele>28.840711</ele>
        <time>2024-09-08T19:01:15.479Z</time>
      </trkpt>
      <trkpt lat="48.876339" lon="2.246168">
        <ele>28.837696</ele>
        <time>2024-09-08T19:01:15.694Z</time>
      </trkpt>
      <trkpt lat="48.876299" lon="2.246130">
        <ele>28.825953</ele>
        <time>2024-09-08T19:01:18.943Z</time>
      </trkpt>
      <trkpt lat="48.876282" lon="2.246113">
        <ele>28.820888</ele>
        <time>2024-09-08T19:01:20.339Z</time>
      </trkpt>
      <trkpt lat="48.876246" lon="2.246081">
        <ele>28.810506</ele>
        <time>2024-09-08T19:01:23.236Z</time>
      </trkpt>
      <trkpt lat="48.876236" lon="2.246106">
        <ele>28.805715</ele>
        <time>2024-09-08T19:01:23.591Z</time>
      </trkpt>
      <trkpt lat="48.876157" lon="2.246148">
        <ele>28.784879</ele>
        <time>2024-09-08T19:01:25.183Z</time>
      </trkpt>
      <trkpt lat="48.876051" lon="2.246132">
        <ele>28.758360</ele>
        <time>2024-09-08T19:01:27.146Z</time>
      </trkpt>
      <trkpt lat="48.875358" lon="2.245589">
        <ele>28.564270</ele>
        <time>2024-09-08T19:01:41.657Z</time>
      </trkpt>
      <trkpt lat="48.875338" lon="2.245534">
        <ele>28.553979</ele>
        <time>2024-09-08T19:01:42.495Z</time>
      </trkpt>
      <trkpt lat="48.875317" lon="2.245480">
        <ele>28.543707</ele>
        <time>2024-09-08T19:01:47.568Z</time>
      </trkpt>
      <trkpt lat="48.875272" lon="2.245361">
        <ele>28.521231</ele>
        <time>2024-09-08T19:01:49.608Z</time>
      </trkpt>
      <trkpt lat="48.874665" lon="2.244825">
        <ele>28.598832</ele>
        <time>2024-09-08T19:02:04.944Z</time>
      </trkpt>
      <trkpt lat="48.873526" lon="2.243591">
        <ele>28.771371</ele>
        <time>2024-09-08T19:02:36.273Z</time>
      </trkpt>
      <trkpt lat="48.872942" lon="2.243062">
        <ele>28.865772</ele>
        <time>2024-09-08T19:02:51.092Z</time>
      </trkpt>
      <trkpt lat="48.872748" lon="2.242931">
        <ele>28.895249</ele>
        <time>2024-09-08T19:02:55.705Z</time>
      </trkpt>
      <trkpt lat="48.872641" lon="2.242890">
        <ele>28.910573</ele>
        <time>2024-09-08T19:02:58.187Z</time>
      </trkpt>
      <trkpt lat="48.872533" lon="2.242725">
        <ele>28.931834</ele>
        <time>2024-09-08T19:03:01.434Z</time>
      </trkpt>
      <trkpt lat="48.872499" lon="2.242619">
        <ele>28.942606</ele>
        <time>2024-09-08T19:03:03.217Z</time>
      </trkpt>
      <trkpt lat="48.872473" lon="2.242118">
        <ele>28.982914</ele>
        <time>2024-09-08T19:03:10.566Z</time>
      </trkpt>
      <trkpt lat="48.872437" lon="2.241949">
        <ele>28.986072</ele>
        <time>2024-09-08T19:03:13.266Z</time>
      </trkpt>
      <trkpt lat="48.872069" lon="2.241320">
        <ele>29.001037</ele>
        <time>2024-09-08T19:03:25.589Z</time>
      </trkpt>
      <trkpt lat="48.871683" lon="2.240576">
        <ele>29.017883</ele>
        <time>2024-09-08T19:03:38.929Z</time>
      </trkpt>
      <trkpt lat="48.871470" lon="2.240093">
        <ele>29.028221</ele>
        <time>2024-09-08T19:03:46.897Z</time>
      </trkpt>
      <trkpt lat="48.871204" lon="2.239352">
        <ele>28.943466</ele>
        <time>2024-09-08T19:03:58.668Z</time>
      </trkpt>
      <trkpt lat="48.870817" lon="2.238063">
        <ele>28.776134</ele>
        <time>2024-09-08T19:04:18.178Z</time>
      </trkpt>
      <trkpt lat="48.870626" lon="2.237350">
        <ele>28.660606</ele>
        <time>2024-09-08T19:04:28.550Z</time>
      </trkpt>
      <trkpt lat="48.870373" lon="2.236231">
        <ele>28.364731</ele>
        <time>2024-09-08T19:04:44.172Z</time>
      </trkpt>
      <trkpt lat="48.870327" lon="2.236180">
        <ele>28.343088</ele>
        <time>2024-09-08T19:04:45.339Z</time>
      </trkpt>
      <trkpt lat="48.870270" lon="2.236177">
        <ele>28.321406</ele>
        <time>2024-09-08T19:04:46.513Z</time>
      </trkpt>
      <trkpt lat="48.869951" lon="2.236347">
        <ele>28.192903</ele>
        <time>2024-09-08T19:04:53.464Z</time>
      </trkpt>
      <trkpt lat="48.869729" lon="2.235297">
        <ele>28.024010</ele>
        <time>2024-09-08T19:05:08.243Z</time>
      </trkpt>
      <trkpt lat="48.869920" lon="2.235152">
        <ele>28.024412</ele>
        <time>2024-09-08T19:05:12.586Z</time>
      </trkpt>
      <trkpt lat="48.869937" lon="2.235085">
        <ele>28.024500</ele>
        <time>2024-09-08T19:05:18.413Z</time>
      </trkpt>
      <trkpt lat="48.869425" lon="2.234020">
        <ele>28.026131</ele>
        <time>2024-09-08T19:05:34.951Z</time>
      </trkpt>
      <trkpt lat="48.869425" lon="2.234020">
        <ele>28.026131</ele>
        <time>2024-09-08T19:05:34.952Z</time>
      </trkpt>
      <trkpt lat="48.869103" lon="2.233466">
        <ele>28.118262</ele>
        <time>2024-09-08T19:05:45.023Z</time>
      </trkpt>
      <trkpt lat="48.868710" lon="2.232867">
        <ele>28.648827</ele>
        <time>2024-09-08T19:05:58.274Z</time>
      </trkpt>
      <trkpt lat="48.867838" lon="2.231795">
        <ele>29.717999</ele>
        <time>2024-09-08T19:06:26.950Z</time>
      </trkpt>
      <trkpt lat="48.867678" lon="2.231680">
        <ele>29.774593</ele>
        <time>2024-09-08T19:06:31.110Z</time>
      </trkpt>
      <trkpt lat="48.867624" lon="2.231656">
        <ele>29.786765</ele>
        <time>2024-09-08T19:06:32.470Z</time>
      </trkpt>
      <trkpt lat="48.867510" lon="2.231669">
        <ele>29.811497</ele>
        <time>2024-09-08T19:06:34.988Z</time>
      </trkpt>
      <trkpt lat="48.867484" lon="2.231464">
        <ele>29.841208</ele>
        <time>2024-09-08T19:06:39.514Z</time>
      </trkpt>
      <trkpt lat="48.867442" lon="2.231362">
        <ele>29.858333</ele>
        <time>2024-09-08T19:06:42.195Z</time>
      </trkpt>
      <trkpt lat="48.866735" lon="2.230705">
        <ele>30.037601</ele>
        <time>2024-09-08T19:07:09.119Z</time>
      </trkpt>
      <trkpt lat="48.866726" lon="2.230697">
        <ele>30.039857</ele>
        <time>2024-09-08T19:07:09.433Z</time>
      </trkpt>
      <trkpt lat="48.866740" lon="2.230643">
        <ele>30.048117</ele>
        <time>2024-09-08T19:07:10.627Z</time>
      </trkpt>
      <trkpt lat="48.866470" lon="2.230425">
        <ele>30.114257</ele>
        <time>2024-09-08T19:07:20.335Z</time>
      </trkpt>
      <trkpt lat="48.866448" lon="2.230472">
        <ele>30.122466</ele>
        <time>2024-09-08T19:07:21.508Z</time>
      </trkpt>
      <trkpt lat="48.866264" lon="2.230345">
        <ele>30.022027</ele>
        <time>2024-09-08T19:07:27.636Z</time>
      </trkpt>
      <trkpt lat="48.865888" lon="2.230029">
        <ele>29.736293</ele>
        <time>2024-09-08T19:07:40.457Z</time>
      </trkpt>
      <trkpt lat="48.865544" lon="2.229836">
        <ele>29.492428</ele>
        <time>2024-09-08T19:07:51.205Z</time>
      </trkpt>
      <trkpt lat="48.865432" lon="2.229707">
        <ele>29.398975</ele>
        <time>2024-09-08T19:07:55.327Z</time>
      </trkpt>
      <trkpt lat="48.865015" lon="2.229428">
        <ele>29.095971</ele>
        <time>2024-09-08T19:08:08.672Z</time>
      </trkpt>
      <trkpt lat="48.863998" lon="2.228938">
        <ele>28.534426</ele>
        <time>2024-09-08T19:08:41.315Z</time>
      </trkpt>
      <trkpt lat="48.863841" lon="2.228911">
        <ele>28.457714</ele>
        <time>2024-09-08T19:08:46.201Z</time>
      </trkpt>
      <trkpt lat="48.863786" lon="2.228930">
        <ele>28.430330</ele>
        <time>2024-09-08T19:08:47.914Z</time>
      </trkpt>
      <trkpt lat="48.863734" lon="2.228868">
        <ele>28.398244</ele>
        <time>2024-09-08T19:08:49.894Z</time>
      </trkpt>
      <trkpt lat="48.863495" lon="2.228781">
        <ele>28.278925</ele>
        <time>2024-09-08T19:08:57.418Z</time>
      </trkpt>
      <trkpt lat="48.863289" lon="2.228731">
        <ele>28.177642</ele>
        <time>2024-09-08T19:09:03.691Z</time>
      </trkpt>
      <trkpt lat="48.863183" lon="2.228705">
        <ele>28.125512</ele>
        <time>2024-09-08T19:09:06.965Z</time>
      </trkpt>
      <trkpt lat="48.862869" lon="2.228622">
        <ele>28.035059</ele>
        <time>2024-09-08T19:09:16.683Z</time>
      </trkpt>
      <trkpt lat="48.862457" lon="2.228479">
        <ele>27.975544</ele>
        <time>2024-09-08T19:09:29.768Z</time>
      </trkpt>
      <trkpt lat="48.862028" lon="2.228308">
        <ele>27.913086</ele>
        <time>2024-09-08T19:09:43.792Z</time>
      </trkpt>
      <trkpt lat="48.861823" lon="2.228215">
        <ele>27.882958</ele>
        <time>2024-09-08T19:09:50.692Z</time>
      </trkpt>
      <trkpt lat="48.861419" lon="2.228030">
        <ele>27.823538</ele>
        <time>2024-09-08T19:10:04.468Z</time>
      </trkpt>
      <trkpt lat="48.861249" lon="2.227997">
        <ele>27.793760</ele>
        <time>2024-09-08T19:10:09.831Z</time>
      </trkpt>
      <trkpt lat="48.860889" lon="2.227884">
        <ele>27.708117</ele>
        <time>2024-09-08T19:10:21.267Z</time>
      </trkpt>
      <trkpt lat="48.860605" lon="2.227736">
        <ele>27.638169</ele>
        <time>2024-09-08T19:10:30.489Z</time>
      </trkpt>
      <trkpt lat="48.860511" lon="2.227583">
        <ele>27.606082</ele>
        <time>2024-09-08T19:10:34.708Z</time>
      </trkpt>
      <trkpt lat="48.860371" lon="2.227512">
        <ele>27.571697</ele>
        <time>2024-09-08T19:10:39.336Z</time>
      </trkpt>
      <trkpt lat="48.859727" lon="2.227227">
        <ele>27.415426</ele>
        <time>2024-09-08T19:11:00.160Z</time>
      </trkpt>
      <trkpt lat="48.859343" lon="2.227021">
        <ele>27.335837</ele>
        <time>2024-09-08T19:11:12.851Z</time>
      </trkpt>
      <trkpt lat="48.859155" lon="2.226910">
        <ele>27.299344</ele>
        <time>2024-09-08T19:11:19.060Z</time>
      </trkpt>
      <trkpt lat="48.858611" lon="2.226690">
        <ele>27.197491</ele>
        <time>2024-09-08T19:11:36.362Z</time>
      </trkpt>
      <trkpt lat="48.857873" lon="2.226288">
        <ele>27.065757</ele>
        <time>2024-09-08T19:12:01.200Z</time>
      </trkpt>
      <trkpt lat="48.856586" lon="2.225727">
        <ele>27.134039</ele>
        <time>2024-09-08T19:12:44.488Z</time>
      </trkpt>
      <trkpt lat="48.856345" lon="2.225590">
        <ele>27.147162</ele>
        <time>2024-09-08T19:12:52.631Z</time>
      </trkpt>
      <trkpt lat="48.855498" lon="2.225404">
        <ele>27.155508</ele>
        <time>2024-09-08T19:13:19.649Z</time>
      </trkpt>
      <trkpt lat="48.854864" lon="2.225319">
        <ele>27.155731</ele>
        <time>2024-09-08T19:13:39.682Z</time>
      </trkpt>
      <trkpt lat="48.854412" lon="2.225318">
        <ele>27.155889</ele>
        <time>2024-09-08T19:13:54.492Z</time>
      </trkpt>
      <trkpt lat="48.854412" lon="2.225318">
        <ele>27.155889</ele>
        <time>2024-09-08T19:13:54.499Z</time>
      </trkpt>
      <trkpt lat="48.853895" lon="2.225426">
        <ele>27.570354</ele>
        <time>2024-09-08T19:14:11.214Z</time>
      </trkpt>
      <trkpt lat="48.853506" lon="2.225710">
        <ele>27.922016</ele>
        <time>2024-09-08T19:14:25.817Z</time>
      </trkpt>
      <trkpt lat="48.853436" lon="2.225854">
        <ele>28.018010</ele>
        <time>2024-09-08T19:14:29.944Z</time>
      </trkpt>
      <trkpt lat="48.853212" lon="2.226166">
        <ele>28.265603</ele>
        <time>2024-09-08T19:14:40.754Z</time>
      </trkpt>
      <trkpt lat="48.853170" lon="2.226169">
        <ele>28.299866</ele>
        <time>2024-09-08T19:14:41.835Z</time>
      </trkpt>
      <trkpt lat="48.853023" lon="2.225960">
        <ele>28.463897</ele>
        <time>2024-09-08T19:14:47.044Z</time>
      </trkpt>
      <trkpt lat="48.853030" lon="2.225942">
        <ele>28.475108</ele>
        <time>2024-09-08T19:14:47.962Z</time>
      </trkpt>
      <trkpt lat="48.853035" lon="2.225915">
        <ele>28.490147</ele>
        <time>2024-09-08T19:14:50.307Z</time>
      </trkpt>
      <trkpt lat="48.853034" lon="2.225850">
        <ele>28.525008</ele>
        <time>2024-09-08T19:14:53.280Z</time>
      </trkpt>
      <trkpt lat="48.853029" lon="2.225781">
        <ele>28.562228</ele>
        <time>2024-09-08T19:14:58.898Z</time>
      </trkpt>
      <trkpt lat="48.853026" lon="2.225756">
        <ele>28.575854</ele>
        <time>2024-09-08T19:15:00.031Z</time>
      </trkpt>
      <trkpt lat="48.853020" lon="2.225688">
        <ele>28.612641</ele>
        <time>2024-09-08T19:15:05.610Z</time>
      </trkpt>
      <trkpt lat="48.853019" lon="2.225662">
        <ele>28.641440</ele>
        <time>2024-09-08T19:15:06.810Z</time>
      </trkpt>
      <trkpt lat="48.852833" lon="2.222367">
        <ele>36.833978</ele>
        <time>2024-09-08T19:17:38.121Z</time>
      </trkpt>
      <trkpt lat="48.852833" lon="2.222367">
        <ele>36.833978</ele>
        <time>2024-09-08T19:17:38.281Z</time>
      </trkpt>
      <trkpt lat="48.852833" lon="2.222367">
        <ele>36.833978</ele>
        <time>2024-09-08T19:17:38.281Z</time>
      </trkpt>
      <trkpt lat="48.852784" lon="2.221496">
        <ele>40.495326</ele>
        <time>2024-09-08T19:18:02.922Z</time>
      </trkpt>
      <trkpt lat="48.852735" lon="2.220624">
        <ele>44.160850</ele>
        <time>2024-09-08T19:18:27.607Z</time>
      </trkpt>
      <trkpt lat="48.852707" lon="2.219950">
        <ele>47.189868</ele>
        <time>2024-09-08T19:18:46.659Z</time>
      </trkpt>
      <trkpt lat="48.852701" lon="2.219876">
        <ele>47.556662</ele>
        <time>2024-09-08T19:18:48.766Z</time>
      </trkpt>
      <trkpt lat="48.852375" lon="2.219920">
        <ele>50.003571</ele>
        <time>2024-09-08T19:19:02.788Z</time>
      </trkpt>
      <trkpt lat="48.852375" lon="2.219920">
        <ele>50.003571</ele>
        <time>2024-09-08T19:19:02.866Z</time>
      </trkpt>
      <trkpt lat="48.852375" lon="2.219920">
        <ele>50.003571</ele>
        <time>2024-09-08T19:19:02.877Z</time>
      </trkpt>
      <trkpt lat="48.852273" lon="2.219970">
        <ele>50.804855</ele>
        <time>2024-09-08T19:19:08.365Z</time>
      </trkpt>
      <trkpt lat="48.852260" lon="2.219923">
        <ele>51.055669</ele>
        <time>2024-09-08T19:19:10.486Z</time>
      </trkpt>
      <trkpt lat="48.852215" lon="2.219893">
        <ele>51.423056</ele>
        <time>2024-09-08T19:19:13.274Z</time>
      </trkpt>
      <trkpt lat="48.852165" lon="2.219955">
        <ele>51.905522</ele>
        <time>2024-09-08T19:19:16.328Z</time>
      </trkpt>
      <trkpt lat="48.851851" lon="2.219914">
        <ele>54.261770</ele>
        <time>2024-09-08T19:19:34.509Z</time>
      </trkpt>
      <trkpt lat="48.851797" lon="2.219909">
        <ele>54.666245</ele>
        <time>2024-09-08T19:19:37.223Z</time>
      </trkpt>
      <trkpt lat="48.851286" lon="2.219849">
        <ele>58.498086</ele>
        <time>2024-09-08T19:20:07.201Z</time>
      </trkpt>
      <trkpt lat="48.850845" lon="2.219733">
        <ele>61.347237</ele>
        <time>2024-09-08T19:20:32.311Z</time>
      </trkpt>
      <trkpt lat="48.850119" lon="2.219298">
        <ele>66.047202</ele>
        <time>2024-09-08T19:21:11.672Z</time>
      </trkpt>
      <trkpt lat="48.849948" lon="2.219196">
        <ele>67.153554</ele>
        <time>2024-09-08T19:21:20.288Z</time>
      </trkpt>
      <trkpt lat="48.849577" lon="2.219046">
        <ele>69.465657</ele>
        <time>2024-09-08T19:21:37.861Z</time>
      </trkpt>
      <trkpt lat="48.849499" lon="2.219045">
        <ele>69.935435</ele>
        <time>2024-09-08T19:21:41.029Z</time>
      </trkpt>
      <trkpt lat="48.849447" lon="2.219049">
        <ele>70.170389</ele>
        <time>2024-09-08T19:21:43.256Z</time>
      </trkpt>
      <trkpt lat="48.849421" lon="2.218951">
        <ele>70.332007</ele>
        <time>2024-09-08T19:21:47.046Z</time>
      </trkpt>
      <trkpt lat="48.849110" lon="2.218826">
        <ele>71.079742</ele>
        <time>2024-09-08T19:21:59.770Z</time>
      </trkpt>
      <trkpt lat="48.848574" lon="2.218753">
        <ele>72.330597</ele>
        <time>2024-09-08T19:22:18.815Z</time>
      </trkpt>
      <trkpt lat="48.848609" lon="2.218618">
        <ele>72.552534</ele>
        <time>2024-09-08T19:22:21.324Z</time>
      </trkpt>
      <trkpt lat="48.848594" lon="2.218520">
        <ele>72.706432</ele>
        <time>2024-09-08T19:22:23.250Z</time>
      </trkpt>
      <trkpt lat="48.848534" lon="2.218424">
        <ele>72.908943</ele>
        <time>2024-09-08T19:22:26.226Z</time>
      </trkpt>
      <trkpt lat="48.848453" lon="2.218474">
        <ele>73.112157</ele>
        <time>2024-09-08T19:22:27.877Z</time>
      </trkpt>
      <trkpt lat="48.847969" lon="2.218605">
        <ele>74.254857</ele>
        <time>2024-09-08T19:22:37.554Z</time>
      </trkpt>
      <trkpt lat="48.847375" lon="2.218553">
        <ele>74.499861</ele>
        <time>2024-09-08T19:22:48.652Z</time>
      </trkpt>
      <trkpt lat="48.847056" lon="2.218544">
        <ele>74.609856</ele>
        <time>2024-09-08T19:22:56.054Z</time>
      </trkpt>
      <trkpt lat="48.846331" lon="2.218663">
        <ele>74.861255</ele>
        <time>2024-09-08T19:23:12.163Z</time>
      </trkpt>
      <trkpt lat="48.846105" lon="2.218700">
        <ele>74.948891</ele>
        <time>2024-09-08T19:23:16.911Z</time>
      </trkpt>
      <trkpt lat="48.845970" lon="2.218750">
        <ele>75.021677</ele>
        <time>2024-09-08T19:23:19.553Z</time>
      </trkpt>
      <trkpt lat="48.845899" lon="2.218754">
        <ele>75.058893</ele>
        <time>2024-09-08T19:23:20.729Z</time>
      </trkpt>
      <trkpt lat="48.845457" lon="2.218809">
        <ele>75.291197</ele>
        <time>2024-09-08T19:23:29.470Z</time>
      </trkpt>
      <trkpt lat="48.845364" lon="2.218774">
        <ele>75.341384</ele>
        <time>2024-09-08T19:23:31.859Z</time>
      </trkpt>
      <trkpt lat="48.844636" lon="2.218741">
        <ele>75.722894</ele>
        <time>2024-09-08T19:23:50.184Z</time>
      </trkpt>
      <trkpt lat="48.844492" lon="2.218708">
        <ele>75.799177</ele>
        <time>2024-09-08T19:23:53.269Z</time>
      </trkpt>
      <trkpt lat="48.844437" lon="2.218668">
        <ele>75.831117</ele>
        <time>2024-09-08T19:23:54.466Z</time>
      </trkpt>
      <trkpt lat="48.844359" lon="2.218590">
        <ele>75.850265</ele>
        <time>2024-09-08T19:23:56.635Z</time>
      </trkpt>
      <trkpt lat="48.844331" lon="2.218570">
        <ele>75.836501</ele>
        <time>2024-09-08T19:23:57.280Z</time>
      </trkpt>
      <trkpt lat="48.843933" lon="2.218332">
        <ele>75.646225</ele>
        <time>2024-09-08T19:24:05.235Z</time>
      </trkpt>
      <trkpt lat="48.843716" lon="2.218202">
        <ele>75.542457</ele>
        <time>2024-09-08T19:24:09.212Z</time>
      </trkpt>
      <trkpt lat="48.843578" lon="2.218126">
        <ele>75.477157</ele>
        <time>2024-09-08T19:24:11.655Z</time>
      </trkpt>
      <trkpt lat="48.842982" lon="2.218050">
        <ele>75.211082</ele>
        <time>2024-09-08T19:24:21.935Z</time>
      </trkpt>
      <trkpt lat="48.842596" lon="2.218034">
        <ele>75.111625</ele>
        <time>2024-09-08T19:24:28.780Z</time>
      </trkpt>
      <trkpt lat="48.841578" lon="2.217766">
        <ele>76.010328</ele>
        <time>2024-09-08T19:24:47.492Z</time>
      </trkpt>
      <trkpt lat="48.841324" lon="2.217640">
        <ele>76.242747</ele>
        <time>2024-09-08T19:24:54.806Z</time>
      </trkpt>
      <trkpt lat="48.840798" lon="2.217509">
        <ele>77.103497</ele>
        <time>2024-09-08T19:25:31.868Z</time>
      </trkpt>
      <trkpt lat="48.840749" lon="2.217497">
        <ele>77.366271</ele>
        <time>2024-09-08T19:25:33.575Z</time>
      </trkpt>
      <trkpt lat="48.840695" lon="2.217356">
        <ele>77.934717</ele>
        <time>2024-09-08T19:25:37.731Z</time>
      </trkpt>
      <trkpt lat="48.840624" lon="2.217287">
        <ele>78.380935</ele>
        <time>2024-09-08T19:25:41.100Z</time>
      </trkpt>
      <trkpt lat="48.840550" lon="2.217194">
        <ele>78.889376</ele>
        <time>2024-09-08T19:25:45.392Z</time>
      </trkpt>
      <trkpt lat="48.840102" lon="2.216752">
        <ele>81.717449</ele>
        <time>2024-09-08T19:26:09.337Z</time>
      </trkpt>
      <trkpt lat="48.840317" lon="2.216597">
        <ele>82.977382</ele>
        <time>2024-09-08T19:26:21.828Z</time>
      </trkpt>
      <trkpt lat="48.840119" lon="2.216495">
        <ele>84.084288</ele>
        <time>2024-09-08T19:26:32.389Z</time>
      </trkpt>
      <trkpt lat="48.839791" lon="2.216404">
        <ele>85.849563</ele>
        <time>2024-09-08T19:26:50.530Z</time>
      </trkpt>
      <trkpt lat="48.839732" lon="2.216304">
        <ele>86.250542</ele>
        <time>2024-09-08T19:26:57.018Z</time>
      </trkpt>
      <trkpt lat="48.839788" lon="2.216212">
        <ele>86.511489</ele>
        <time>2024-09-08T19:27:02.863Z</time>
      </trkpt>
      <trkpt lat="48.839965" lon="2.216230">
        <ele>87.072747</ele>
        <time>2024-09-08T19:27:11.117Z</time>
      </trkpt>
      <trkpt lat="48.839955" lon="2.215781">
        <ele>88.008255</ele>
        <time>2024-09-08T19:27:25.763Z</time>
      </trkpt>
      <trkpt lat="48.839936" lon="2.214987">
        <ele>89.662732</ele>
        <time>2024-09-08T19:27:46.534Z</time>
      </trkpt>
      <trkpt lat="48.839928" lon="2.214655">
        <ele>90.354534</ele>
        <time>2024-09-08T19:27:52.849Z</time>
      </trkpt>
      <trkpt lat="48.839917" lon="2.213757">
        <ele>91.473863</ele>
        <time>2024-09-08T19:28:05.590Z</time>
      </trkpt>
      <trkpt lat="48.839913" lon="2.213359">
        <ele>90.677916</ele>
        <time>2024-09-08T19:28:09.971Z</time>
      </trkpt>
      <trkpt lat="48.838153" lon="2.211806">
        <ele>85.227525</ele>
        <time>2024-09-08T19:29:00.749Z</time>
      </trkpt>
      <trkpt lat="48.838140" lon="2.211521">
        <ele>84.878717</ele>
        <time>2024-09-08T19:29:03.605Z</time>
      </trkpt>
      <trkpt lat="48.838094" lon="2.210498">
        <ele>83.626762</ele>
        <time>2024-09-08T19:29:15.053Z</time>
      </trkpt>
      <trkpt lat="48.837789" lon="2.211031">
        <ele>83.518593</ele>
        <time>2024-09-08T19:29:31.694Z</time>
      </trkpt>
      <trkpt lat="48.837638" lon="2.210699">
        <ele>84.371631</ele>
        <time>2024-09-08T19:29:41.388Z</time>
      </trkpt>
      <trkpt lat="48.837462" lon="2.210723">
        <ele>84.939134</ele>
        <time>2024-09-08T19:29:47.756Z</time>
      </trkpt>
      <trkpt lat="48.837351" lon="2.209130">
        <ele>88.325281</ele>
        <time>2024-09-08T19:30:28.430Z</time>
      </trkpt>
      <trkpt lat="48.837265" lon="2.207896">
        <ele>91.506802</ele>
        <time>2024-09-08T19:31:06.019Z</time>
      </trkpt>
      <trkpt lat="48.837342" lon="2.207779">
        <ele>91.948183</ele>
        <time>2024-09-08T19:31:10.354Z</time>
      </trkpt>
      <trkpt lat="48.837391" lon="2.207632">
        <ele>92.387757</ele>
        <time>2024-09-08T19:31:14.920Z</time>
      </trkpt>
      <trkpt lat="48.837407" lon="2.207434">
        <ele>92.919928</ele>
        <time>2024-09-08T19:31:20.524Z</time>
      </trkpt>
      <trkpt lat="48.837389" lon="2.207298">
        <ele>93.289998</ele>
        <time>2024-09-08T19:31:23.876Z</time>
      </trkpt>
      <trkpt lat="48.837287" lon="2.207069">
        <ele>94.027638</ele>
        <time>2024-09-08T19:31:30.863Z</time>
      </trkpt>
      <trkpt lat="48.837193" lon="2.206980">
        <ele>94.476549</ele>
        <time>2024-09-08T19:31:35.130Z</time>
      </trkpt>
      <trkpt lat="48.837045" lon="2.206940">
        <ele>95.085817</ele>
        <time>2024-09-08T19:31:40.145Z</time>
      </trkpt>
      <trkpt lat="48.836900" lon="2.206997">
        <ele>95.692861</ele>
        <time>2024-09-08T19:31:45.487Z</time>
      </trkpt>
      <trkpt lat="48.836800" lon="2.207114">
        <ele>96.176937</ele>
        <time>2024-09-08T19:31:49.455Z</time>
      </trkpt>
      <trkpt lat="48.835532" lon="2.205588">
        <ele>100.884785</ele>
        <time>2024-09-08T19:32:43.540Z</time>
      </trkpt>
      <trkpt lat="48.834019" lon="2.203800">
        <ele>107.930163</ele>
        <time>2024-09-08T19:33:58.249Z</time>
      </trkpt>
      <trkpt lat="48.833282" lon="2.202899">
        <ele>112.378591</ele>
        <time>2024-09-08T19:34:39.153Z</time>
      </trkpt>
      <trkpt lat="48.832909" lon="2.202444">
        <ele>114.647625</ele>
        <time>2024-09-08T19:35:00.575Z</time>
      </trkpt>
      <trkpt lat="48.832713" lon="2.202204">
        <ele>115.841719</ele>
        <time>2024-09-08T19:35:12.160Z</time>
      </trkpt>
      <trkpt lat="48.832617" lon="2.202087">
        <ele>116.425504</ele>
        <time>2024-09-08T19:35:17.896Z</time>
      </trkpt>
      <trkpt lat="48.830767" lon="2.199839">
        <ele>125.387133</ele>
        <time>2024-09-08T19:36:58.039Z</time>
      </trkpt>
      <trkpt lat="48.830799" lon="2.199676">
        <ele>125.487558</ele>
        <time>2024-09-08T19:37:00.819Z</time>
      </trkpt>
      <trkpt lat="48.830754" lon="2.199523">
        <ele>125.586496</ele>
        <time>2024-09-08T19:37:03.149Z</time>
      </trkpt>
      <trkpt lat="48.830923" lon="2.199247">
        <ele>125.809045</ele>
        <time>2024-09-08T19:37:08.412Z</time>
      </trkpt>
      <trkpt lat="48.831661" lon="2.198052">
        <ele>126.129766</ele>
        <time>2024-09-08T19:37:25.856Z</time>
      </trkpt>
      <trkpt lat="48.831837" lon="2.197768">
        <ele>125.772437</ele>
        <time>2024-09-08T19:37:29.705Z</time>
      </trkpt>
      <trkpt lat="48.832039" lon="2.197442">
        <ele>125.362291</ele>
        <time>2024-09-08T19:37:34.233Z</time>
      </trkpt>
      <trkpt lat="48.832180" lon="2.197216">
        <ele>125.077037</ele>
        <time>2024-09-08T19:37:37.442Z</time>
      </trkpt>
      <trkpt lat="48.832271" lon="2.197072">
        <ele>124.894168</ele>
        <time>2024-09-08T19:37:39.582Z</time>
      </trkpt>
      <trkpt lat="48.832478" lon="2.196744">
        <ele>124.477903</ele>
        <time>2024-09-08T19:37:44.584Z</time>
      </trkpt>
      <trkpt lat="48.832417" lon="2.196617">
        <ele>124.333880</ele>
        <time>2024-09-08T19:37:46.674Z</time>
      </trkpt>
      <trkpt lat="48.832349" lon="2.196534">
        <ele>124.212484</ele>
        <time>2024-09-08T19:37:48.399Z</time>
      </trkpt>
      <trkpt lat="48.831896" lon="2.196289">
        <ele>123.977890</ele>
        <time>2024-09-08T19:37:58.218Z</time>
      </trkpt>
      <trkpt lat="48.831401" lon="2.195958">
        <ele>123.911574</ele>
        <time>2024-09-08T19:38:09.754Z</time>
      </trkpt>
      <trkpt lat="48.831276" lon="2.195780">
        <ele>123.890566</ele>
        <time>2024-09-08T19:38:13.429Z</time>
      </trkpt>
      <trkpt lat="48.831189" lon="2.195582">
        <ele>123.871351</ele>
        <time>2024-09-08T19:38:16.752Z</time>
      </trkpt>
      <trkpt lat="48.831276" lon="2.195780">
        <ele>123.852136</ele>
        <time>2024-09-08T19:38:20.144Z</time>
      </trkpt>
      <trkpt lat="48.831401" lon="2.195958">
        <ele>123.831128</ele>
        <time>2024-09-08T19:38:23.820Z</time>
      </trkpt>
      <trkpt lat="48.831896" lon="2.196289">
        <ele>123.786803</ele>
        <time>2024-09-08T19:38:35.431Z</time>
      </trkpt>
      <trkpt lat="48.832349" lon="2.196534">
        <ele>123.765399</ele>
        <time>2024-09-08T19:38:45.843Z</time>
      </trkpt>
      <trkpt lat="48.832417" lon="2.196617">
        <ele>123.761516</ele>
        <time>2024-09-08T19:38:47.673Z</time>
      </trkpt>
      <trkpt lat="48.832478" lon="2.196744">
        <ele>123.756909</ele>
        <time>2024-09-08T19:38:49.759Z</time>
      </trkpt>
      <trkpt lat="48.832271" lon="2.197072">
        <ele>123.743595</ele>
        <time>2024-09-08T19:38:55.545Z</time>
      </trkpt>
      <trkpt lat="48.832180" lon="2.197216">
        <ele>123.737745</ele>
        <time>2024-09-08T19:38:58.013Z</time>
      </trkpt>
      <trkpt lat="48.832039" lon="2.197442">
        <ele>123.728621</ele>
        <time>2024-09-08T19:39:02.084Z</time>
      </trkpt>
      <trkpt lat="48.831837" lon="2.197768">
        <ele>123.640846</ele>
        <time>2024-09-08T19:39:07.738Z</time>
      </trkpt>
      <trkpt lat="48.831761" lon="2.197701">
        <ele>123.559465</ele>
        <time>2024-09-08T19:39:09.545Z</time>
      </trkpt>
      <trkpt lat="48.831066" lon="2.197052">
        <ele>122.803902</ele>
        <time>2024-09-08T19:39:26.478Z</time>
      </trkpt>
      <trkpt lat="48.830950" lon="2.196857">
        <ele>122.643665</ele>
        <time>2024-09-08T19:39:30.159Z</time>
      </trkpt>
      <trkpt lat="48.830819" lon="2.196528">
        <ele>122.409245</ele>
        <time>2024-09-08T19:39:34.864Z</time>
      </trkpt>
      <trkpt lat="48.830686" lon="2.196270">
        <ele>122.209458</ele>
        <time>2024-09-08T19:39:38.624Z</time>
      </trkpt>
      <trkpt lat="48.830581" lon="2.196212">
        <ele>122.105983</ele>
        <time>2024-09-08T19:39:40.540Z</time>
      </trkpt>
      <trkpt lat="48.830565" lon="2.195919">
        <ele>121.587709</ele>
        <time>2024-09-08T19:39:43.814Z</time>
      </trkpt>
      <trkpt lat="48.830450" lon="2.195914">
        <ele>121.196095</ele>
        <time>2024-09-08T19:39:45.643Z</time>
      </trkpt>
      <trkpt lat="48.830448" lon="2.195812">
        <ele>120.967434</ele>
        <time>2024-09-08T19:39:46.657Z</time>
      </trkpt>
      <trkpt lat="48.830439" lon="2.195350">
        <ele>119.931738</ele>
        <time>2024-09-08T19:39:50.896Z</time>
      </trkpt>
      <trkpt lat="48.830526" lon="2.195273">
        <ele>119.588997</ele>
        <time>2024-09-08T19:39:52.377Z</time>
      </trkpt>
      <trkpt lat="48.830328" lon="2.195020">
        <ele>118.708288</ele>
        <time>2024-09-08T19:39:55.903Z</time>
      </trkpt>
      <trkpt lat="48.829573" lon="2.194042">
        <ele>115.551186</ele>
        <time>2024-09-08T19:40:09.836Z</time>
      </trkpt>
      <trkpt lat="48.829453" lon="2.193886">
        <ele>115.210984</ele>
        <time>2024-09-08T19:40:12.142Z</time>
      </trkpt>
      <trkpt lat="48.829420" lon="2.193843">
        <ele>115.117336</ele>
        <time>2024-09-08T19:40:12.785Z</time>
      </trkpt>
      <trkpt lat="48.829259" lon="2.193664">
        <ele>114.687592</ele>
        <time>2024-09-08T19:40:15.663Z</time>
      </trkpt>
      <trkpt lat="48.829051" lon="2.193431">
        <ele>114.130929</ele>
        <time>2024-09-08T19:40:19.429Z</time>
      </trkpt>
      <trkpt lat="48.828831" lon="2.193106">
        <ele>113.469930</ele>
        <time>2024-09-08T19:40:24.132Z</time>
      </trkpt>
      <trkpt lat="48.828743" lon="2.192935">
        <ele>113.162164</ele>
        <time>2024-09-08T19:40:26.474Z</time>
      </trkpt>
      <trkpt lat="48.828648" lon="2.192658">
        <ele>112.719282</ele>
        <time>2024-09-08T19:40:29.750Z</time>
      </trkpt>
      <trkpt lat="48.828465" lon="2.191373">
        <ele>112.080672</ele>
        <time>2024-09-08T19:40:45.463Z</time>
      </trkpt>
      <trkpt lat="48.828334" lon="2.190412">
        <ele>112.108318</ele>
        <time>2024-09-08T19:40:58.631Z</time>
      </trkpt>
      <trkpt lat="48.828279" lon="2.190010">
        <ele>112.119885</ele>
        <time>2024-09-08T19:41:03.586Z</time>
      </trkpt>
      <trkpt lat="48.828065" lon="2.189501">
        <ele>112.420805</ele>
        <time>2024-09-08T19:41:11.267Z</time>
      </trkpt>
      <trkpt lat="48.827950" lon="2.189313">
        <ele>113.082927</ele>
        <time>2024-09-08T19:41:15.311Z</time>
      </trkpt>
      <trkpt lat="48.827810" lon="2.189109">
        <ele>113.843241</ele>
        <time>2024-09-08T19:41:20.741Z</time>
      </trkpt>
      <trkpt lat="48.827737" lon="2.189004">
        <ele>114.237249</ele>
        <time>2024-09-08T19:41:23.889Z</time>
      </trkpt>
      <trkpt lat="48.827661" lon="2.188919">
        <ele>114.607131</ele>
        <time>2024-09-08T19:41:26.738Z</time>
      </trkpt>
      <trkpt lat="48.827520" lon="2.188849">
        <ele>115.188495</ele>
        <time>2024-09-08T19:41:31.993Z</time>
      </trkpt>
      <trkpt lat="48.827401" lon="2.188820">
        <ele>115.660838</ele>
        <time>2024-09-08T19:41:36.685Z</time>
      </trkpt>
      <trkpt lat="48.827077" lon="2.188746">
        <ele>116.944914</ele>
        <time>2024-09-08T19:41:50.461Z</time>
      </trkpt>
      <trkpt lat="48.826971" lon="2.188479">
        <ele>117.749370</ele>
        <time>2024-09-08T19:41:59.918Z</time>
      </trkpt>
      <trkpt lat="48.827053" lon="2.187386">
        <ele>122.483199</ele>
        <time>2024-09-08T19:42:39.092Z</time>
      </trkpt>
      <trkpt lat="48.827124" lon="2.186178">
        <ele>129.834668</ele>
        <time>2024-09-08T19:43:30.365Z</time>
      </trkpt>
      <trkpt lat="48.827169" lon="2.185516">
        <ele>133.868739</ele>
        <time>2024-09-08T19:44:03.403Z</time>
      </trkpt>
      <trkpt lat="48.827058" lon="2.185195">
        <ele>136.078877</ele>
        <time>2024-09-08T19:44:22.092Z</time>
      </trkpt>
      <trkpt lat="48.826914" lon="2.184900">
        <ele>138.389772</ele>
        <time>2024-09-08T19:44:39.931Z</time>
      </trkpt>
      <trkpt lat="48.826772" lon="2.184671">
        <ele>140.369322</ele>
        <time>2024-09-08T19:44:55.411Z</time>
      </trkpt>
      <trkpt lat="48.826717" lon="2.184580">
        <ele>141.146662</ele>
        <time>2024-09-08T19:45:00.781Z</time>
      </trkpt>
      <trkpt lat="48.826071" lon="2.183540">
        <ele>150.144073</ele>
        <time>2024-09-08T19:46:04.287Z</time>
      </trkpt>
      <trkpt lat="48.825520" lon="2.182632">
        <ele>155.269576</ele>
        <time>2024-09-08T19:46:50.528Z</time>
      </trkpt>
      <trkpt lat="48.825383" lon="2.181854">
        <ele>157.645136</ele>
        <time>2024-09-08T19:47:15.352Z</time>
      </trkpt>
      <trkpt lat="48.825327" lon="2.181222">
        <ele>159.526176</ele>
        <time>2024-09-08T19:47:29.389Z</time>
      </trkpt>
      <trkpt lat="48.825082" lon="2.179591">
        <ele>160.689106</ele>
        <time>2024-09-08T19:47:51.690Z</time>
      </trkpt>
      <trkpt lat="48.824853" lon="2.179574">
        <ele>160.598671</ele>
        <time>2024-09-08T19:47:58.203Z</time>
      </trkpt>
      <trkpt lat="48.824688" lon="2.179491">
        <ele>160.530113</ele>
        <time>2024-09-08T19:48:03.257Z</time>
      </trkpt>
      <trkpt lat="48.824541" lon="2.178823">
        <ele>160.347209</ele>
        <time>2024-09-08T19:48:16.580Z</time>
      </trkpt>
      <trkpt lat="48.824416" lon="2.178460">
        <ele>160.255728</ele>
        <time>2024-09-08T19:48:24.555Z</time>
      </trkpt>
      <trkpt lat="48.824394" lon="2.178319">
        <ele>160.230841</ele>
        <time>2024-09-08T19:48:27.313Z</time>
      </trkpt>
      <trkpt lat="48.824381" lon="2.177774">
        <ele>160.137175</ele>
        <time>2024-09-08T19:48:38.190Z</time>
      </trkpt>
      <trkpt lat="48.824295" lon="2.177293">
        <ele>160.051570</ele>
        <time>2024-09-08T19:48:48.336Z</time>
      </trkpt>
      <trkpt lat="48.824167" lon="2.176835">
        <ele>159.966114</ele>
        <time>2024-09-08T19:48:58.765Z</time>
      </trkpt>
      <trkpt lat="48.824203" lon="2.176495">
        <ele>159.906967</ele>
        <time>2024-09-08T19:49:06.473Z</time>
      </trkpt>
      <trkpt lat="48.824175" lon="2.176112">
        <ele>159.840782</ele>
        <time>2024-09-08T19:49:15.229Z</time>
      </trkpt>
      <trkpt lat="48.824071" lon="2.175647">
        <ele>159.584634</ele>
        <time>2024-09-08T19:49:25.639Z</time>
      </trkpt>
      <trkpt lat="48.824117" lon="2.175207">
        <ele>159.285973</ele>
        <time>2024-09-08T19:49:34.659Z</time>
      </trkpt>
      <trkpt lat="48.823993" lon="2.174778">
        <ele>158.971886</ele>
        <time>2024-09-08T19:49:43.704Z</time>
      </trkpt>
      <trkpt lat="48.823918" lon="2.174214">
        <ele>158.586159</ele>
        <time>2024-09-08T19:49:54.424Z</time>
      </trkpt>
      <trkpt lat="48.823833" lon="2.174019">
        <ele>158.429380</ele>
        <time>2024-09-08T19:49:58.664Z</time>
      </trkpt>
      <trkpt lat="48.823602" lon="2.173926">
        <ele>158.186047</ele>
        <time>2024-09-08T19:50:05.240Z</time>
      </trkpt>
      <trkpt lat="48.823504" lon="2.173752">
        <ele>158.032542</ele>
        <time>2024-09-08T19:50:09.363Z</time>
      </trkpt>
      <trkpt lat="48.823446" lon="2.173504">
        <ele>157.955749</ele>
        <time>2024-09-08T19:50:14.191Z</time>
      </trkpt>
      <trkpt lat="48.823343" lon="2.173376">
        <ele>157.925668</ele>
        <time>2024-09-08T19:50:17.893Z</time>
      </trkpt>
      <trkpt lat="48.823298" lon="2.173163">
        <ele>157.892377</ele>
        <time>2024-09-08T19:50:22.118Z</time>
      </trkpt>
      <trkpt lat="48.823180" lon="2.172860">
        <ele>157.839987</ele>
        <time>2024-09-08T19:50:28.817Z</time>
      </trkpt>
      <trkpt lat="48.823191" lon="2.171866">
        <ele>157.692039</ele>
        <time>2024-09-08T19:50:49.235Z</time>
      </trkpt>
      <trkpt lat="48.823158" lon="2.171506">
        <ele>157.637947</ele>
        <time>2024-09-08T19:50:58.215Z</time>
      </trkpt>
      <trkpt lat="48.823164" lon="2.170495">
        <ele>158.248591</ele>
        <time>2024-09-08T19:51:23.749Z</time>
      </trkpt>
      <trkpt lat="48.823184" lon="2.170239">
        <ele>158.534186</ele>
        <time>2024-09-08T19:51:30.695Z</time>
      </trkpt>
      <trkpt lat="48.823273" lon="2.169824">
        <ele>159.017711</ele>
        <time>2024-09-08T19:51:42.997Z</time>
      </trkpt>
      <trkpt lat="48.823287" lon="2.169375">
        <ele>159.515684</ele>
        <time>2024-09-08T19:51:55.954Z</time>
      </trkpt>
      <trkpt lat="48.823235" lon="2.169206">
        <ele>159.722345</ele>
        <time>2024-09-08T19:52:01.259Z</time>
      </trkpt>
      <trkpt lat="48.823155" lon="2.169076">
        <ele>159.919478</ele>
        <time>2024-09-08T19:52:06.260Z</time>
      </trkpt>
      <trkpt lat="48.822908" lon="2.168941">
        <ele>160.361183</ele>
        <time>2024-09-08T19:52:17.245Z</time>
      </trkpt>
      <trkpt lat="48.822740" lon="2.168805">
        <ele>160.552696</ele>
        <time>2024-09-08T19:52:24.847Z</time>
      </trkpt>
      <trkpt lat="48.822652" lon="2.168684">
        <ele>160.420034</ele>
        <time>2024-09-08T19:52:29.193Z</time>
      </trkpt>
      <trkpt lat="48.822553" lon="2.168429">
        <ele>160.202211</ele>
        <time>2024-09-08T19:52:35.536Z</time>
      </trkpt>
      <trkpt lat="48.822555" lon="2.168148">
        <ele>159.995437</ele>
        <time>2024-09-08T19:52:42.495Z</time>
      </trkpt>
      <trkpt lat="48.822616" lon="2.167925">
        <ele>159.817753</ele>
        <time>2024-09-08T19:52:47.286Z</time>
      </trkpt>
      <trkpt lat="48.823027" lon="2.166900">
        <ele>158.934689</ele>
        <time>2024-09-08T19:53:09.484Z</time>
      </trkpt>
      <trkpt lat="48.823041" lon="2.166788">
        <ele>158.850807</ele>
        <time>2024-09-08T19:53:11.514Z</time>
      </trkpt>
      <trkpt lat="48.823000" lon="2.166453">
        <ele>158.600091</ele>
        <time>2024-09-08T19:53:17.205Z</time>
      </trkpt>
      <trkpt lat="48.823096" lon="2.166122">
        <ele>157.246170</ele>
        <time>2024-09-08T19:53:20.588Z</time>
      </trkpt>
      <trkpt lat="48.823096" lon="2.166122">
        <ele>157.246170</ele>
        <time>2024-09-08T19:53:20.606Z</time>
      </trkpt>
      <trkpt lat="48.823070" lon="2.165997">
        <ele>156.746186</ele>
        <time>2024-09-08T19:53:24.302Z</time>
      </trkpt>
      <trkpt lat="48.823049" lon="2.165870">
        <ele>156.246758</ele>
        <time>2024-09-08T19:53:27.995Z</time>
      </trkpt>
      <trkpt lat="48.822558" lon="2.165854">
        <ele>153.401721</ele>
        <time>2024-09-08T19:53:39.670Z</time>
      </trkpt>
      <trkpt lat="48.821823" lon="2.165926">
        <ele>149.134991</ele>
        <time>2024-09-08T19:53:56.349Z</time>
      </trkpt>
      <trkpt lat="48.821676" lon="2.165940">
        <ele>148.281741</ele>
        <time>2024-09-08T19:53:59.582Z</time>
      </trkpt>
      <trkpt lat="48.820142" lon="2.166071">
        <ele>139.517516</ele>
        <time>2024-09-08T19:54:34.789Z</time>
      </trkpt>
      <trkpt lat="48.818529" lon="2.166159">
        <ele>136.802262</ele>
        <time>2024-09-08T19:55:01.266Z</time>
      </trkpt>
      <trkpt lat="48.818437" lon="2.165874">
        <ele>136.627634</ele>
        <time>2024-09-08T19:55:06.559Z</time>
      </trkpt>
      <trkpt lat="48.818405" lon="2.165784">
        <ele>136.571361</ele>
        <time>2024-09-08T19:55:08.521Z</time>
      </trkpt>
      <trkpt lat="48.818345" lon="2.165850">
        <ele>136.509458</ele>
        <time>2024-09-08T19:55:10.494Z</time>
      </trkpt>
      <trkpt lat="48.818316" lon="2.166043">
        <ele>136.445416</ele>
        <time>2024-09-08T19:55:13.657Z</time>
      </trkpt>
      <trkpt lat="48.818267" lon="2.166114">
        <ele>136.585931</ele>
        <time>2024-09-08T19:55:15.511Z</time>
      </trkpt>
      <trkpt lat="48.818133" lon="2.166188">
        <ele>136.881768</ele>
        <time>2024-09-08T19:55:19.400Z</time>
      </trkpt>
      <trkpt lat="48.817797" lon="2.166188">
        <ele>137.578911</ele>
        <time>2024-09-08T19:55:28.254Z</time>
      </trkpt>
      <trkpt lat="48.817588" lon="2.166210">
        <ele>138.013590</ele>
        <time>2024-09-08T19:55:34.335Z</time>
      </trkpt>
      <trkpt lat="48.817503" lon="2.166219">
        <ele>138.190379</ele>
        <time>2024-09-08T19:55:37.100Z</time>
      </trkpt>
      <trkpt lat="48.817143" lon="2.166250">
        <ele>138.938517</ele>
        <time>2024-09-08T19:55:48.805Z</time>
      </trkpt>
      <trkpt lat="48.816780" lon="2.166272">
        <ele>139.692279</ele>
        <time>2024-09-08T19:56:00.551Z</time>
      </trkpt>
      <trkpt lat="48.816412" lon="2.166303">
        <ele>140.777422</ele>
        <time>2024-09-08T19:56:13.457Z</time>
      </trkpt>
      <trkpt lat="48.813955" lon="2.166423">
        <ele>151.719233</ele>
        <time>2024-09-08T19:58:02.223Z</time>
      </trkpt>
      <trkpt lat="48.813842" lon="2.166244">
        <ele>152.526845</ele>
        <time>2024-09-08T19:58:12.517Z</time>
      </trkpt>
      <trkpt lat="48.813676" lon="2.166074">
        <ele>153.517118</ele>
        <time>2024-09-08T19:58:25.144Z</time>
      </trkpt>
      <trkpt lat="48.813270" lon="2.165824">
        <ele>155.683968</ele>
        <time>2024-09-08T19:58:52.099Z</time>
      </trkpt>
      <trkpt lat="48.813150" lon="2.165781">
        <ele>156.293780</ele>
        <time>2024-09-08T19:58:58.929Z</time>
      </trkpt>
      <trkpt lat="48.812890" lon="2.165688">
        <ele>156.567273</ele>
        <time>2024-09-08T19:59:13.020Z</time>
      </trkpt>
      <trkpt lat="48.812666" lon="2.165678">
        <ele>156.520452</ele>
        <time>2024-09-08T19:59:23.319Z</time>
      </trkpt>
      <trkpt lat="48.812532" lon="2.165812">
        <ele>156.486929</ele>
        <time>2024-09-08T19:59:30.701Z</time>
      </trkpt>
      <trkpt lat="48.812303" lon="2.166533">
        <ele>156.376791</ele>
        <time>2024-09-08T19:59:49.312Z</time>
      </trkpt>
      <trkpt lat="48.812079" lon="2.166545">
        <ele>156.329961</ele>
        <time>2024-09-08T19:59:53.379Z</time>
      </trkpt>
      <trkpt lat="48.811889" lon="2.166573">
        <ele>156.290076</ele>
        <time>2024-09-08T19:59:56.384Z</time>
      </trkpt>
      <trkpt lat="48.811726" lon="2.166586">
        <ele>156.255973</ele>
        <time>2024-09-08T19:59:58.945Z</time>
      </trkpt>
      <trkpt lat="48.811130" lon="2.166482">
        <ele>152.492825</ele>
        <time>2024-09-08T20:00:07.592Z</time>
      </trkpt>
      <trkpt lat="48.810422" lon="2.166329">
        <ele>147.081955</ele>
        <time>2024-09-08T20:00:17.533Z</time>
      </trkpt>
      <trkpt lat="48.810403" lon="2.166322">
        <ele>146.934026</ele>
        <time>2024-09-08T20:00:17.801Z</time>
      </trkpt>
      <trkpt lat="48.810365" lon="2.166314">
        <ele>146.643759</ele>
        <time>2024-09-08T20:00:18.266Z</time>
      </trkpt>
      <trkpt lat="48.809599" lon="2.166142">
        <ele>140.865268</ele>
        <time>2024-09-08T20:00:27.727Z</time>
      </trkpt>
      <trkpt lat="48.809548" lon="2.166131">
        <ele>140.492520</ele>
        <time>2024-09-08T20:00:28.372Z</time>
      </trkpt>
      <trkpt lat="48.809530" lon="2.166189">
        <ele>140.186970</ele>
        <time>2024-09-08T20:00:28.890Z</time>
      </trkpt>
      <trkpt lat="48.808171" lon="2.166963">
        <ele>129.684047</ele>
        <time>2024-09-08T20:00:47.215Z</time>
      </trkpt>
      <trkpt lat="48.808057" lon="2.167047">
        <ele>128.917889</ele>
        <time>2024-09-08T20:00:49.412Z</time>
      </trkpt>
      <trkpt lat="48.807927" lon="2.166790">
        <ele>127.649881</ele>
        <time>2024-09-08T20:00:52.394Z</time>
      </trkpt>
      <trkpt lat="48.807013" lon="2.167236">
        <ele>121.945901</ele>
        <time>2024-09-08T20:01:04.863Z</time>
      </trkpt>
      <trkpt lat="48.805981" lon="2.167710">
        <ele>115.932993</ele>
        <time>2024-09-08T20:01:19.029Z</time>
      </trkpt>
      <trkpt lat="48.805842" lon="2.167707">
        <ele>115.202999</ele>
        <time>2024-09-08T20:01:20.817Z</time>
      </trkpt>
      <trkpt lat="48.805820" lon="2.167772">
        <ele>114.950247</ele>
        <time>2024-09-08T20:01:21.432Z</time>
      </trkpt>
      <trkpt lat="48.805721" lon="2.168142">
        <ele>113.569022</ele>
        <time>2024-09-08T20:01:24.828Z</time>
      </trkpt>
      <trkpt lat="48.805714" lon="2.168206">
        <ele>113.344644</ele>
        <time>2024-09-08T20:01:25.376Z</time>
      </trkpt>
      <trkpt lat="48.805720" lon="2.168435">
        <ele>112.552014</ele>
        <time>2024-09-08T20:01:27.333Z</time>
      </trkpt>
      <trkpt lat="48.805726" lon="2.168866">
        <ele>111.061053</ele>
        <time>2024-09-08T20:01:31.071Z</time>
      </trkpt>
      <trkpt lat="48.805737" lon="2.169027">
        <ele>110.501241</ele>
        <time>2024-09-08T20:01:32.505Z</time>
      </trkpt>
      <trkpt lat="48.805677" lon="2.169126">
        <ele>110.035940</ele>
        <time>2024-09-08T20:01:33.741Z</time>
      </trkpt>
      <trkpt lat="48.805649" lon="2.169151">
        <ele>109.865367</ele>
        <time>2024-09-08T20:01:34.186Z</time>
      </trkpt>
      <trkpt lat="48.805558" lon="2.169226">
        <ele>109.436444</ele>
        <time>2024-09-08T20:01:35.620Z</time>
      </trkpt>
      <trkpt lat="48.805459" lon="2.169307">
        <ele>109.279015</ele>
        <time>2024-09-08T20:01:37.199Z</time>
      </trkpt>
      <trkpt lat="48.805411" lon="2.169334">
        <ele>109.207358</ele>
        <time>2024-09-08T20:01:37.950Z</time>
      </trkpt>
      <trkpt lat="48.805334" lon="2.169375">
        <ele>109.093131</ele>
        <time>2024-09-08T20:01:39.131Z</time>
      </trkpt>
      <trkpt lat="48.805137" lon="2.169401">
        <ele>108.816314</ele>
        <time>2024-09-08T20:01:41.948Z</time>
      </trkpt>
      <trkpt lat="48.805072" lon="2.169401">
        <ele>108.725322</ele>
        <time>2024-09-08T20:01:42.941Z</time>
      </trkpt>
      <trkpt lat="48.804768" lon="2.169417">
        <ele>108.299502</ele>
        <time>2024-09-08T20:01:47.452Z</time>
      </trkpt>
      <trkpt lat="48.804644" lon="2.169441">
        <ele>108.124512</ele>
        <time>2024-09-08T20:01:49.537Z</time>
      </trkpt>
      <trkpt lat="48.804437" lon="2.169511">
        <ele>107.827636</ele>
        <time>2024-09-08T20:01:52.939Z</time>
      </trkpt>
      <trkpt lat="48.804117" lon="2.169608">
        <ele>107.370833</ele>
        <time>2024-09-08T20:01:59.185Z</time>
      </trkpt>
      <trkpt lat="48.804010" lon="2.169806">
        <ele>107.134690</ele>
        <time>2024-09-08T20:02:03.266Z</time>
      </trkpt>
      <trkpt lat="48.803954" lon="2.169923">
        <ele>107.001338</ele>
        <time>2024-09-08T20:02:05.681Z</time>
      </trkpt>
      <trkpt lat="48.803882" lon="2.170106">
        <ele>107.289521</ele>
        <time>2024-09-08T20:02:09.359Z</time>
      </trkpt>
      <trkpt lat="48.803783" lon="2.170266">
        <ele>107.718115</ele>
        <time>2024-09-08T20:02:14.437Z</time>
      </trkpt>
      <trkpt lat="48.803580" lon="2.170444">
        <ele>108.412987</ele>
        <time>2024-09-08T20:02:22.426Z</time>
      </trkpt>
      <trkpt lat="48.803456" lon="2.170515">
        <ele>108.805816</ele>
        <time>2024-09-08T20:02:27.618Z</time>
      </trkpt>
      <trkpt lat="48.803137" lon="2.170633">
        <ele>109.779053</ele>
        <time>2024-09-08T20:02:40.160Z</time>
      </trkpt>
      <trkpt lat="48.802895" lon="2.170692">
        <ele>110.505577</ele>
        <time>2024-09-08T20:02:49.129Z</time>
      </trkpt>
      <trkpt lat="48.802583" lon="2.170749">
        <ele>111.437076</ele>
        <time>2024-09-08T20:02:59.752Z</time>
      </trkpt>
      <trkpt lat="48.802327" lon="2.170785">
        <ele>112.199157</ele>
        <time>2024-09-08T20:03:08.639Z</time>
      </trkpt>
      <trkpt lat="48.801920" lon="2.170837">
        <ele>113.396322</ele>
        <time>2024-09-08T20:03:23.643Z</time>
      </trkpt>
      <trkpt lat="48.801830" lon="2.170848">
        <ele>113.660724</ele>
        <time>2024-09-08T20:03:27.184Z</time>
      </trkpt>
      <trkpt lat="48.801743" lon="2.170860">
        <ele>113.916538</ele>
        <time>2024-09-08T20:03:30.340Z</time>
      </trkpt>
      <trkpt lat="48.801227" lon="2.170959">
        <ele>115.439575</ele>
        <time>2024-09-08T20:03:48.462Z</time>
      </trkpt>
      <trkpt lat="48.801154" lon="2.170974">
        <ele>115.655293</ele>
        <time>2024-09-08T20:03:50.812Z</time>
      </trkpt>
      <trkpt lat="48.800902" lon="2.171015">
        <ele>116.397458</ele>
        <time>2024-09-08T20:03:58.792Z</time>
      </trkpt>
      <trkpt lat="48.800598" lon="2.171077">
        <ele>117.295667</ele>
        <time>2024-09-08T20:04:07.816Z</time>
      </trkpt>
      <trkpt lat="48.800466" lon="2.171104">
        <ele>117.691010</ele>
        <time>2024-09-08T20:04:12.019Z</time>
      </trkpt>
      <trkpt lat="48.800429" lon="2.171114">
        <ele>117.805669</ele>
        <time>2024-09-08T20:04:13.246Z</time>
      </trkpt>
      <trkpt lat="48.800089" lon="2.171195">
        <ele>118.855672</ele>
        <time>2024-09-08T20:04:24.354Z</time>
      </trkpt>
      <trkpt lat="48.799993" lon="2.171264">
        <ele>119.179725</ele>
        <time>2024-09-08T20:04:27.880Z</time>
      </trkpt>
      <trkpt lat="48.799772" lon="2.171312">
        <ele>119.860841</ele>
        <time>2024-09-08T20:04:35.539Z</time>
      </trkpt>
      <trkpt lat="48.799596" lon="2.171392">
        <ele>120.421352</ele>
        <time>2024-09-08T20:04:42.226Z</time>
      </trkpt>
      <trkpt lat="48.799332" lon="2.171568">
        <ele>121.301030</ele>
        <time>2024-09-08T20:04:53.199Z</time>
      </trkpt>
      <trkpt lat="48.799300" lon="2.171397">
        <ele>121.658276</ele>
        <time>2024-09-08T20:04:57.507Z</time>
      </trkpt>
      <trkpt lat="48.799250" lon="2.170400">
        <ele>123.508144</ele>
        <time>2024-09-08T20:05:20.590Z</time>
      </trkpt>
      <trkpt lat="48.799233" lon="2.170048">
        <ele>124.035321</ele>
        <time>2024-09-08T20:05:28.025Z</time>
      </trkpt>
      <trkpt lat="48.799204" lon="2.169471">
        <ele>124.899664</ele>
        <time>2024-09-08T20:05:40.322Z</time>
      </trkpt>
      <trkpt lat="48.799137" lon="2.168798">
        <ele>125.916309</ele>
        <time>2024-09-08T20:05:54.370Z</time>
      </trkpt>
      <trkpt lat="48.799126" lon="2.168687">
        <ele>126.083971</ele>
        <time>2024-09-08T20:05:56.478Z</time>
      </trkpt>
      <trkpt lat="48.799112" lon="2.168560">
        <ele>126.276303</ele>
        <time>2024-09-08T20:05:58.881Z</time>
      </trkpt>
      <trkpt lat="48.799003" lon="2.167508">
        <ele>127.116121</ele>
        <time>2024-09-08T20:06:17.026Z</time>
      </trkpt>
      <trkpt lat="48.798922" lon="2.166690">
        <ele>127.101517</ele>
        <time>2024-09-08T20:06:29.720Z</time>
      </trkpt>
      <trkpt lat="48.798883" lon="2.166348">
        <ele>127.095389</ele>
        <time>2024-09-08T20:06:34.485Z</time>
      </trkpt>
      <trkpt lat="48.798830" lon="2.166058">
        <ele>127.090075</ele>
        <time>2024-09-08T20:06:38.031Z</time>
      </trkpt>
      <trkpt lat="48.798718" lon="2.165630">
        <ele>127.081944</ele>
        <time>2024-09-08T20:06:42.848Z</time>
      </trkpt>
      <trkpt lat="48.798686" lon="2.165817">
        <ele>127.078533</ele>
        <time>2024-09-08T20:06:44.932Z</time>
      </trkpt>
      <trkpt lat="48.798676" lon="2.166129">
        <ele>127.035408</ele>
        <time>2024-09-08T20:06:47.897Z</time>
      </trkpt>
      <trkpt lat="48.798572" lon="2.166101">
        <ele>127.003523</ele>
        <time>2024-09-08T20:06:49.555Z</time>
      </trkpt>
      <trkpt lat="48.798338" lon="2.166126">
        <ele>126.932711</ele>
        <time>2024-09-08T20:06:53.082Z</time>
      </trkpt>
      <trkpt lat="48.798291" lon="2.166064">
        <ele>126.913915</ele>
        <time>2024-09-08T20:06:54.865Z</time>
      </trkpt>
      <trkpt lat="48.798243" lon="2.165859">
        <ele>126.870653</ele>
        <time>2024-09-08T20:06:59.234Z</time>
      </trkpt>
      <trkpt lat="48.798209" lon="2.165389">
        <ele>126.776634</ele>
        <time>2024-09-08T20:07:08.919Z</time>
      </trkpt>
      <trkpt lat="48.798145" lon="2.165189">
        <ele>126.732421</ele>
        <time>2024-09-08T20:07:13.477Z</time>
      </trkpt>
      <trkpt lat="48.798072" lon="2.165057">
        <ele>126.698149</ele>
        <time>2024-09-08T20:07:17.093Z</time>
      </trkpt>
      <trkpt lat="48.797959" lon="2.164953">
        <ele>126.658259</ele>
        <time>2024-09-08T20:07:22.510Z</time>
      </trkpt>
      <trkpt lat="48.797782" lon="2.164842">
        <ele>126.600449</ele>
        <time>2024-09-08T20:07:29.606Z</time>
      </trkpt>
      <trkpt lat="48.797615" lon="2.164816">
        <ele>126.549772</ele>
        <time>2024-09-08T20:07:35.545Z</time>
      </trkpt>
      <trkpt lat="48.797475" lon="2.164840">
        <ele>126.829628</ele>
        <time>2024-09-08T20:07:40.742Z</time>
      </trkpt>
      <trkpt lat="48.797340" lon="2.164921">
        <ele>127.319193</ele>
        <time>2024-09-08T20:07:46.467Z</time>
      </trkpt>
      <trkpt lat="48.797078" lon="2.165350">
        <ele>128.618844</ele>
        <time>2024-09-08T20:08:01.611Z</time>
      </trkpt>
      <trkpt lat="48.796937" lon="2.165547">
        <ele>129.265118</ele>
        <time>2024-09-08T20:08:09.989Z</time>
      </trkpt>
      <trkpt lat="48.796791" lon="2.165603">
        <ele>129.772985</ele>
        <time>2024-09-08T20:08:16.996Z</time>
      </trkpt>
      <trkpt lat="48.796679" lon="2.165618">
        <ele>130.152178</ele>
        <time>2024-09-08T20:08:22.384Z</time>
      </trkpt>
      <trkpt lat="48.796362" lon="2.165575">
        <ele>131.225537</ele>
        <time>2024-09-08T20:08:39.755Z</time>
      </trkpt>
      <trkpt lat="48.796192" lon="2.165612">
        <ele>131.804733</ele>
        <time>2024-09-08T20:08:50.279Z</time>
      </trkpt>
      <trkpt lat="48.795867" lon="2.165724">
        <ele>133.018399</ele>
        <time>2024-09-08T20:09:11.385Z</time>
      </trkpt>
      <trkpt lat="48.795605" lon="2.165731">
        <ele>134.143120</ele>
        <time>2024-09-08T20:09:27.711Z</time>
      </trkpt>
      <trkpt lat="48.795482" lon="2.165610">
        <ele>134.772218</ele>
        <time>2024-09-08T20:09:37.044Z</time>
      </trkpt>
      <trkpt lat="48.795310" lon="2.165499">
        <ele>135.574413</ele>
        <time>2024-09-08T20:09:48.092Z</time>
      </trkpt>
      <trkpt lat="48.795130" lon="2.165488">
        <ele>136.347629</ele>
        <time>2024-09-08T20:09:58.817Z</time>
      </trkpt>
      <trkpt lat="48.794926" lon="2.165570">
        <ele>137.253407</ele>
        <time>2024-09-08T20:10:10.389Z</time>
      </trkpt>
      <trkpt lat="48.794711" lon="2.165815">
        <ele>138.407301</ele>
        <time>2024-09-08T20:10:23.647Z</time>
      </trkpt>
      <trkpt lat="48.794470" lon="2.166174">
        <ele>139.856571</ele>
        <time>2024-09-08T20:10:37.183Z</time>
      </trkpt>
      <trkpt lat="48.794305" lon="2.166282">
        <ele>140.432559</ele>
        <time>2024-09-08T20:10:44.609Z</time>
      </trkpt>
      <trkpt lat="48.794104" lon="2.166266">
        <ele>140.748792</ele>
        <time>2024-09-08T20:10:52.856Z</time>
      </trkpt>
      <trkpt lat="48.793975" lon="2.166194">
        <ele>140.964735</ele>
        <time>2024-09-08T20:10:58.881Z</time>
      </trkpt>
      <trkpt lat="48.793867" lon="2.166054">
        <ele>141.187869</ele>
        <time>2024-09-08T20:11:05.035Z</time>
      </trkpt>
      <trkpt lat="48.793818" lon="2.165906">
        <ele>141.359310</ele>
        <time>2024-09-08T20:11:09.633Z</time>
      </trkpt>
      <trkpt lat="48.793831" lon="2.165689">
        <ele>141.584836</ele>
        <time>2024-09-08T20:11:16.243Z</time>
      </trkpt>
      <trkpt lat="48.794017" lon="2.165196">
        <ele>142.172858</ele>
        <time>2024-09-08T20:11:31.344Z</time>
      </trkpt>
      <trkpt lat="48.794013" lon="2.164979">
        <ele>142.397544</ele>
        <time>2024-09-08T20:11:36.280Z</time>
      </trkpt>
      <trkpt lat="48.793939" lon="2.164821">
        <ele>142.598194</ele>
        <time>2024-09-08T20:11:40.567Z</time>
      </trkpt>
      <trkpt lat="48.793719" lon="2.164722">
        <ele>142.958713</ele>
        <time>2024-09-08T20:11:48.060Z</time>
      </trkpt>
      <trkpt lat="48.792941" lon="2.164689">
        <ele>144.502175</ele>
        <time>2024-09-08T20:12:15.830Z</time>
      </trkpt>
      <trkpt lat="48.792737" lon="2.164514">
        <ele>144.984293</ele>
        <time>2024-09-08T20:12:25.420Z</time>
      </trkpt>
      <trkpt lat="48.792619" lon="2.164520">
        <ele>145.227213</ele>
        <time>2024-09-08T20:12:30.999Z</time>
      </trkpt>
      <trkpt lat="48.792555" lon="2.164569">
        <ele>145.374695</ele>
        <time>2024-09-08T20:12:34.289Z</time>
      </trkpt>
      <trkpt lat="48.792410" lon="2.164689">
        <ele>145.714491</ele>
        <time>2024-09-08T20:12:42.361Z</time>
      </trkpt>
      <trkpt lat="48.792335" lon="2.164929">
        <ele>146.074544</ele>
        <time>2024-09-08T20:12:51.289Z</time>
      </trkpt>
      <trkpt lat="48.792340" lon="2.165128">
        <ele>146.344477</ele>
        <time>2024-09-08T20:12:57.070Z</time>
      </trkpt>
      <trkpt lat="48.792421" lon="2.165355">
        <ele>146.694401</ele>
        <time>2024-09-08T20:13:05.115Z</time>
      </trkpt>
      <trkpt lat="48.792425" lon="2.165521">
        <ele>146.927697</ele>
        <time>2024-09-08T20:13:10.009Z</time>
      </trkpt>
      <trkpt lat="48.792397" lon="2.165657">
        <ele>147.142333</ele>
        <time>2024-09-08T20:13:14.124Z</time>
      </trkpt>
      <trkpt lat="48.792289" lon="2.165926">
        <ele>147.616864</ele>
        <time>2024-09-08T20:13:24.125Z</time>
      </trkpt>
      <trkpt lat="48.792075" lon="2.166080">
        <ele>148.158391</ele>
        <time>2024-09-08T20:13:35.375Z</time>
      </trkpt>
      <trkpt lat="48.791951" lon="2.166076">
        <ele>148.441989</ele>
        <time>2024-09-08T20:13:41.645Z</time>
      </trkpt>
      <trkpt lat="48.791616" lon="2.165811">
        <ele>149.305761</ele>
        <time>2024-09-08T20:13:59.257Z</time>
      </trkpt>
      <trkpt lat="48.791495" lon="2.165791">
        <ele>149.584070</ele>
        <time>2024-09-08T20:14:04.162Z</time>
      </trkpt>
      <trkpt lat="48.791347" lon="2.165883">
        <ele>149.949759</ele>
        <time>2024-09-08T20:14:11.079Z</time>
      </trkpt>
      <trkpt lat="48.791252" lon="2.166040">
        <ele>150.270882</ele>
        <time>2024-09-08T20:14:16.035Z</time>
      </trkpt>
      <trkpt lat="48.791170" lon="2.166424">
        <ele>150.878966</ele>
        <time>2024-09-08T20:14:25.131Z</time>
      </trkpt>
      <trkpt lat="48.790980" lon="2.166837">
        <ele>151.612304</ele>
        <time>2024-09-08T20:14:36.451Z</time>
      </trkpt>
      <trkpt lat="48.790900" lon="2.166821">
        <ele>151.789882</ele>
        <time>2024-09-08T20:14:39.414Z</time>
      </trkpt>
      <trkpt lat="48.790721" lon="2.166666">
        <ele>152.243401</ele>
        <time>2024-09-08T20:14:46.845Z</time>
      </trkpt>
      <trkpt lat="48.790616" lon="2.166614">
        <ele>152.486463</ele>
        <time>2024-09-08T20:14:51.816Z</time>
      </trkpt>
      <trkpt lat="48.790388" lon="2.166663">
        <ele>152.993229</ele>
        <time>2024-09-08T20:15:01.373Z</time>
      </trkpt>
      <trkpt lat="48.790224" lon="2.166627">
        <ele>153.357899</ele>
        <time>2024-09-08T20:15:09.526Z</time>
      </trkpt>
      <trkpt lat="48.790037" lon="2.166477">
        <ele>153.823363</ele>
        <time>2024-09-08T20:15:19.241Z</time>
      </trkpt>
      <trkpt lat="48.789933" lon="2.166450">
        <ele>154.055560</ele>
        <time>2024-09-08T20:15:25.060Z</time>
      </trkpt>
      <trkpt lat="48.789824" lon="2.166465">
        <ele>154.296420</ele>
        <time>2024-09-08T20:15:30.376Z</time>
      </trkpt>
      <trkpt lat="48.789578" lon="2.166577">
        <ele>154.861624</ele>
        <time>2024-09-08T20:15:42.832Z</time>
      </trkpt>
      <trkpt lat="48.789097" lon="2.166734">
        <ele>156.239818</ele>
        <time>2024-09-08T20:16:05.060Z</time>
      </trkpt>
      <trkpt lat="48.788950" lon="2.166930">
        <ele>156.794299</ele>
        <time>2024-09-08T20:16:14.254Z</time>
      </trkpt>
      <trkpt lat="48.788853" lon="2.167174">
        <ele>157.326367</ele>
        <time>2024-09-08T20:16:21.952Z</time>
      </trkpt>
      <trkpt lat="48.788661" lon="2.167401">
        <ele>158.016056</ele>
        <time>2024-09-08T20:16:32.976Z</time>
      </trkpt>
      <trkpt lat="48.788496" lon="2.167505">
        <ele>158.522357</ele>
        <time>2024-09-08T20:16:41.679Z</time>
      </trkpt>
      <trkpt lat="48.788250" lon="2.167542">
        <ele>159.222902</ele>
        <time>2024-09-08T20:16:53.527Z</time>
      </trkpt>
      <trkpt lat="48.788138" lon="2.167394">
        <ele>159.643728</ele>
        <time>2024-09-08T20:17:00.847Z</time>
      </trkpt>
      <trkpt lat="48.787974" lon="2.167017">
        <ele>160.355132</ele>
        <time>2024-09-08T20:17:14.241Z</time>
      </trkpt>
      <trkpt lat="48.787948" lon="2.166777">
        <ele>160.682359</ele>
        <time>2024-09-08T20:17:21.419Z</time>
      </trkpt>
      <trkpt lat="48.787962" lon="2.166597">
        <ele>160.926210</ele>
        <time>2024-09-08T20:17:26.024Z</time>
      </trkpt>
      <trkpt lat="48.787914" lon="2.166431">
        <ele>161.170106</ele>
        <time>2024-09-08T20:17:31.087Z</time>
      </trkpt>
      <trkpt lat="48.787776" lon="2.166340">
        <ele>161.477352</ele>
        <time>2024-09-08T20:17:37.250Z</time>
      </trkpt>
      <trkpt lat="48.787562" lon="2.166327">
        <ele>161.914696</ele>
        <time>2024-09-08T20:17:45.525Z</time>
      </trkpt>
      <trkpt lat="48.787493" lon="2.166260">
        <ele>162.081963</ele>
        <time>2024-09-08T20:17:48.650Z</time>
      </trkpt>
      <trkpt lat="48.787413" lon="2.165717">
        <ele>162.830556</ele>
        <time>2024-09-08T20:18:03.070Z</time>
      </trkpt>
      <trkpt lat="48.787352" lon="2.165576">
        <ele>163.057498</ele>
        <time>2024-09-08T20:18:07.464Z</time>
      </trkpt>
      <trkpt lat="48.787166" lon="2.165390">
        <ele>163.512342</ele>
        <time>2024-09-08T20:18:16.946Z</time>
      </trkpt>
      <trkpt lat="48.787101" lon="2.165272">
        <ele>163.724516</ele>
        <time>2024-09-08T20:18:21.107Z</time>
      </trkpt>
      <trkpt lat="48.787065" lon="2.165184">
        <ele>163.886790</ele>
        <time>2024-09-08T20:18:23.784Z</time>
      </trkpt>
      <trkpt lat="48.787046" lon="2.164951">
        <ele>164.254593</ele>
        <time>2024-09-08T20:18:30.404Z</time>
      </trkpt>
      <trkpt lat="48.786962" lon="2.164642">
        <ele>164.778259</ele>
        <time>2024-09-08T20:18:40.589Z</time>
      </trkpt>
      <trkpt lat="48.786789" lon="2.164493">
        <ele>165.251225</ele>
        <time>2024-09-08T20:18:50.067Z</time>
      </trkpt>
      <trkpt lat="48.786294" lon="2.164311">
        <ele>166.462253</ele>
        <time>2024-09-08T20:19:12.564Z</time>
      </trkpt>
      <trkpt lat="48.786217" lon="2.164217">
        <ele>166.697215</ele>
        <time>2024-09-08T20:19:17.086Z</time>
      </trkpt>
      <trkpt lat="48.786165" lon="2.164028">
        <ele>167.018087</ele>
        <time>2024-09-08T20:19:23.026Z</time>
      </trkpt>
      <trkpt lat="48.786209" lon="2.163863">
        <ele>167.296950</ele>
        <time>2024-09-08T20:19:27.934Z</time>
      </trkpt>
      <trkpt lat="48.786477" lon="2.163536">
        <ele>168.061811</ele>
        <time>2024-09-08T20:19:42.879Z</time>
      </trkpt>
      <trkpt lat="48.786515" lon="2.163363">
        <ele>168.247307</ele>
        <time>2024-09-08T20:19:48.376Z</time>
      </trkpt>
      <trkpt lat="48.786515" lon="2.163182">
        <ele>168.431419</ele>
        <time>2024-09-08T20:19:53.333Z</time>
      </trkpt>
      <trkpt lat="48.786472" lon="2.162815">
        <ele>168.810585</ele>
        <time>2024-09-08T20:20:03.276Z</time>
      </trkpt>
      <trkpt lat="48.786502" lon="2.162157">
        <ele>169.481499</ele>
        <time>2024-09-08T20:20:20.457Z</time>
      </trkpt>
      <trkpt lat="48.786418" lon="2.162008">
        <ele>169.680970</ele>
        <time>2024-09-08T20:20:24.893Z</time>
      </trkpt>
      <trkpt lat="48.786417" lon="2.162299">
        <ele>169.976978</ele>
        <time>2024-09-08T20:20:29.978Z</time>
      </trkpt>
      <trkpt lat="48.786349" lon="2.162576">
        <ele>170.277663</ele>
        <time>2024-09-08T20:20:34.614Z</time>
      </trkpt>
      <trkpt lat="48.786352" lon="2.163062">
        <ele>170.772068</ele>
        <time>2024-09-08T20:20:43.613Z</time>
      </trkpt>
      <trkpt lat="48.786352" lon="2.163063">
        <ele>170.773086</ele>
        <time>2024-09-08T20:20:43.632Z</time>
      </trkpt>
      <trkpt lat="48.786312" lon="2.163331">
        <ele>171.052836</ele>
        <time>2024-09-08T20:20:49.174Z</time>
      </trkpt>
      <trkpt lat="48.786270" lon="2.163447">
        <ele>171.187586</ele>
        <time>2024-09-08T20:20:51.587Z</time>
      </trkpt>
      <trkpt lat="48.786088" lon="2.163673">
        <ele>171.550930</ele>
        <time>2024-09-08T20:20:58.805Z</time>
      </trkpt>
      <trkpt lat="48.786020" lon="2.163827">
        <ele>171.739662</ele>
        <time>2024-09-08T20:21:02.281Z</time>
      </trkpt>
      <trkpt lat="48.785980" lon="2.164123">
        <ele>172.047279</ele>
        <time>2024-09-08T20:21:08.255Z</time>
      </trkpt>
      <trkpt lat="48.785981" lon="2.164314">
        <ele>172.241734</ele>
        <time>2024-09-08T20:21:12.017Z</time>
      </trkpt>
      <trkpt lat="48.786018" lon="2.164434">
        <ele>172.376615</ele>
        <time>2024-09-08T20:21:15.116Z</time>
      </trkpt>
      <trkpt lat="48.785846" lon="2.164406">
        <ele>172.643905</ele>
        <time>2024-09-08T20:21:22.149Z</time>
      </trkpt>
      <trkpt lat="48.785534" lon="2.164449">
        <ele>173.127973</ele>
        <time>2024-09-08T20:21:34.536Z</time>
      </trkpt>
      <trkpt lat="48.785392" lon="2.164425">
        <ele>173.348740</ele>
        <time>2024-09-08T20:21:40.264Z</time>
      </trkpt>
      <trkpt lat="48.785167" lon="2.164341">
        <ele>173.650607</ele>
        <time>2024-09-08T20:21:49.771Z</time>
      </trkpt>
      <trkpt lat="48.784591" lon="2.163964">
        <ele>174.328216</ele>
        <time>2024-09-08T20:22:14.343Z</time>
      </trkpt>
      <trkpt lat="48.783619" lon="2.163328">
        <ele>175.468119</ele>
        <time>2024-09-08T20:22:51.522Z</time>
      </trkpt>
      <trkpt lat="48.783315" lon="2.163021">
        <ele>175.700348</ele>
        <time>2024-09-08T20:23:04.785Z</time>
      </trkpt>
      <trkpt lat="48.783083" lon="2.162742">
        <ele>175.888603</ele>
        <time>2024-09-08T20:23:16.016Z</time>
      </trkpt>
      <trkpt lat="48.782802" lon="2.163100">
        <ele>176.121937</ele>
        <time>2024-09-08T20:23:29.233Z</time>
      </trkpt>
      <trkpt lat="48.782720" lon="2.163445">
        <ele>176.275630</ele>
        <time>2024-09-08T20:23:34.410Z</time>
      </trkpt>
      <trkpt lat="48.782637" lon="2.164700">
        <ele>176.614148</ele>
        <time>2024-09-08T20:23:51.361Z</time>
      </trkpt>
      <trkpt lat="48.782351" lon="2.164601">
        <ele>176.620914</ele>
        <time>2024-09-08T20:24:00.727Z</time>
      </trkpt>
      <trkpt lat="48.782206" lon="2.164556">
        <ele>176.624327</ele>
        <time>2024-09-08T20:24:05.706Z</time>
      </trkpt>
      <trkpt lat="48.781807" lon="2.164421">
        <ele>176.633756</ele>
        <time>2024-09-08T20:24:19.346Z</time>
      </trkpt>
      <trkpt lat="48.781371" lon="2.164356">
        <ele>176.643860</ele>
        <time>2024-09-08T20:24:33.237Z</time>
      </trkpt>
      <trkpt lat="48.781289" lon="2.164285">
        <ele>176.646038</ele>
        <time>2024-09-08T20:24:36.201Z</time>
      </trkpt>
      <trkpt lat="48.781242" lon="2.164131">
        <ele>176.640451</ele>
        <time>2024-09-08T20:24:39.730Z</time>
      </trkpt>
      <trkpt lat="48.781275" lon="2.162768">
        <ele>175.417771</ele>
        <time>2024-09-08T20:25:05.897Z</time>
      </trkpt>
      <trkpt lat="48.781170" lon="2.162823">
        <ele>175.266654</ele>
        <time>2024-09-08T20:25:07.916Z</time>
      </trkpt>
      <trkpt lat="48.781073" lon="2.162919">
        <ele>175.109109</ele>
        <time>2024-09-08T20:25:09.959Z</time>
      </trkpt>
      <trkpt lat="48.781111" lon="2.162708">
        <ele>174.913021</ele>
        <time>2024-09-08T20:25:13.799Z</time>
      </trkpt>
      <trkpt lat="48.781104" lon="2.162501">
        <ele>174.727212</ele>
        <time>2024-09-08T20:25:17.684Z</time>
      </trkpt>
      <trkpt lat="48.781008" lon="2.162078">
        <ele>174.326153</ele>
        <time>2024-09-08T20:25:25.646Z</time>
      </trkpt>
      <trkpt lat="48.780932" lon="2.161746">
        <ele>173.828484</ele>
        <time>2024-09-08T20:25:31.875Z</time>
      </trkpt>
      <trkpt lat="48.780931" lon="2.160954">
        <ele>172.437740</ele>
        <time>2024-09-08T20:25:45.804Z</time>
      </trkpt>
      <trkpt lat="48.780728" lon="2.160648">
        <ele>171.675261</ele>
        <time>2024-09-08T20:25:53.258Z</time>
      </trkpt>
      <trkpt lat="48.779401" lon="2.159657">
        <ele>168.351425</ele>
        <time>2024-09-08T20:26:32.029Z</time>
      </trkpt>
      <trkpt lat="48.778971" lon="2.159326">
        <ele>167.540345</ele>
        <time>2024-09-08T20:26:45.520Z</time>
      </trkpt>
      <trkpt lat="48.777257" lon="2.158013">
        <ele>165.488566</ele>
        <time>2024-09-08T20:27:43.412Z</time>
      </trkpt>
      <trkpt lat="48.775289" lon="2.156505">
        <ele>163.666314</ele>
        <time>2024-09-08T20:28:48.364Z</time>
      </trkpt>
      <trkpt lat="48.774559" lon="2.155942">
        <ele>162.559901</ele>
        <time>2024-09-08T20:29:12.865Z</time>
      </trkpt>
      <trkpt lat="48.773110" lon="2.154823">
        <ele>158.703261</ele>
        <time>2024-09-08T20:29:58.108Z</time>
      </trkpt>
      <trkpt lat="48.771100" lon="2.153269">
        <ele>144.950129</ele>
        <time>2024-09-08T20:30:51.348Z</time>
      </trkpt>
      <trkpt lat="48.771113" lon="2.152916">
        <ele>143.007975</ele>
        <time>2024-09-08T20:30:54.489Z</time>
      </trkpt>
      <trkpt lat="48.770885" lon="2.152343">
        <ele>139.331140</ele>
        <time>2024-09-08T20:31:03.773Z</time>
      </trkpt>
      <trkpt lat="48.770701" lon="2.152091">
        <ele>137.126376</ele>
        <time>2024-09-08T20:31:08.946Z</time>
      </trkpt>
      <trkpt lat="48.770616" lon="2.152030">
        <ele>136.144839</ele>
        <time>2024-09-08T20:31:10.951Z</time>
      </trkpt>
      <trkpt lat="48.770443" lon="2.151908">
        <ele>134.153409</ele>
        <time>2024-09-08T20:31:14.934Z</time>
      </trkpt>
      <trkpt lat="48.770214" lon="2.151657">
        <ele>131.204437</ele>
        <time>2024-09-08T20:31:20.938Z</time>
      </trkpt>
      <trkpt lat="48.770085" lon="2.151435">
        <ele>129.168230</ele>
        <time>2024-09-08T20:31:25.054Z</time>
      </trkpt>
      <trkpt lat="48.769952" lon="2.150986">
        <ele>125.781464</ele>
        <time>2024-09-08T20:31:31.916Z</time>
      </trkpt>
      <trkpt lat="48.769959" lon="2.150497">
        <ele>122.416347</ele>
        <time>2024-09-08T20:31:38.763Z</time>
      </trkpt>
      <trkpt lat="48.769993" lon="2.150328">
        <ele>121.200664</ele>
        <time>2024-09-08T20:31:41.308Z</time>
      </trkpt>
      <trkpt lat="48.770065" lon="2.149988">
        <ele>118.895273</ele>
        <time>2024-09-08T20:31:46.392Z</time>
      </trkpt>
      <trkpt lat="48.770223" lon="2.149565">
        <ele>117.265221</ele>
        <time>2024-09-08T20:31:53.534Z</time>
      </trkpt>
      <trkpt lat="48.770517" lon="2.148824">
        <ele>114.365557</ele>
        <time>2024-09-08T20:32:07.409Z</time>
      </trkpt>
      <trkpt lat="48.770786" lon="2.148239">
        <ele>111.974154</ele>
        <time>2024-09-08T20:32:19.588Z</time>
      </trkpt>
      <trkpt lat="48.770962" lon="2.147925">
        <ele>110.592245</ele>
        <time>2024-09-08T20:32:26.557Z</time>
      </trkpt>
      <trkpt lat="48.771064" lon="2.147825">
        <ele>109.974508</ele>
        <time>2024-09-08T20:32:29.724Z</time>
      </trkpt>
      <trkpt lat="48.771189" lon="2.147756">
        <ele>109.464229</ele>
        <time>2024-09-08T20:32:33.065Z</time>
      </trkpt>
      <trkpt lat="48.771280" lon="2.147759">
        <ele>109.131272</ele>
        <time>2024-09-08T20:32:35.334Z</time>
      </trkpt>
      <trkpt lat="48.771503" lon="2.147838">
        <ele>108.293598</ele>
        <time>2024-09-08T20:32:41.084Z</time>
      </trkpt>
      <trkpt lat="48.771545" lon="2.147828">
        <ele>108.138082</ele>
        <time>2024-09-08T20:32:42.155Z</time>
      </trkpt>
      <trkpt lat="48.771606" lon="2.147645">
        <ele>107.643677</ele>
        <time>2024-09-08T20:32:45.514Z</time>
      </trkpt>
      <trkpt lat="48.771639" lon="2.147594">
        <ele>107.471371</ele>
        <time>2024-09-08T20:32:46.716Z</time>
      </trkpt>
      <trkpt lat="48.771442" lon="2.147465">
        <ele>106.686498</ele>
        <time>2024-09-08T20:32:49.688Z</time>
      </trkpt>
      <trkpt lat="48.771223" lon="2.147331">
        <ele>105.822709</ele>
        <time>2024-09-08T20:32:52.974Z</time>
      </trkpt>
      <trkpt lat="48.771190" lon="2.147319">
        <ele>105.698577</ele>
        <time>2024-09-08T20:32:53.446Z</time>
      </trkpt>
      <trkpt lat="48.771171" lon="2.147314">
        <ele>105.628037</ele>
        <time>2024-09-08T20:32:53.709Z</time>
      </trkpt>
      <trkpt lat="48.771121" lon="2.147331">
        <ele>105.440601</ele>
        <time>2024-09-08T20:32:54.425Z</time>
      </trkpt>
      <trkpt lat="48.771021" lon="2.147324">
        <ele>105.074412</ele>
        <time>2024-09-08T20:32:55.826Z</time>
      </trkpt>
      <trkpt lat="48.771031" lon="2.147232">
        <ele>104.849614</ele>
        <time>2024-09-08T20:32:56.740Z</time>
      </trkpt>
      <trkpt lat="48.770935" lon="2.147081">
        <ele>104.343801</ele>
        <time>2024-09-08T20:32:58.700Z</time>
      </trkpt>
      <trkpt lat="48.770831" lon="2.146899">
        <ele>103.763062</ele>
        <time>2024-09-08T20:33:00.926Z</time>
      </trkpt>
      <trkpt lat="48.770731" lon="2.146726">
        <ele>103.252394</ele>
        <time>2024-09-08T20:33:03.105Z</time>
      </trkpt>
      <trkpt lat="48.770590" lon="2.146477">
        <ele>102.801940</ele>
        <time>2024-09-08T20:33:06.129Z</time>
      </trkpt>
      <trkpt lat="48.770577" lon="2.146453">
        <ele>102.759314</ele>
        <time>2024-09-08T20:33:06.438Z</time>
      </trkpt>
      <trkpt lat="48.770227" lon="2.145808">
        <ele>101.612897</ele>
        <time>2024-09-08T20:33:14.417Z</time>
      </trkpt>
      <trkpt lat="48.770139" lon="2.145637">
        <ele>101.315202</ele>
        <time>2024-09-08T20:33:16.560Z</time>
      </trkpt>
      <trkpt lat="48.770031" lon="2.145433">
        <ele>100.956157</ele>
        <time>2024-09-08T20:33:19.268Z</time>
      </trkpt>
      <trkpt lat="48.770006" lon="2.145395">
        <ele>100.882482</ele>
        <time>2024-09-08T20:33:19.816Z</time>
      </trkpt>
      <trkpt lat="48.769713" lon="2.145018">
        <ele>100.082658</ele>
        <time>2024-09-08T20:33:26.123Z</time>
      </trkpt>
      <trkpt lat="48.769755" lon="2.144971">
        <ele>99.974006</ele>
        <time>2024-09-08T20:33:27.716Z</time>
      </trkpt>
      <trkpt lat="48.769963" lon="2.144329">
        <ele>99.712253</ele>
        <time>2024-09-08T20:33:42.163Z</time>
      </trkpt>
      <trkpt lat="48.771214" lon="2.141183">
        <ele>102.594460</ele>
        <time>2024-09-08T20:35:09.643Z</time>
      </trkpt>
      <trkpt lat="48.771234" lon="2.141029">
        <ele>102.833209</ele>
        <time>2024-09-08T20:35:14.101Z</time>
      </trkpt>
      <trkpt lat="48.771183" lon="2.141064">
        <ele>102.962392</ele>
        <time>2024-09-08T20:35:16.629Z</time>
      </trkpt>
      <trkpt lat="48.771139" lon="2.141086">
        <ele>103.069312</ele>
        <time>2024-09-08T20:35:18.164Z</time>
      </trkpt>
      <trkpt lat="48.770956" lon="2.141175">
        <ele>103.512826</ele>
        <time>2024-09-08T20:35:25.082Z</time>
      </trkpt>
      <trkpt lat="48.770876" lon="2.141168">
        <ele>103.697765</ele>
        <time>2024-09-08T20:35:27.926Z</time>
      </trkpt>
      <trkpt lat="48.770781" lon="2.141099">
        <ele>103.940843</ele>
        <time>2024-09-08T20:35:31.897Z</time>
      </trkpt>
      <trkpt lat="48.770164" lon="2.140301">
        <ele>106.960426</ele>
        <time>2024-09-08T20:36:07.289Z</time>
      </trkpt>
      <trkpt lat="48.770077" lon="2.140145">
        <ele>107.584414</ele>
        <time>2024-09-08T20:36:13.730Z</time>
      </trkpt>
      <trkpt lat="48.769928" lon="2.139877">
        <ele>108.655015</ele>
        <time>2024-09-08T20:36:24.751Z</time>
      </trkpt>
      <trkpt lat="48.769577" lon="2.139249">
        <ele>111.169282</ele>
        <time>2024-09-08T20:36:51.329Z</time>
      </trkpt>
      <trkpt lat="48.769587" lon="2.139011">
        <ele>111.897491</ele>
        <time>2024-09-08T20:36:57.503Z</time>
      </trkpt>
      <trkpt lat="48.769535" lon="2.138715">
        <ele>112.832884</ele>
        <time>2024-09-08T20:37:06.322Z</time>
      </trkpt>
      <trkpt lat="48.769538" lon="2.138632">
        <ele>113.036668</ele>
        <time>2024-09-08T20:37:08.527Z</time>
      </trkpt>
      <trkpt lat="48.769760" lon="2.137917">
        <ele>113.973636</ele>
        <time>2024-09-08T20:37:26.942Z</time>
      </trkpt>
      <trkpt lat="48.769826" lon="2.137626">
        <ele>114.338465</ele>
        <time>2024-09-08T20:37:33.837Z</time>
      </trkpt>
      <trkpt lat="48.769999" lon="2.137281">
        <ele>114.852372</ele>
        <time>2024-09-08T20:37:42.286Z</time>
      </trkpt>
      <trkpt lat="48.770170" lon="2.137215">
        <ele>115.169741</ele>
        <time>2024-09-08T20:37:46.713Z</time>
      </trkpt>
      <trkpt lat="48.770383" lon="2.137220">
        <ele>115.552905</ele>
        <time>2024-09-08T20:37:52.227Z</time>
      </trkpt>
      <trkpt lat="48.770496" lon="2.137002">
        <ele>115.881687</ele>
        <time>2024-09-08T20:37:55.896Z</time>
      </trkpt>
      <trkpt lat="48.770578" lon="2.136744">
        <ele>116.221242</ele>
        <time>2024-09-08T20:37:59.688Z</time>
      </trkpt>
      <trkpt lat="48.770719" lon="2.136091">
        <ele>117.624412</ele>
        <time>2024-09-08T20:38:10.398Z</time>
      </trkpt>
      <trkpt lat="48.770747" lon="2.135446">
        <ele>118.957471</ele>
        <time>2024-09-08T20:38:23.378Z</time>
      </trkpt>
      <trkpt lat="48.770780" lon="2.135118">
        <ele>119.641738</ele>
        <time>2024-09-08T20:38:31.876Z</time>
      </trkpt>
      <trkpt lat="48.770871" lon="2.134641">
        <ele>120.665831</ele>
        <time>2024-09-08T20:38:46.500Z</time>
      </trkpt>
      <trkpt lat="48.769921" lon="2.133485">
        <ele>127.158927</ele>
        <time>2024-09-08T20:40:03.581Z</time>
      </trkpt>
      <trkpt lat="48.769683" lon="2.133206">
        <ele>129.067987</ele>
        <time>2024-09-08T20:40:24.142Z</time>
      </trkpt>
      <trkpt lat="48.767993" lon="2.131220">
        <ele>141.508458</ele>
        <time>2024-09-08T20:42:38.460Z</time>
      </trkpt>
      <trkpt lat="48.767906" lon="2.131088">
        <ele>142.195230</ele>
        <time>2024-09-08T20:42:44.608Z</time>
      </trkpt>
      <trkpt lat="48.767938" lon="2.130823">
        <ele>143.186393</ele>
        <time>2024-09-08T20:42:51.964Z</time>
      </trkpt>
      <trkpt lat="48.768041" lon="2.130458">
        <ele>143.994301</ele>
        <time>2024-09-08T20:43:01.993Z</time>
      </trkpt>
      <trkpt lat="48.767971" lon="2.130432">
        <ele>144.198010</ele>
        <time>2024-09-08T20:43:05.590Z</time>
      </trkpt>
      <trkpt lat="48.767967" lon="2.130109">
        <ele>144.799890</ele>
        <time>2024-09-08T20:43:12.865Z</time>
      </trkpt>
      <trkpt lat="48.767923" lon="2.129733">
        <ele>145.511362</ele>
        <time>2024-09-08T20:43:21.514Z</time>
      </trkpt>
      <trkpt lat="48.767881" lon="2.129745">
        <ele>145.632168</ele>
        <time>2024-09-08T20:43:22.843Z</time>
      </trkpt>
      <trkpt lat="48.767816" lon="2.129760">
        <ele>145.818014</ele>
        <time>2024-09-08T20:43:24.893Z</time>
      </trkpt>
      <trkpt lat="48.767707" lon="2.129682">
        <ele>146.158671</ele>
        <time>2024-09-08T20:43:28.905Z</time>
      </trkpt>
      <trkpt lat="48.767398" lon="2.129618">
        <ele>147.040209</ele>
        <time>2024-09-08T20:43:38.467Z</time>
      </trkpt>
      <trkpt lat="48.767189" lon="2.129492">
        <ele>147.675911</ele>
        <time>2024-09-08T20:43:45.143Z</time>
      </trkpt>
      <trkpt lat="48.765285" lon="2.128173">
        <ele>151.957825</ele>
        <time>2024-09-08T20:44:46.190Z</time>
      </trkpt>
      <trkpt lat="48.764983" lon="2.127953">
        <ele>152.318855</ele>
        <time>2024-09-08T20:44:55.628Z</time>
      </trkpt>
      <trkpt lat="48.761041" lon="2.125067">
        <ele>156.330066</ele>
        <time>2024-09-08T20:46:40.580Z</time>
      </trkpt>
      <trkpt lat="48.760964" lon="2.125014">
        <ele>156.369295</ele>
        <time>2024-09-08T20:46:42.228Z</time>
      </trkpt>
      <trkpt lat="48.760913" lon="2.125017">
        <ele>156.392975</ele>
        <time>2024-09-08T20:46:43.166Z</time>
      </trkpt>
      <trkpt lat="48.760815" lon="2.125040">
        <ele>156.438983</ele>
        <time>2024-09-08T20:46:45.026Z</time>
      </trkpt>
      <trkpt lat="48.760767" lon="2.125107">
        <ele>156.469246</ele>
        <time>2024-09-08T20:46:46.333Z</time>
      </trkpt>
      <trkpt lat="48.760739" lon="2.125072">
        <ele>156.486078</ele>
        <time>2024-09-08T20:46:47.037Z</time>
      </trkpt>
      <trkpt lat="48.760697" lon="2.125018">
        <ele>156.511622</ele>
        <time>2024-09-08T20:46:48.095Z</time>
      </trkpt>
      <trkpt lat="48.760678" lon="2.124995">
        <ele>156.522900</ele>
        <time>2024-09-08T20:46:48.548Z</time>
      </trkpt>
      <trkpt lat="48.760653" lon="2.124952">
        <ele>156.540435</ele>
        <time>2024-09-08T20:46:49.221Z</time>
      </trkpt>
      <trkpt lat="48.760624" lon="2.124774">
        <ele>156.596512</ele>
        <time>2024-09-08T20:46:51.374Z</time>
      </trkpt>
      <trkpt lat="48.759875" lon="2.124218">
        <ele>155.696509</ele>
        <time>2024-09-08T20:47:05.896Z</time>
      </trkpt>
      <trkpt lat="48.759005" lon="2.123584">
        <ele>154.508936</ele>
        <time>2024-09-08T20:47:21.232Z</time>
      </trkpt>
      <trkpt lat="48.758830" lon="2.123353">
        <ele>154.120744</ele>
        <time>2024-09-08T20:47:24.824Z</time>
      </trkpt>
      <trkpt lat="48.757434" lon="2.122328">
        <ele>151.203905</ele>
        <time>2024-09-08T20:47:48.843Z</time>
      </trkpt>
      <trkpt lat="48.755715" lon="2.121095">
        <ele>148.242741</ele>
        <time>2024-09-08T20:48:19.333Z</time>
      </trkpt>
      <trkpt lat="48.755483" lon="2.120955">
        <ele>148.121255</ele>
        <time>2024-09-08T20:48:23.512Z</time>
      </trkpt>
      <trkpt lat="48.755127" lon="2.120796">
        <ele>147.940688</ele>
        <time>2024-09-08T20:48:29.842Z</time>
      </trkpt>
      <trkpt lat="48.754569" lon="2.120659">
        <ele>147.665656</ele>
        <time>2024-09-08T20:48:39.738Z</time>
      </trkpt>
      <trkpt lat="48.750931" lon="2.120140">
        <ele>148.997385</ele>
        <time>2024-09-08T20:49:57.368Z</time>
      </trkpt>
      <trkpt lat="48.750869" lon="2.120129">
        <ele>149.042760</ele>
        <time>2024-09-08T20:49:58.867Z</time>
      </trkpt>
      <trkpt lat="48.750846" lon="2.120125">
        <ele>149.059588</ele>
        <time>2024-09-08T20:49:59.401Z</time>
      </trkpt>
      <trkpt lat="48.750544" lon="2.120086">
        <ele>149.279903</ele>
        <time>2024-09-08T20:50:07.040Z</time>
      </trkpt>
      <trkpt lat="48.750420" lon="2.120154">
        <ele>149.375748</ele>
        <time>2024-09-08T20:50:10.339Z</time>
      </trkpt>
      <trkpt lat="48.750395" lon="2.120132">
        <ele>149.403270</ele>
        <time>2024-09-08T20:50:11.153Z</time>
      </trkpt>
      <trkpt lat="48.750350" lon="2.119985">
        <ele>149.583330</ele>
        <time>2024-09-08T20:50:14.080Z</time>
      </trkpt>
      <trkpt lat="48.750324" lon="2.119927">
        <ele>149.661250</ele>
        <time>2024-09-08T20:50:15.316Z</time>
      </trkpt>
      <trkpt lat="48.750230" lon="2.119849">
        <ele>149.841796</ele>
        <time>2024-09-08T20:50:18.170Z</time>
      </trkpt>
      <trkpt lat="48.750140" lon="2.119794">
        <ele>150.005294</ele>
        <time>2024-09-08T20:50:20.840Z</time>
      </trkpt>
      <trkpt lat="48.749992" lon="2.119765">
        <ele>150.256746</ele>
        <time>2024-09-08T20:50:25.098Z</time>
      </trkpt>
      <trkpt lat="48.749908" lon="2.119751">
        <ele>150.399139</ele>
        <time>2024-09-08T20:50:27.372Z</time>
      </trkpt>
      <trkpt lat="48.749828" lon="2.119811">
        <ele>150.549520</ele>
        <time>2024-09-08T20:50:29.796Z</time>
      </trkpt>
      <trkpt lat="48.749244" lon="2.119667">
        <ele>151.546481</ele>
        <time>2024-09-08T20:50:46.656Z</time>
      </trkpt>
      <trkpt lat="48.748929" lon="2.119518">
        <ele>152.102473</ele>
        <time>2024-09-08T20:50:56.081Z</time>
      </trkpt>
      <trkpt lat="48.748649" lon="2.119305">
        <ele>152.587941</ele>
        <time>2024-09-08T20:51:04.925Z</time>
      </trkpt>
      <trkpt lat="48.748150" lon="2.118742">
        <ele>153.422267</ele>
        <time>2024-09-08T20:51:21.997Z</time>
      </trkpt>
      <trkpt lat="48.747953" lon="2.118403">
        <ele>153.821962</ele>
        <time>2024-09-08T20:51:29.715Z</time>
      </trkpt>
      <trkpt lat="48.747698" lon="2.117860">
        <ele>154.411636</ele>
        <time>2024-09-08T20:51:40.719Z</time>
      </trkpt>
      <trkpt lat="48.747687" lon="2.117796">
        <ele>154.470138</ele>
        <time>2024-09-08T20:51:41.746Z</time>
      </trkpt>
      <trkpt lat="48.747711" lon="2.117653">
        <ele>154.600662</ele>
        <time>2024-09-08T20:51:44.034Z</time>
      </trkpt>
      <trkpt lat="48.747682" lon="2.117525">
        <ele>154.720381</ele>
        <time>2024-09-08T20:51:46.143Z</time>
      </trkpt>
      <trkpt lat="48.747617" lon="2.117442">
        <ele>154.834370</ele>
        <time>2024-09-08T20:51:48.066Z</time>
      </trkpt>
      <trkpt lat="48.747527" lon="2.117407">
        <ele>154.903949</ele>
        <time>2024-09-08T20:51:50.181Z</time>
      </trkpt>
      <trkpt lat="48.747469" lon="2.117284">
        <ele>154.978128</ele>
        <time>2024-09-08T20:51:52.500Z</time>
      </trkpt>
      <trkpt lat="48.747336" lon="2.117019">
        <ele>155.141496</ele>
        <time>2024-09-08T20:51:57.558Z</time>
      </trkpt>
      <trkpt lat="48.747226" lon="2.116921">
        <ele>155.236406</ele>
        <time>2024-09-08T20:52:00.439Z</time>
      </trkpt>
      <trkpt lat="48.747014" lon="2.116364">
        <ele>155.551895</ele>
        <time>2024-09-08T20:52:10.090Z</time>
      </trkpt>
      <trkpt lat="48.746886" lon="2.115926">
        <ele>155.786914</ele>
        <time>2024-09-08T20:52:17.280Z</time>
      </trkpt>
      <trkpt lat="48.746804" lon="2.115705">
        <ele>155.911311</ele>
        <time>2024-09-08T20:52:21.046Z</time>
      </trkpt>
      <trkpt lat="48.746762" lon="2.115594">
        <ele>155.974091</ele>
        <time>2024-09-08T20:52:22.873Z</time>
      </trkpt>
      <trkpt lat="48.746384" lon="2.114782">
        <ele>156.464629</ele>
        <time>2024-09-08T20:52:37.721Z</time>
      </trkpt>
      <trkpt lat="48.746384" lon="2.114782">
        <ele>156.464629</ele>
        <time>2024-09-08T20:52:37.733Z</time>
      </trkpt>
      <trkpt lat="48.746174" lon="2.114447">
        <ele>156.693692</ele>
        <time>2024-09-08T20:52:50.768Z</time>
      </trkpt>
      <trkpt lat="48.746142" lon="2.114383">
        <ele>156.733495</ele>
        <time>2024-09-08T20:52:53.034Z</time>
      </trkpt>
      <trkpt lat="48.746136" lon="2.114249">
        <ele>156.800055</ele>
        <time>2024-09-08T20:52:56.821Z</time>
      </trkpt>
      <trkpt lat="48.746150" lon="2.114180">
        <ele>156.835831</ele>
        <time>2024-09-08T20:52:58.858Z</time>
      </trkpt>
      <trkpt lat="48.746140" lon="2.113938">
        <ele>156.955994</ele>
        <time>2024-09-08T20:53:05.696Z</time>
      </trkpt>
      <trkpt lat="48.746087" lon="2.113769">
        <ele>157.048735</ele>
        <time>2024-09-08T20:53:10.974Z</time>
      </trkpt>
      <trkpt lat="48.746060" lon="2.113657">
        <ele>157.107832</ele>
        <time>2024-09-08T20:53:14.337Z</time>
      </trkpt>
      <trkpt lat="48.746064" lon="2.113124">
        <ele>157.371988</ele>
        <time>2024-09-08T20:53:29.369Z</time>
      </trkpt>
      <trkpt lat="48.746044" lon="2.113102">
        <ele>157.390556</ele>
        <time>2024-09-08T20:53:30.426Z</time>
      </trkpt>
      <trkpt lat="48.745907" lon="2.113107">
        <ele>157.493548</ele>
        <time>2024-09-08T20:53:36.287Z</time>
      </trkpt>
      <trkpt lat="48.745955" lon="2.112278">
        <ele>157.796508</ele>
        <time>2024-09-08T20:53:59.755Z</time>
      </trkpt>
      <trkpt lat="48.745955" lon="2.112278">
        <ele>157.796508</ele>
        <time>2024-09-08T20:53:59.803Z</time>
      </trkpt>
      <trkpt lat="48.745962" lon="2.112140">
        <ele>157.845379</ele>
        <time>2024-09-08T20:54:01.619Z</time>
      </trkpt>
      <trkpt lat="48.746004" lon="2.111914">
        <ele>157.928286</ele>
        <time>2024-09-08T20:54:04.806Z</time>
      </trkpt>
      <trkpt lat="48.746026" lon="2.111818">
        <ele>157.964171</ele>
        <time>2024-09-08T20:54:06.145Z</time>
      </trkpt>
      <trkpt lat="48.746016" lon="2.111782">
        <ele>157.977964</ele>
        <time>2024-09-08T20:54:06.693Z</time>
      </trkpt>
      <trkpt lat="48.746069" lon="2.111648">
        <ele>158.033137</ele>
        <time>2024-09-08T20:54:09.336Z</time>
      </trkpt>
      <trkpt lat="48.746065" lon="2.111569">
        <ele>158.061113</ele>
        <time>2024-09-08T20:54:10.395Z</time>
      </trkpt>
      <trkpt lat="48.746113" lon="2.111541">
        <ele>158.088652</ele>
        <time>2024-09-08T20:54:11.560Z</time>
      </trkpt>
      <trkpt lat="48.746150" lon="2.111050">
        <ele>158.263147</ele>
        <time>2024-09-08T20:54:19.458Z</time>
      </trkpt>
      <trkpt lat="48.746118" lon="2.109084">
        <ele>158.908379</ele>
        <time>2024-09-08T20:54:50.287Z</time>
      </trkpt>
      <trkpt lat="48.746187" lon="2.108731">
        <ele>159.024760</ele>
        <time>2024-09-08T20:54:56.117Z</time>
      </trkpt>
      <trkpt lat="48.746178" lon="2.108647">
        <ele>159.051660</ele>
        <time>2024-09-08T20:54:57.460Z</time>
      </trkpt>
      <trkpt lat="48.746111" lon="2.108518">
        <ele>159.103566</ele>
        <time>2024-09-08T20:55:00.079Z</time>
      </trkpt>
      <trkpt lat="48.746064" lon="2.107947">
        <ele>159.285457</ele>
        <time>2024-09-08T20:55:09.064Z</time>
      </trkpt>
      <trkpt lat="48.745948" lon="2.107593">
        <ele>159.389587</ele>
        <time>2024-09-08T20:55:15.147Z</time>
      </trkpt>
      <trkpt lat="48.745782" lon="2.107297">
        <ele>159.469643</ele>
        <time>2024-09-08T20:55:21.096Z</time>
      </trkpt>
      <trkpt lat="48.745130" lon="2.106414">
        <ele>159.742760</ele>
        <time>2024-09-08T20:55:41.115Z</time>
      </trkpt>
      <trkpt lat="48.745072" lon="2.106413">
        <ele>159.760883</ele>
        <time>2024-09-08T20:55:42.424Z</time>
      </trkpt>
      <trkpt lat="48.745488" lon="2.101263">
        <ele>160.529537</ele>
        <time>2024-09-08T20:56:51.992Z</time>
      </trkpt>
      <trkpt lat="48.745559" lon="2.100947">
        <ele>160.567371</ele>
        <time>2024-09-08T20:56:56.639Z</time>
      </trkpt>
      <trkpt lat="48.746231" lon="2.098947">
        <ele>160.437887</ele>
        <time>2024-09-08T20:57:24.918Z</time>
      </trkpt>
      <trkpt lat="48.746255" lon="2.098826">
        <ele>160.421417</ele>
        <time>2024-09-08T20:57:26.440Z</time>
      </trkpt>
      <trkpt lat="48.746184" lon="2.098794">
        <ele>160.406776</ele>
        <time>2024-09-08T20:57:27.792Z</time>
      </trkpt>
      <trkpt lat="48.745903" lon="2.098540">
        <ele>160.342114</ele>
        <time>2024-09-08T20:57:33.727Z</time>
      </trkpt>
      <trkpt lat="48.745619" lon="2.098354">
        <ele>160.264471</ele>
        <time>2024-09-08T20:57:39.284Z</time>
      </trkpt>
      <trkpt lat="48.745252" lon="2.098221">
        <ele>160.006932</ele>
        <time>2024-09-08T20:57:45.920Z</time>
      </trkpt>
      <trkpt lat="48.742728" lon="2.097869">
        <ele>158.205717</ele>
        <time>2024-09-08T20:58:29.835Z</time>
      </trkpt>
      <trkpt lat="48.742455" lon="2.097901">
        <ele>158.001827</ele>
        <time>2024-09-08T20:58:34.596Z</time>
      </trkpt>
      <trkpt lat="48.742019" lon="2.098052">
        <ele>157.692211</ele>
        <time>2024-09-08T20:58:42.372Z</time>
      </trkpt>
      <trkpt lat="48.741731" lon="2.098035">
        <ele>157.574283</ele>
        <time>2024-09-08T20:58:47.409Z</time>
      </trkpt>
      <trkpt lat="48.741394" lon="2.097959">
        <ele>157.434879</ele>
        <time>2024-09-08T20:58:53.551Z</time>
      </trkpt>
      <trkpt lat="48.740820" lon="2.097768">
        <ele>157.194431</ele>
        <time>2024-09-08T20:59:04.195Z</time>
      </trkpt>
      <trkpt lat="48.740668" lon="2.097415">
        <ele>157.080675</ele>
        <time>2024-09-08T20:59:09.579Z</time>
      </trkpt>
      <trkpt lat="48.740604" lon="2.097194">
        <ele>157.015546</ele>
        <time>2024-09-08T20:59:12.731Z</time>
      </trkpt>
      <trkpt lat="48.740638" lon="2.097100">
        <ele>156.986618</ele>
        <time>2024-09-08T20:59:14.056Z</time>
      </trkpt>
      <trkpt lat="48.740666" lon="2.096891">
        <ele>156.967249</ele>
        <time>2024-09-08T20:59:16.706Z</time>
      </trkpt>
      <trkpt lat="48.740627" lon="2.096692">
        <ele>156.949596</ele>
        <time>2024-09-08T20:59:19.360Z</time>
      </trkpt>
      <trkpt lat="48.740568" lon="2.096544">
        <ele>156.934891</ele>
        <time>2024-09-08T20:59:21.526Z</time>
      </trkpt>
      <trkpt lat="48.740547" lon="2.096489">
        <ele>156.929487</ele>
        <time>2024-09-08T20:59:22.332Z</time>
      </trkpt>
      <trkpt lat="48.740445" lon="2.096393">
        <ele>156.914008</ele>
        <time>2024-09-08T20:59:24.623Z</time>
      </trkpt>
      <trkpt lat="48.740242" lon="2.096364">
        <ele>156.887718</ele>
        <time>2024-09-08T20:59:28.554Z</time>
      </trkpt>
      <trkpt lat="48.740124" lon="2.096452">
        <ele>156.870763</ele>
        <time>2024-09-08T20:59:31.042Z</time>
      </trkpt>
      <trkpt lat="48.739989" lon="2.096373">
        <ele>156.852105</ele>
        <time>2024-09-08T20:59:33.859Z</time>
      </trkpt>
      <trkpt lat="48.739702" lon="2.095912">
        <ele>156.798198</ele>
        <time>2024-09-08T20:59:41.996Z</time>
      </trkpt>
      <trkpt lat="48.739505" lon="2.095604">
        <ele>156.761714</ele>
        <time>2024-09-08T20:59:47.248Z</time>
      </trkpt>
      <trkpt lat="48.739142" lon="2.094965">
        <ele>156.267131</ele>
        <time>2024-09-08T20:59:57.139Z</time>
      </trkpt>
      <trkpt lat="48.739006" lon="2.094787">
        <ele>156.088245</ele>
        <time>2024-09-08T21:00:00.294Z</time>
      </trkpt>
      <trkpt lat="48.738829" lon="2.094614">
        <ele>155.878562</ele>
        <time>2024-09-08T21:00:03.890Z</time>
      </trkpt>
      <trkpt lat="48.738667" lon="2.094473">
        <ele>155.692571</ele>
        <time>2024-09-08T21:00:07.093Z</time>
      </trkpt>
      <trkpt lat="48.738316" lon="2.094161">
        <ele>155.287448</ele>
        <time>2024-09-08T21:00:13.806Z</time>
      </trkpt>
      <trkpt lat="48.738156" lon="2.094019">
        <ele>155.102850</ele>
        <time>2024-09-08T21:00:16.818Z</time>
      </trkpt>
      <trkpt lat="48.738135" lon="2.093999">
        <ele>155.078158</ele>
        <time>2024-09-08T21:00:17.212Z</time>
      </trkpt>
      <trkpt lat="48.738112" lon="2.093976">
        <ele>155.050724</ele>
        <time>2024-09-08T21:00:17.668Z</time>
      </trkpt>
      <trkpt lat="48.738097" lon="2.093963">
        <ele>155.033521</ele>
        <time>2024-09-08T21:00:17.946Z</time>
      </trkpt>
      <trkpt lat="48.738005" lon="2.093883">
        <ele>154.907834</ele>
        <time>2024-09-08T21:00:19.591Z</time>
      </trkpt>
      <trkpt lat="48.737851" lon="2.093752">
        <ele>154.628271</ele>
        <time>2024-09-08T21:00:22.343Z</time>
      </trkpt>
      <trkpt lat="48.737709" lon="2.093596">
        <ele>154.350648</ele>
        <time>2024-09-08T21:00:25.024Z</time>
      </trkpt>
      <trkpt lat="48.737328" lon="2.092888">
        <ele>153.396520</ele>
        <time>2024-09-08T21:00:34.290Z</time>
      </trkpt>
      <trkpt lat="48.737074" lon="2.092501">
        <ele>152.826431</ele>
        <time>2024-09-08T21:00:40.313Z</time>
      </trkpt>
      <trkpt lat="48.736798" lon="2.092064">
        <ele>152.194649</ele>
        <time>2024-09-08T21:00:47.042Z</time>
      </trkpt>
      <trkpt lat="48.736488" lon="2.091575">
        <ele>151.281524</ele>
        <time>2024-09-08T21:00:54.345Z</time>
      </trkpt>
      <trkpt lat="48.736437" lon="2.091458">
        <ele>151.087299</ele>
        <time>2024-09-08T21:00:55.819Z</time>
      </trkpt>
      <trkpt lat="48.736373" lon="2.091328">
        <ele>150.862635</ele>
        <time>2024-09-08T21:00:57.455Z</time>
      </trkpt>
      <trkpt lat="48.736393" lon="2.091146">
        <ele>150.607108</ele>
        <time>2024-09-08T21:00:59.342Z</time>
      </trkpt>
      <trkpt lat="48.736439" lon="2.090495">
        <ele>149.700379</ele>
        <time>2024-09-08T21:01:05.857Z</time>
      </trkpt>
      <trkpt lat="48.736375" lon="2.089554">
        <ele>148.390278</ele>
        <time>2024-09-08T21:01:15.174Z</time>
      </trkpt>
      <trkpt lat="48.736449" lon="2.089341">
        <ele>147.757025</ele>
        <time>2024-09-08T21:01:17.538Z</time>
      </trkpt>
      <trkpt lat="48.736559" lon="2.089019">
        <ele>146.718111</ele>
        <time>2024-09-08T21:01:21.149Z</time>
      </trkpt>
      <trkpt lat="48.736724" lon="2.088595">
        <ele>145.307691</ele>
        <time>2024-09-08T21:01:25.993Z</time>
      </trkpt>
      <trkpt lat="48.736941" lon="2.088214">
        <ele>143.865473</ele>
        <time>2024-09-08T21:01:30.726Z</time>
      </trkpt>
      <trkpt lat="48.737381" lon="2.087514">
        <ele>141.095112</ele>
        <time>2024-09-08T21:01:39.117Z</time>
      </trkpt>
      <trkpt lat="48.737603" lon="2.087216">
        <ele>139.195510</ele>
        <time>2024-09-08T21:01:42.843Z</time>
      </trkpt>
      <trkpt lat="48.737814" lon="2.087007">
        <ele>137.166893</ele>
        <time>2024-09-08T21:01:45.932Z</time>
      </trkpt>
      <trkpt lat="48.737888" lon="2.086696">
        <ele>135.411820</ele>
        <time>2024-09-08T21:01:50.612Z</time>
      </trkpt>
      <trkpt lat="48.738022" lon="2.086412">
        <ele>133.558143</ele>
        <time>2024-09-08T21:01:55.681Z</time>
      </trkpt>
      <trkpt lat="48.738369" lon="2.086012">
        <ele>130.049646</ele>
        <time>2024-09-08T21:02:05.404Z</time>
      </trkpt>
      <trkpt lat="48.738580" lon="2.085707">
        <ele>127.703227</ele>
        <time>2024-09-08T21:02:11.995Z</time>
      </trkpt>
      <trkpt lat="48.738635" lon="2.085052">
        <ele>124.545471</ele>
        <time>2024-09-08T21:02:21.593Z</time>
      </trkpt>
      <trkpt lat="48.738758" lon="2.084904">
        <ele>123.519007</ele>
        <time>2024-09-08T21:02:25.000Z</time>
      </trkpt>
      <trkpt lat="48.738802" lon="2.084851">
        <ele>123.151664</ele>
        <time>2024-09-08T21:02:26.246Z</time>
      </trkpt>
      <trkpt lat="48.739137" lon="2.084686">
        <ele>120.849103</ele>
        <time>2024-09-08T21:02:33.887Z</time>
      </trkpt>
      <trkpt lat="48.739482" lon="2.083898">
        <ele>116.771469</ele>
        <time>2024-09-08T21:02:48.051Z</time>
      </trkpt>
      <trkpt lat="48.739576" lon="2.083581">
        <ele>115.273055</ele>
        <time>2024-09-08T21:02:53.756Z</time>
      </trkpt>
      <trkpt lat="48.739588" lon="2.083542">
        <ele>115.087523</ele>
        <time>2024-09-08T21:02:54.483Z</time>
      </trkpt>
      <trkpt lat="48.739438" lon="2.082712">
        <ele>113.957594</ele>
        <time>2024-09-08T21:03:11.590Z</time>
      </trkpt>
      <trkpt lat="48.739414" lon="2.082567">
        <ele>113.884240</ele>
        <time>2024-09-08T21:03:14.344Z</time>
      </trkpt>
      <trkpt lat="48.739375" lon="2.082329">
        <ele>113.763910</ele>
        <time>2024-09-08T21:03:18.975Z</time>
      </trkpt>
      <trkpt lat="48.739213" lon="2.081802">
        <ele>113.478615</ele>
        <time>2024-09-08T21:03:30.025Z</time>
      </trkpt>
      <trkpt lat="48.738905" lon="2.081529">
        <ele>113.213178</ele>
        <time>2024-09-08T21:03:40.762Z</time>
      </trkpt>
      <trkpt lat="48.738881" lon="2.081465">
        <ele>113.177053</ele>
        <time>2024-09-08T21:03:42.370Z</time>
      </trkpt>
      <trkpt lat="48.738937" lon="2.080971">
        <ele>113.012632</ele>
        <time>2024-09-08T21:03:54.468Z</time>
      </trkpt>
      <trkpt lat="48.739293" lon="2.081305">
        <ele>113.993660</ele>
        <time>2024-09-08T21:04:08.024Z</time>
      </trkpt>
      <trkpt lat="48.739498" lon="2.081386">
        <ele>114.490099</ele>
        <time>2024-09-08T21:04:15.935Z</time>
      </trkpt>
      <trkpt lat="48.739588" lon="2.081378">
        <ele>114.701368</ele>
        <time>2024-09-08T21:04:19.372Z</time>
      </trkpt>
      <trkpt lat="48.739877" lon="2.081043">
        <ele>115.553829</ele>
        <time>2024-09-08T21:04:33.641Z</time>
      </trkpt>
      <trkpt lat="48.740061" lon="2.080075">
        <ele>117.110697</ele>
        <time>2024-09-08T21:04:56.638Z</time>
      </trkpt>
      <trkpt lat="48.740468" lon="2.078805">
        <ele>117.782724</ele>
        <time>2024-09-08T21:05:21.828Z</time>
      </trkpt>
      <trkpt lat="48.740627" lon="2.078307">
        <ele>118.030755</ele>
        <time>2024-09-08T21:05:30.567Z</time>
      </trkpt>
      <trkpt lat="48.740672" lon="2.078282">
        <ele>118.063332</ele>
        <time>2024-09-08T21:05:31.588Z</time>
      </trkpt>
      <trkpt lat="48.740944" lon="2.078133">
        <ele>118.259922</ele>
        <time>2024-09-08T21:05:37.882Z</time>
      </trkpt>
      <trkpt lat="48.741236" lon="2.077813">
        <ele>118.200654</ele>
        <time>2024-09-08T21:05:45.091Z</time>
      </trkpt>
      <trkpt lat="48.741371" lon="2.077308">
        <ele>117.807063</ele>
        <time>2024-09-08T21:05:51.722Z</time>
      </trkpt>
      <trkpt lat="48.741534" lon="2.076847">
        <ele>117.429244</ele>
        <time>2024-09-08T21:05:57.731Z</time>
      </trkpt>
      <trkpt lat="48.741673" lon="2.076193">
        <ele>116.932937</ele>
        <time>2024-09-08T21:06:05.783Z</time>
      </trkpt>
      <trkpt lat="48.741755" lon="2.075972">
        <ele>116.749778</ele>
        <time>2024-09-08T21:06:08.976Z</time>
      </trkpt>
      <trkpt lat="48.742106" lon="2.075270">
        <ele>116.461036</ele>
        <time>2024-09-08T21:06:20.865Z</time>
      </trkpt>
      <trkpt lat="48.742365" lon="2.074598">
        <ele>116.539828</ele>
        <time>2024-09-08T21:06:32.240Z</time>
      </trkpt>
      <trkpt lat="48.742680" lon="2.073964">
        <ele>116.620184</ele>
        <time>2024-09-08T21:06:43.937Z</time>
      </trkpt>
      <trkpt lat="48.743461" lon="2.072556">
        <ele>117.565257</ele>
        <time>2024-09-08T21:07:14.123Z</time>
      </trkpt>
      <trkpt lat="48.743639" lon="2.072385">
        <ele>117.816719</ele>
        <time>2024-09-08T21:07:20.572Z</time>
      </trkpt>
      <trkpt lat="48.744045" lon="2.071906">
        <ele>118.430601</ele>
        <time>2024-09-08T21:07:35.801Z</time>
      </trkpt>
      <trkpt lat="48.744115" lon="2.071525">
        <ele>118.741851</ele>
        <time>2024-09-08T21:07:43.487Z</time>
      </trkpt>
      <trkpt lat="48.743972" lon="2.070592">
        <ele>119.757137</ele>
        <time>2024-09-08T21:08:00.935Z</time>
      </trkpt>
      <trkpt lat="48.743988" lon="2.070084">
        <ele>120.317206</ele>
        <time>2024-09-08T21:08:09.516Z</time>
      </trkpt>
      <trkpt lat="48.744030" lon="2.069901">
        <ele>120.530591</ele>
        <time>2024-09-08T21:08:12.738Z</time>
      </trkpt>
      <trkpt lat="48.744244" lon="2.069584">
        <ele>121.030178</ele>
        <time>2024-09-08T21:08:21.771Z</time>
      </trkpt>
      <trkpt lat="48.744349" lon="2.069339">
        <ele>121.351957</ele>
        <time>2024-09-08T21:08:27.965Z</time>
      </trkpt>
      <trkpt lat="48.744375" lon="2.069119">
        <ele>121.598088</ele>
        <time>2024-09-08T21:08:33.211Z</time>
      </trkpt>
      <trkpt lat="48.744378" lon="2.068711">
        <ele>122.260306</ele>
        <time>2024-09-08T21:08:42.471Z</time>
      </trkpt>
      <trkpt lat="48.744211" lon="2.067909">
        <ele>124.158871</ele>
        <time>2024-09-08T21:09:01.829Z</time>
      </trkpt>
      <trkpt lat="48.743687" lon="2.067945">
        <ele>125.954536</ele>
        <time>2024-09-08T21:09:26.290Z</time>
      </trkpt>
      <trkpt lat="48.743476" lon="2.067910">
        <ele>126.681166</ele>
        <time>2024-09-08T21:09:37.211Z</time>
      </trkpt>
      <trkpt lat="48.742962" lon="2.067512">
        <ele>129.079448</ele>
        <time>2024-09-08T21:10:08.710Z</time>
      </trkpt>
      <trkpt lat="48.742793" lon="2.067278">
        <ele>130.368406</ele>
        <time>2024-09-08T21:10:22.626Z</time>
      </trkpt>
      <trkpt lat="48.742550" lon="2.066754">
        <ele>132.747708</ele>
        <time>2024-09-08T21:10:49.451Z</time>
      </trkpt>
      <trkpt lat="48.742499" lon="2.066545">
        <ele>133.575420</ele>
        <time>2024-09-08T21:10:59.013Z</time>
      </trkpt>
      <trkpt lat="48.742454" lon="2.066174">
        <ele>134.976508</ele>
        <time>2024-09-08T21:11:13.945Z</time>
      </trkpt>
      <trkpt lat="48.742440" lon="2.065794">
        <ele>136.390111</ele>
        <time>2024-09-08T21:11:28.696Z</time>
      </trkpt>
      <trkpt lat="48.742239" lon="2.064673">
        <ele>140.394891</ele>
        <time>2024-09-08T21:12:15.055Z</time>
      </trkpt>
      <trkpt lat="48.742221" lon="2.064513">
        <ele>140.925095</ele>
        <time>2024-09-08T21:12:21.738Z</time>
      </trkpt>
      <trkpt lat="48.742290" lon="2.064419">
        <ele>141.384558</ele>
        <time>2024-09-08T21:12:27.479Z</time>
      </trkpt>
      <trkpt lat="48.742473" lon="2.064165">
        <ele>142.613437</ele>
        <time>2024-09-08T21:12:42.883Z</time>
      </trkpt>
      <trkpt lat="48.742874" lon="2.063826">
        <ele>144.887609</ele>
        <time>2024-09-08T21:13:10.896Z</time>
      </trkpt>
      <trkpt lat="48.743114" lon="2.063515">
        <ele>146.451380</ele>
        <time>2024-09-08T21:13:24.629Z</time>
      </trkpt>
      <trkpt lat="48.743294" lon="2.063082">
        <ele>146.549799</ele>
        <time>2024-09-08T21:13:36.177Z</time>
      </trkpt>
      <trkpt lat="48.743538" lon="2.062263">
        <ele>145.212997</ele>
        <time>2024-09-08T21:13:47.122Z</time>
      </trkpt>
      <trkpt lat="48.743564" lon="2.062174">
        <ele>145.068203</ele>
        <time>2024-09-08T21:13:48.107Z</time>
      </trkpt>
      <trkpt lat="48.743589" lon="2.062106">
        <ele>144.952397</ele>
        <time>2024-09-08T21:13:48.862Z</time>
      </trkpt>
      <trkpt lat="48.743650" lon="2.061991">
        <ele>144.732866</ele>
        <time>2024-09-08T21:13:50.293Z</time>
      </trkpt>
      <trkpt lat="48.743698" lon="2.061956">
        <ele>144.612727</ele>
        <time>2024-09-08T21:13:51.072Z</time>
      </trkpt>
      <trkpt lat="48.743686" lon="2.062094">
        <ele>144.405679</ele>
        <time>2024-09-08T21:13:53.425Z</time>
      </trkpt>
      <trkpt lat="48.744003" lon="2.062494">
        <ele>143.475460</ele>
        <time>2024-09-08T21:14:03.371Z</time>
      </trkpt>
      <trkpt lat="48.744161" lon="2.062794">
        <ele>142.681930</ele>
        <time>2024-09-08T21:14:09.166Z</time>
      </trkpt>
      <trkpt lat="48.744267" lon="2.063099">
        <ele>140.753938</ele>
        <time>2024-09-08T21:14:14.197Z</time>
      </trkpt>
      <trkpt lat="48.744411" lon="2.063401">
        <ele>138.669855</ele>
        <time>2024-09-08T21:14:19.541Z</time>
      </trkpt>
      <trkpt lat="48.744530" lon="2.063651">
        <ele>136.945643</ele>
        <time>2024-09-08T21:14:23.908Z</time>
      </trkpt>
      <trkpt lat="48.744666" lon="2.063880">
        <ele>135.222246</ele>
        <time>2024-09-08T21:14:28.241Z</time>
      </trkpt>
      <trkpt lat="48.745474" lon="2.064612">
        <ele>127.645807</ele>
        <time>2024-09-08T21:14:48.760Z</time>
      </trkpt>
      <trkpt lat="48.745609" lon="2.064774">
        <ele>127.390314</ele>
        <time>2024-09-08T21:14:52.658Z</time>
      </trkpt>
      <trkpt lat="48.745650" lon="2.064864">
        <ele>127.283262</ele>
        <time>2024-09-08T21:14:54.366Z</time>
      </trkpt>
      <trkpt lat="48.745803" lon="2.065044">
        <ele>126.995876</ele>
        <time>2024-09-08T21:14:58.987Z</time>
      </trkpt>
      <trkpt lat="48.745853" lon="2.065095">
        <ele>126.906447</ele>
        <time>2024-09-08T21:14:59.789Z</time>
      </trkpt>
      <trkpt lat="48.745895" lon="2.065138">
        <ele>126.831239</ele>
        <time>2024-09-08T21:15:01.028Z</time>
      </trkpt>
      <trkpt lat="48.746081" lon="2.065296">
        <ele>126.514839</ele>
        <time>2024-09-08T21:15:06.672Z</time>
      </trkpt>
      <trkpt lat="48.746035" lon="2.065409">
        <ele>126.384878</ele>
        <time>2024-09-08T21:15:08.986Z</time>
      </trkpt>
      <trkpt lat="48.745928" lon="2.065805">
        <ele>125.966069</ele>
        <time>2024-09-08T21:15:17.633Z</time>
      </trkpt>
      <trkpt lat="48.745857" lon="2.065940">
        <ele>125.797079</ele>
        <time>2024-09-08T21:15:21.455Z</time>
      </trkpt>
      <trkpt lat="48.745590" lon="2.066290">
        <ele>125.273303</ele>
        <time>2024-09-08T21:15:37.661Z</time>
      </trkpt>
      <trkpt lat="48.745438" lon="2.066538">
        <ele>125.765927</ele>
        <time>2024-09-08T21:15:50.701Z</time>
      </trkpt>
      <trkpt lat="48.745363" lon="2.066825">
        <ele>127.530910</ele>
        <time>2024-09-08T21:16:02.994Z</time>
      </trkpt>
      <trkpt lat="48.745678" lon="2.067426">
        <ele>131.920118</ele>
        <time>2024-09-08T21:16:39.062Z</time>
      </trkpt>
      <trkpt lat="48.746077" lon="2.067646">
        <ele>135.601077</ele>
        <time>2024-09-08T21:17:14.343Z</time>
      </trkpt>
      <trkpt lat="48.746259" lon="2.068184">
        <ele>139.058028</ele>
        <time>2024-09-08T21:17:49.204Z</time>
      </trkpt>
      <trkpt lat="48.746375" lon="2.068433">
        <ele>140.803828</ele>
        <time>2024-09-08T21:18:07.159Z</time>
      </trkpt>
      <trkpt lat="48.746387" lon="2.068614">
        <ele>141.864118</ele>
        <time>2024-09-08T21:18:17.736Z</time>
      </trkpt>
      <trkpt lat="48.746896" lon="2.069044">
        <ele>147.014283</ele>
        <time>2024-09-08T21:19:07.938Z</time>
      </trkpt>
      <trkpt lat="48.747552" lon="2.069601">
        <ele>153.659807</ele>
        <time>2024-09-08T21:20:03.940Z</time>
      </trkpt>
      <trkpt lat="48.747797" lon="2.069808">
        <ele>156.138827</ele>
        <time>2024-09-08T21:20:22.718Z</time>
      </trkpt>
      <trkpt lat="48.748240" lon="2.070227">
        <ele>158.039491</ele>
        <time>2024-09-08T21:20:47.641Z</time>
      </trkpt>
      <trkpt lat="48.749181" lon="2.071317">
        <ele>161.738820</ele>
        <time>2024-09-08T21:21:26.365Z</time>
      </trkpt>
      <trkpt lat="48.750177" lon="2.068834">
        <ele>163.324312</ele>
        <time>2024-09-08T21:22:07.969Z</time>
      </trkpt>
      <trkpt lat="48.750261" lon="2.068596">
        <ele>163.413827</ele>
        <time>2024-09-08T21:22:11.810Z</time>
      </trkpt>
      <trkpt lat="48.750487" lon="2.067666">
        <ele>163.729256</ele>
        <time>2024-09-08T21:22:26.257Z</time>
      </trkpt>
      <trkpt lat="48.750527" lon="2.067742">
        <ele>163.760203</ele>
        <time>2024-09-08T21:22:27.618Z</time>
      </trkpt>
      <trkpt lat="48.750672" lon="2.067876">
        <ele>163.842158</ele>
        <time>2024-09-08T21:22:31.260Z</time>
      </trkpt>
      <trkpt lat="48.750876" lon="2.067911">
        <ele>163.941251</ele>
        <time>2024-09-08T21:22:35.816Z</time>
      </trkpt>
      <trkpt lat="48.750949" lon="2.067824">
        <ele>163.986062</ele>
        <time>2024-09-08T21:22:37.856Z</time>
      </trkpt>
      <trkpt lat="48.751112" lon="2.067649">
        <ele>164.082453</ele>
        <time>2024-09-08T21:22:42.243Z</time>
      </trkpt>
      <trkpt lat="48.751212" lon="2.067644">
        <ele>164.130747</ele>
        <time>2024-09-08T21:22:44.333Z</time>
      </trkpt>
      <trkpt lat="48.751492" lon="2.067807">
        <ele>164.201467</ele>
        <time>2024-09-08T21:22:50.796Z</time>
      </trkpt>
      <trkpt lat="48.753764" lon="2.069593">
        <ele>164.014913</ele>
        <time>2024-09-08T21:23:38.851Z</time>
      </trkpt>
      <trkpt lat="48.755189" lon="2.070717">
        <ele>163.845996</ele>
        <time>2024-09-08T21:24:09.089Z</time>
      </trkpt>
      <trkpt lat="48.755598" lon="2.071006">
        <ele>163.818238</ele>
        <time>2024-09-08T21:24:17.661Z</time>
      </trkpt>
      <trkpt lat="48.755572" lon="2.071186">
        <ele>163.810764</ele>
        <time>2024-09-08T21:24:19.937Z</time>
      </trkpt>
      <trkpt lat="48.755646" lon="2.071246">
        <ele>163.805602</ele>
        <time>2024-09-08T21:24:21.533Z</time>
      </trkpt>
      <trkpt lat="48.755679" lon="2.071445">
        <ele>163.797279</ele>
        <time>2024-09-08T21:24:24.097Z</time>
      </trkpt>
      <trkpt lat="48.755739" lon="2.071579">
        <ele>163.790709</ele>
        <time>2024-09-08T21:24:26.114Z</time>
      </trkpt>
      <trkpt lat="48.755876" lon="2.071727">
        <ele>163.780362</ele>
        <time>2024-09-08T21:24:29.334Z</time>
      </trkpt>
      <trkpt lat="48.755952" lon="2.071761">
        <ele>163.787908</ele>
        <time>2024-09-08T21:24:30.825Z</time>
      </trkpt>
      <trkpt lat="48.756015" lon="2.071781">
        <ele>163.797736</ele>
        <time>2024-09-08T21:24:32.059Z</time>
      </trkpt>
      <trkpt lat="48.756296" lon="2.071676">
        <ele>163.841926</ele>
        <time>2024-09-08T21:24:37.582Z</time>
      </trkpt>
      <trkpt lat="48.757138" lon="2.072276">
        <ele>163.983977</ele>
        <time>2024-09-08T21:24:55.966Z</time>
      </trkpt>
      <trkpt lat="48.757942" lon="2.072914">
        <ele>164.180532</ele>
        <time>2024-09-08T21:25:15.148Z</time>
      </trkpt>
      <trkpt lat="48.758618" lon="2.073405">
        <ele>164.391423</ele>
        <time>2024-09-08T21:25:30.664Z</time>
      </trkpt>
      <trkpt lat="48.759226" lon="2.073707">
        <ele>164.560289</ele>
        <time>2024-09-08T21:25:43.756Z</time>
      </trkpt>
      <trkpt lat="48.759263" lon="2.073673">
        <ele>164.560807</ele>
        <time>2024-09-08T21:25:44.607Z</time>
      </trkpt>
      <trkpt lat="48.759314" lon="2.073641">
        <ele>164.561468</ele>
        <time>2024-09-08T21:25:45.709Z</time>
      </trkpt>
      <trkpt lat="48.759394" lon="2.073643">
        <ele>164.562425</ele>
        <time>2024-09-08T21:25:47.315Z</time>
      </trkpt>
      <trkpt lat="48.759465" lon="2.073700">
        <ele>164.563387</ele>
        <time>2024-09-08T21:25:48.926Z</time>
      </trkpt>
      <trkpt lat="48.759496" lon="2.073739">
        <ele>164.563869</ele>
        <time>2024-09-08T21:25:49.751Z</time>
      </trkpt>
      <trkpt lat="48.759565" lon="2.073699">
        <ele>164.564753</ele>
        <time>2024-09-08T21:25:51.233Z</time>
      </trkpt>
      <trkpt lat="48.760077" lon="2.073629">
        <ele>164.570905</ele>
        <time>2024-09-08T21:26:01.240Z</time>
      </trkpt>
      <trkpt lat="48.761525" lon="2.072885">
        <ele>164.348438</ele>
        <time>2024-09-08T21:26:30.033Z</time>
      </trkpt>
      <trkpt lat="48.761739" lon="2.073025">
        <ele>164.266024</ele>
        <time>2024-09-08T21:26:34.280Z</time>
      </trkpt>
      <trkpt lat="48.761939" lon="2.073034">
        <ele>164.195266</ele>
        <time>2024-09-08T21:26:37.905Z</time>
      </trkpt>
      <trkpt lat="48.762126" lon="2.073459">
        <ele>164.076152</ele>
        <time>2024-09-08T21:26:43.945Z</time>
      </trkpt>
      <trkpt lat="48.762401" lon="2.073734">
        <ele>163.959676</ele>
        <time>2024-09-08T21:26:49.789Z</time>
      </trkpt>
      <trkpt lat="48.762610" lon="2.074063">
        <ele>163.769098</ele>
        <time>2024-09-08T21:26:55.071Z</time>
      </trkpt>
      <trkpt lat="48.763434" lon="2.075680">
        <ele>162.857773</ele>
        <time>2024-09-08T21:27:18.474Z</time>
      </trkpt>
      <trkpt lat="48.765320" lon="2.079263">
        <ele>161.257189</ele>
        <time>2024-09-08T21:28:12.145Z</time>
      </trkpt>
      <trkpt lat="48.765667" lon="2.079951">
        <ele>160.986522</ele>
        <time>2024-09-08T21:28:22.487Z</time>
      </trkpt>
      <trkpt lat="48.765687" lon="2.080063">
        <ele>160.950268</ele>
        <time>2024-09-08T21:28:23.976Z</time>
      </trkpt>
      <trkpt lat="48.765638" lon="2.080624">
        <ele>160.835299</ele>
        <time>2024-09-08T21:28:31.177Z</time>
      </trkpt>
      <trkpt lat="48.765700" lon="2.080745">
        <ele>160.811945</ele>
        <time>2024-09-08T21:28:33.144Z</time>
      </trkpt>
      <trkpt lat="48.765774" lon="2.080877">
        <ele>160.785540</ele>
        <time>2024-09-08T21:28:35.372Z</time>
      </trkpt>
      <trkpt lat="48.766053" lon="2.080869">
        <ele>160.721028</ele>
        <time>2024-09-08T21:28:40.799Z</time>
      </trkpt>
      <trkpt lat="48.766168" lon="2.080827">
        <ele>160.693683</ele>
        <time>2024-09-08T21:28:43.109Z</time>
      </trkpt>
      <trkpt lat="48.766301" lon="2.080709">
        <ele>160.658064</ele>
        <time>2024-09-08T21:28:46.092Z</time>
      </trkpt>
      <trkpt lat="48.766394" lon="2.080687">
        <ele>160.636304</ele>
        <time>2024-09-08T21:28:47.961Z</time>
      </trkpt>
      <trkpt lat="48.770238" lon="2.082400">
        <ele>160.088943</ele>
        <time>2024-09-08T21:30:53.223Z</time>
      </trkpt>
      <trkpt lat="48.770286" lon="2.082422">
        <ele>160.086396</ele>
        <time>2024-09-08T21:30:54.904Z</time>
      </trkpt>
      <trkpt lat="48.770452" lon="2.082518">
        <ele>160.077374</ele>
        <time>2024-09-08T21:31:00.863Z</time>
      </trkpt>
      <trkpt lat="48.770550" lon="2.082573">
        <ele>160.115223</ele>
        <time>2024-09-08T21:31:04.341Z</time>
      </trkpt>
      <trkpt lat="48.770699" lon="2.082903">
        <ele>160.297413</ele>
        <time>2024-09-08T21:31:10.346Z</time>
      </trkpt>
      <trkpt lat="48.770710" lon="2.082982">
        <ele>160.334189</ele>
        <time>2024-09-08T21:31:11.565Z</time>
      </trkpt>
      <trkpt lat="48.770769" lon="2.083029">
        <ele>160.380240</ele>
        <time>2024-09-08T21:31:13.076Z</time>
      </trkpt>
      <trkpt lat="48.770883" lon="2.083079">
        <ele>160.462246</ele>
        <time>2024-09-08T21:31:15.895Z</time>
      </trkpt>
      <trkpt lat="48.770939" lon="2.083111">
        <ele>160.503599</ele>
        <time>2024-09-08T21:31:17.305Z</time>
      </trkpt>
      <trkpt lat="48.771165" lon="2.082951">
        <ele>160.675944</ele>
        <time>2024-09-08T21:31:23.317Z</time>
      </trkpt>
      <trkpt lat="48.771227" lon="2.082877">
        <ele>160.730457</ele>
        <time>2024-09-08T21:31:25.231Z</time>
      </trkpt>
      <trkpt lat="48.771300" lon="2.082852">
        <ele>160.782174</ele>
        <time>2024-09-08T21:31:27.071Z</time>
      </trkpt>
      <trkpt lat="48.772514" lon="2.083578">
        <ele>161.661620</ele>
        <time>2024-09-08T21:31:58.233Z</time>
      </trkpt>
      <trkpt lat="48.772839" lon="2.083964">
        <ele>161.929447</ele>
        <time>2024-09-08T21:32:07.866Z</time>
      </trkpt>
      <trkpt lat="48.773094" lon="2.084426">
        <ele>162.187170</ele>
        <time>2024-09-08T21:32:16.766Z</time>
      </trkpt>
      <trkpt lat="48.773317" lon="2.085027">
        <ele>162.482136</ele>
        <time>2024-09-08T21:32:26.465Z</time>
      </trkpt>
      <trkpt lat="48.774320" lon="2.089438">
        <ele>161.689905</ele>
        <time>2024-09-08T21:33:23.941Z</time>
      </trkpt>
      <trkpt lat="48.774595" lon="2.090442">
        <ele>160.935412</ele>
        <time>2024-09-08T21:33:36.034Z</time>
      </trkpt>
      <trkpt lat="48.774632" lon="2.090431">
        <ele>160.836251</ele>
        <time>2024-09-08T21:33:36.649Z</time>
      </trkpt>
      <trkpt lat="48.774665" lon="2.090422">
        <ele>160.748069</ele>
        <time>2024-09-08T21:33:37.185Z</time>
      </trkpt>
      <trkpt lat="48.774697" lon="2.090632">
        <ele>160.374484</ele>
        <time>2024-09-08T21:33:47.075Z</time>
      </trkpt>
      <trkpt lat="48.774761" lon="2.090521">
        <ele>160.118855</ele>
        <time>2024-09-08T21:33:48.607Z</time>
      </trkpt>
      <trkpt lat="48.774840" lon="2.090709">
        <ele>159.732401</ele>
        <time>2024-09-08T21:33:50.900Z</time>
      </trkpt>
      <trkpt lat="48.775207" lon="2.091598">
        <ele>157.914200</ele>
        <time>2024-09-08T21:34:01.209Z</time>
      </trkpt>
      <trkpt lat="48.775237" lon="2.091675">
        <ele>157.759163</ele>
        <time>2024-09-08T21:34:02.051Z</time>
      </trkpt>
      <trkpt lat="48.775303" lon="2.091833">
        <ele>157.434934</ele>
        <time>2024-09-08T21:34:03.790Z</time>
      </trkpt>
      <trkpt lat="48.775381" lon="2.092124">
        <ele>156.890444</ele>
        <time>2024-09-08T21:34:06.673Z</time>
      </trkpt>
      <trkpt lat="48.775523" lon="2.093013">
        <ele>153.237502</ele>
        <time>2024-09-08T21:34:14.736Z</time>
      </trkpt>
      <trkpt lat="48.775665" lon="2.093431">
        <ele>151.217787</ele>
        <time>2024-09-08T21:34:18.751Z</time>
      </trkpt>
      <trkpt lat="48.775859" lon="2.093746">
        <ele>149.366111</ele>
        <time>2024-09-08T21:34:22.342Z</time>
      </trkpt>
      <trkpt lat="48.776501" lon="2.094649">
        <ele>143.396836</ele>
        <time>2024-09-08T21:34:33.122Z</time>
      </trkpt>
      <trkpt lat="48.776766" lon="2.094925">
        <ele>140.882853</ele>
        <time>2024-09-08T21:34:37.025Z</time>
      </trkpt>
      <trkpt lat="48.777356" lon="2.095378">
        <ele>135.710996</ele>
        <time>2024-09-08T21:34:45.096Z</time>
      </trkpt>
      <trkpt lat="48.777581" lon="2.095599">
        <ele>133.614636</ele>
        <time>2024-09-08T21:34:48.425Z</time>
      </trkpt>
      <trkpt lat="48.778004" lon="2.096025">
        <ele>130.311682</ele>
        <time>2024-09-08T21:34:55.334Z</time>
      </trkpt>
      <trkpt lat="48.778267" lon="2.096218">
        <ele>129.228493</ele>
        <time>2024-09-08T21:34:59.475Z</time>
      </trkpt>
      <trkpt lat="48.778298" lon="2.096277">
        <ele>129.044121</ele>
        <time>2024-09-08T21:35:00.195Z</time>
      </trkpt>
      <trkpt lat="48.778298" lon="2.096417">
        <ele>128.702052</ele>
        <time>2024-09-08T21:35:01.554Z</time>
      </trkpt>
      <trkpt lat="48.778265" lon="2.096497">
        <ele>128.471446</ele>
        <time>2024-09-08T21:35:02.478Z</time>
      </trkpt>
      <trkpt lat="48.778150" lon="2.096619">
        <ele>127.951184</ele>
        <time>2024-09-08T21:35:04.559Z</time>
      </trkpt>
      <trkpt lat="48.778007" lon="2.096699">
        <ele>127.386085</ele>
        <time>2024-09-08T21:35:06.728Z</time>
      </trkpt>
      <trkpt lat="48.777836" lon="2.096796">
        <ele>126.709200</ele>
        <time>2024-09-08T21:35:09.391Z</time>
      </trkpt>
      <trkpt lat="48.777799" lon="2.096819">
        <ele>126.560947</ele>
        <time>2024-09-08T21:35:09.974Z</time>
      </trkpt>
      <trkpt lat="48.777700" lon="2.096878">
        <ele>126.166582</ele>
        <time>2024-09-08T21:35:11.543Z</time>
      </trkpt>
      <trkpt lat="48.777388" lon="2.097082">
        <ele>124.906930</ele>
        <time>2024-09-08T21:35:16.745Z</time>
      </trkpt>
      <trkpt lat="48.777300" lon="2.097132">
        <ele>124.558522</ele>
        <time>2024-09-08T21:35:18.264Z</time>
      </trkpt>
      <trkpt lat="48.776890" lon="2.097360">
        <ele>123.418725</ele>
        <time>2024-09-08T21:35:25.212Z</time>
      </trkpt>
      <trkpt lat="48.776709" lon="2.097548">
        <ele>122.904086</ele>
        <time>2024-09-08T21:35:28.739Z</time>
      </trkpt>
      <trkpt lat="48.776326" lon="2.098249">
        <ele>121.496118</ele>
        <time>2024-09-08T21:35:38.065Z</time>
      </trkpt>
      <trkpt lat="48.775712" lon="2.099602">
        <ele>119.001430</ele>
        <time>2024-09-08T21:35:53.569Z</time>
      </trkpt>
      <trkpt lat="48.775643" lon="2.099732">
        <ele>118.754299</ele>
        <time>2024-09-08T21:35:56.492Z</time>
      </trkpt>
      <trkpt lat="48.775963" lon="2.100204">
        <ele>117.751721</ele>
        <time>2024-09-08T21:36:08.374Z</time>
      </trkpt>
      <trkpt lat="48.776054" lon="2.100342">
        <ele>117.462689</ele>
        <time>2024-09-08T21:36:11.908Z</time>
      </trkpt>
      <trkpt lat="48.776158" lon="2.100548">
        <ele>117.078493</ele>
        <time>2024-09-08T21:36:16.664Z</time>
      </trkpt>
      <trkpt lat="48.776205" lon="2.100695">
        <ele>116.836596</ele>
        <time>2024-09-08T21:36:19.633Z</time>
      </trkpt>
      <trkpt lat="48.776230" lon="2.101079">
        <ele>116.265312</ele>
        <time>2024-09-08T21:36:26.853Z</time>
      </trkpt>
      <trkpt lat="48.776161" lon="2.102078">
        <ele>115.761763</ele>
        <time>2024-09-08T21:36:46.292Z</time>
      </trkpt>
      <trkpt lat="48.776189" lon="2.102487">
        <ele>115.649700</ele>
        <time>2024-09-08T21:36:54.949Z</time>
      </trkpt>
      <trkpt lat="48.776256" lon="2.102985">
        <ele>115.511183</ele>
        <time>2024-09-08T21:37:06.389Z</time>
      </trkpt>
      <trkpt lat="48.776258" lon="2.103000">
        <ele>115.507012</ele>
        <time>2024-09-08T21:37:06.729Z</time>
      </trkpt>
      <trkpt lat="48.776272" lon="2.103311">
        <ele>115.422060</ele>
        <time>2024-09-08T21:37:13.482Z</time>
      </trkpt>
      <trkpt lat="48.776251" lon="2.103687">
        <ele>115.319223</ele>
        <time>2024-09-08T21:37:21.205Z</time>
      </trkpt>
      <trkpt lat="48.776154" lon="2.104561">
        <ele>114.798165</ele>
        <time>2024-09-08T21:37:38.618Z</time>
      </trkpt>
      <trkpt lat="48.776059" lon="2.105057">
        <ele>114.414767</ele>
        <time>2024-09-08T21:37:48.453Z</time>
      </trkpt>
      <trkpt lat="48.775975" lon="2.105375">
        <ele>114.160470</ele>
        <time>2024-09-08T21:37:54.917Z</time>
      </trkpt>
      <trkpt lat="48.775821" lon="2.105727">
        <ele>113.846855</ele>
        <time>2024-09-08T21:38:02.807Z</time>
      </trkpt>
      <trkpt lat="48.775440" lon="2.106471">
        <ele>113.171110</ele>
        <time>2024-09-08T21:38:20.426Z</time>
      </trkpt>
      <trkpt lat="48.775367" lon="2.106667">
        <ele>113.063424</ele>
        <time>2024-09-08T21:38:24.656Z</time>
      </trkpt>
      <trkpt lat="48.775361" lon="2.106998">
        <ele>112.905041</ele>
        <time>2024-09-08T21:38:30.866Z</time>
      </trkpt>
      <trkpt lat="48.775380" lon="2.107056">
        <ele>112.874060</ele>
        <time>2024-09-08T21:38:32.102Z</time>
      </trkpt>
      <trkpt lat="48.775658" lon="2.107919">
        <ele>112.414597</ele>
        <time>2024-09-08T21:38:50.845Z</time>
      </trkpt>
      <trkpt lat="48.775789" lon="2.108146">
        <ele>112.270273</ele>
        <time>2024-09-08T21:38:57.012Z</time>
      </trkpt>
      <trkpt lat="48.775881" lon="2.108340">
        <ele>112.155952</ele>
        <time>2024-09-08T21:39:01.879Z</time>
      </trkpt>
      <trkpt lat="48.776167" lon="2.109244">
        <ele>111.811342</ele>
        <time>2024-09-08T21:39:22.855Z</time>
      </trkpt>
      <trkpt lat="48.776462" lon="2.109939">
        <ele>111.645904</ele>
        <time>2024-09-08T21:39:39.891Z</time>
      </trkpt>
      <trkpt lat="48.776681" lon="2.110447">
        <ele>111.524421</ele>
        <time>2024-09-08T21:39:52.205Z</time>
      </trkpt>
      <trkpt lat="48.776877" lon="2.110987">
        <ele>111.401049</ele>
        <time>2024-09-08T21:40:04.573Z</time>
      </trkpt>
      <trkpt lat="48.776961" lon="2.111312">
        <ele>111.307959</ele>
        <time>2024-09-08T21:40:11.610Z</time>
      </trkpt>
      <trkpt lat="48.777080" lon="2.112136">
        <ele>111.013020</ele>
        <time>2024-09-08T21:40:28.535Z</time>
      </trkpt>
      <trkpt lat="48.777098" lon="2.112373">
        <ele>110.929607</ele>
        <time>2024-09-08T21:40:33.255Z</time>
      </trkpt>
      <trkpt lat="48.777109" lon="2.112807">
        <ele>110.777753</ele>
        <time>2024-09-08T21:40:41.755Z</time>
      </trkpt>
      <trkpt lat="48.777039" lon="2.113300">
        <ele>110.601426</ele>
        <time>2024-09-08T21:40:51.787Z</time>
      </trkpt>
      <trkpt lat="48.777027" lon="2.113541">
        <ele>110.516923</ele>
        <time>2024-09-08T21:40:56.567Z</time>
      </trkpt>
      <trkpt lat="48.777062" lon="2.113771">
        <ele>110.434390</ele>
        <time>2024-09-08T21:41:01.381Z</time>
      </trkpt>
      <trkpt lat="48.777070" lon="2.113908">
        <ele>110.389990</ele>
        <time>2024-09-08T21:41:04.237Z</time>
      </trkpt>
      <trkpt lat="48.777037" lon="2.114040">
        <ele>110.349024</ele>
        <time>2024-09-08T21:41:07.038Z</time>
      </trkpt>
      <trkpt lat="48.776949" lon="2.114254">
        <ele>110.275832</ele>
        <time>2024-09-08T21:41:12.206Z</time>
      </trkpt>
      <trkpt lat="48.776873" lon="2.114562">
        <ele>110.180402</ele>
        <time>2024-09-08T21:41:18.885Z</time>
      </trkpt>
      <trkpt lat="48.776872" lon="2.114582">
        <ele>110.174582</ele>
        <time>2024-09-08T21:41:19.306Z</time>
      </trkpt>
      <trkpt lat="48.776864" lon="2.114833">
        <ele>110.101665</ele>
        <time>2024-09-08T21:41:24.459Z</time>
      </trkpt>
      <trkpt lat="48.776894" lon="2.115092">
        <ele>110.025361</ele>
        <time>2024-09-08T21:41:29.674Z</time>
      </trkpt>
      <trkpt lat="48.776953" lon="2.115327">
        <ele>109.952391</ele>
        <time>2024-09-08T21:41:34.840Z</time>
      </trkpt>
      <trkpt lat="48.777069" lon="2.115676">
        <ele>109.838972</ele>
        <time>2024-09-08T21:41:42.663Z</time>
      </trkpt>
      <trkpt lat="48.777320" lon="2.116437">
        <ele>109.601032</ele>
        <time>2024-09-08T21:41:59.485Z</time>
      </trkpt>
      <trkpt lat="48.777386" lon="2.117007">
        <ele>109.496076</ele>
        <time>2024-09-08T21:42:11.221Z</time>
      </trkpt>
      <trkpt lat="48.777455" lon="2.117613">
        <ele>109.384547</ele>
        <time>2024-09-08T21:42:23.802Z</time>
      </trkpt>
      <trkpt lat="48.777536" lon="2.117809">
        <ele>109.342590</ele>
        <time>2024-09-08T21:42:28.492Z</time>
      </trkpt>
      <trkpt lat="48.777604" lon="2.118059">
        <ele>109.293541</ele>
        <time>2024-09-08T21:42:33.953Z</time>
      </trkpt>
      <trkpt lat="48.777626" lon="2.118261">
        <ele>109.256410</ele>
        <time>2024-09-08T21:42:38.097Z</time>
      </trkpt>
      <trkpt lat="48.777659" lon="2.118938">
        <ele>109.133298</ele>
        <time>2024-09-08T21:42:52.077Z</time>
      </trkpt>
      <trkpt lat="48.777683" lon="2.119074">
        <ele>109.136221</ele>
        <time>2024-09-08T21:42:55.112Z</time>
      </trkpt>
      <trkpt lat="48.777679" lon="2.119359">
        <ele>109.195513</ele>
        <time>2024-09-08T21:43:01.115Z</time>
      </trkpt>
      <trkpt lat="48.777613" lon="2.119803">
        <ele>109.290185</ele>
        <time>2024-09-08T21:43:10.778Z</time>
      </trkpt>
      <trkpt lat="48.777635" lon="2.120520">
        <ele>109.439480</ele>
        <time>2024-09-08T21:43:26.840Z</time>
      </trkpt>
      <trkpt lat="48.777683" lon="2.121373">
        <ele>109.617547</ele>
        <time>2024-09-08T21:43:46.381Z</time>
      </trkpt>
      <trkpt lat="48.777656" lon="2.121943">
        <ele>109.647375</ele>
        <time>2024-09-08T21:43:59.427Z</time>
      </trkpt>
      <trkpt lat="48.777430" lon="2.122653">
        <ele>109.505120</ele>
        <time>2024-09-08T21:44:10.348Z</time>
      </trkpt>
      <trkpt lat="48.777182" lon="2.123292">
        <ele>109.371326</ele>
        <time>2024-09-08T21:44:19.415Z</time>
      </trkpt>
      <trkpt lat="48.777127" lon="2.123457">
        <ele>109.337966</ele>
        <time>2024-09-08T21:44:21.586Z</time>
      </trkpt>
      <trkpt lat="48.777022" lon="2.123870">
        <ele>109.258101</ele>
        <time>2024-09-08T21:44:26.762Z</time>
      </trkpt>
      <trkpt lat="48.776915" lon="2.124130">
        <ele>109.202797</ele>
        <time>2024-09-08T21:44:30.404Z</time>
      </trkpt>
      <trkpt lat="48.776659" lon="2.124507">
        <ele>108.838166</ele>
        <time>2024-09-08T21:44:36.687Z</time>
      </trkpt>
      <trkpt lat="48.776317" lon="2.124813">
        <ele>108.411196</ele>
        <time>2024-09-08T21:44:43.499Z</time>
      </trkpt>
      <trkpt lat="48.775921" lon="2.125047">
        <ele>107.954177</ele>
        <time>2024-09-08T21:44:50.812Z</time>
      </trkpt>
      <trkpt lat="48.775872" lon="2.125105">
        <ele>107.887346</ele>
        <time>2024-09-08T21:44:51.935Z</time>
      </trkpt>
      <trkpt lat="48.775823" lon="2.125163">
        <ele>107.820514</ele>
        <time>2024-09-08T21:44:53.031Z</time>
      </trkpt>
      <trkpt lat="48.775769" lon="2.125361">
        <ele>107.668647</ele>
        <time>2024-09-08T21:44:55.518Z</time>
      </trkpt>
      <trkpt lat="48.775799" lon="2.125841">
        <ele>107.326938</ele>
        <time>2024-09-08T21:45:01.298Z</time>
      </trkpt>
      <trkpt lat="48.775851" lon="2.126179">
        <ele>107.355699</ele>
        <time>2024-09-08T21:45:05.612Z</time>
      </trkpt>
      <trkpt lat="48.775961" lon="2.126552">
        <ele>107.505587</ele>
        <time>2024-09-08T21:45:10.992Z</time>
      </trkpt>
      <trkpt lat="48.775971" lon="2.126708">
        <ele>107.563076</ele>
        <time>2024-09-08T21:45:13.082Z</time>
      </trkpt>
      <trkpt lat="48.775931" lon="2.126961">
        <ele>107.658508</ele>
        <time>2024-09-08T21:45:16.838Z</time>
      </trkpt>
      <trkpt lat="48.775894" lon="2.127021">
        <ele>107.688648</ele>
        <time>2024-09-08T21:45:17.891Z</time>
      </trkpt>
      <trkpt lat="48.776048" lon="2.127327">
        <ele>107.829872</ele>
        <time>2024-09-08T21:45:23.382Z</time>
      </trkpt>
      <trkpt lat="48.776218" lon="2.127606">
        <ele>107.969247</ele>
        <time>2024-09-08T21:45:29.267Z</time>
      </trkpt>
      <trkpt lat="48.776374" lon="2.127801">
        <ele>108.081739</ele>
        <time>2024-09-08T21:45:34.368Z</time>
      </trkpt>
      <trkpt lat="48.776708" lon="2.127963">
        <ele>108.334225</ele>
        <time>2024-09-08T21:45:43.702Z</time>
      </trkpt>
      <trkpt lat="48.776642" lon="2.128901">
        <ele>110.116489</ele>
        <time>2024-09-08T21:46:02.504Z</time>
      </trkpt>
      <trkpt lat="48.776608" lon="2.129646">
        <ele>111.527413</ele>
        <time>2024-09-08T21:46:19.048Z</time>
      </trkpt>
      <trkpt lat="48.777295" lon="2.129602">
        <ele>113.559323</ele>
        <time>2024-09-08T21:46:44.588Z</time>
      </trkpt>
      <trkpt lat="48.777986" lon="2.129558">
        <ele>117.061467</ele>
        <time>2024-09-08T21:47:15.413Z</time>
      </trkpt>
      <trkpt lat="48.778234" lon="2.129671">
        <ele>118.372671</ele>
        <time>2024-09-08T21:47:27.599Z</time>
      </trkpt>
      <trkpt lat="48.778312" lon="2.129735">
        <ele>118.821684</ele>
        <time>2024-09-08T21:47:31.651Z</time>
      </trkpt>
      <trkpt lat="48.778830" lon="2.130487">
        <ele>122.451704</ele>
        <time>2024-09-08T21:48:05.014Z</time>
      </trkpt>
      <trkpt lat="48.778923" lon="2.130586">
        <ele>122.974012</ele>
        <time>2024-09-08T21:48:10.373Z</time>
      </trkpt>
      <trkpt lat="48.779249" lon="2.130819">
        <ele>124.605255</ele>
        <time>2024-09-08T21:48:26.930Z</time>
      </trkpt>
      <trkpt lat="48.780324" lon="2.131596">
        <ele>129.995411</ele>
        <time>2024-09-08T21:49:15.865Z</time>
      </trkpt>
      <trkpt lat="48.780746" lon="2.131533">
        <ele>131.643022</ele>
        <time>2024-09-08T21:49:31.336Z</time>
      </trkpt>
      <trkpt lat="48.781719" lon="2.132068">
        <ele>135.304591</ele>
        <time>2024-09-08T21:50:08.269Z</time>
      </trkpt>
      <trkpt lat="48.782765" lon="2.132303">
        <ele>139.264924</ele>
        <time>2024-09-08T21:50:48.237Z</time>
      </trkpt>
      <trkpt lat="48.784340" lon="2.132610">
        <ele>145.290392</ele>
        <time>2024-09-08T21:51:50.985Z</time>
      </trkpt>
      <trkpt lat="48.785260" lon="2.132805">
        <ele>148.403773</ele>
        <time>2024-09-08T21:52:25.289Z</time>
      </trkpt>
      <trkpt lat="48.785652" lon="2.132854">
        <ele>149.722041</ele>
        <time>2024-09-08T21:52:38.162Z</time>
      </trkpt>
      <trkpt lat="48.785818" lon="2.132835">
        <ele>150.254102</ele>
        <time>2024-09-08T21:52:43.363Z</time>
      </trkpt>
      <trkpt lat="48.785863" lon="2.132761">
        <ele>150.440750</ele>
        <time>2024-09-08T21:52:45.445Z</time>
      </trkpt>
      <trkpt lat="48.786123" lon="2.132801">
        <ele>151.175911</ele>
        <time>2024-09-08T21:52:53.430Z</time>
      </trkpt>
      <trkpt lat="48.786189" lon="2.132817">
        <ele>151.363931</ele>
        <time>2024-09-08T21:52:55.476Z</time>
      </trkpt>
      <trkpt lat="48.786216" lon="2.132916">
        <ele>151.562525</ele>
        <time>2024-09-08T21:52:57.776Z</time>
      </trkpt>
      <trkpt lat="48.786287" lon="2.132932">
        <ele>151.764446</ele>
        <time>2024-09-08T21:53:00.001Z</time>
      </trkpt>
      <trkpt lat="48.786351" lon="2.132942">
        <ele>151.945438</ele>
        <time>2024-09-08T21:53:02.074Z</time>
      </trkpt>
      <trkpt lat="48.786687" lon="2.132996">
        <ele>152.895932</ele>
        <time>2024-09-08T21:53:13.313Z</time>
      </trkpt>
      <trkpt lat="48.786947" lon="2.133176">
        <ele>153.699841</ele>
        <time>2024-09-08T21:53:23.320Z</time>
      </trkpt>
      <trkpt lat="48.787044" lon="2.133178">
        <ele>153.972739</ele>
        <time>2024-09-08T21:53:26.771Z</time>
      </trkpt>
      <trkpt lat="48.787123" lon="2.133120">
        <ele>154.219611</ele>
        <time>2024-09-08T21:53:29.928Z</time>
      </trkpt>
      <trkpt lat="48.787458" lon="2.133202">
        <ele>155.174185</ele>
        <time>2024-09-08T21:53:41.873Z</time>
      </trkpt>
      <trkpt lat="48.787602" lon="2.133245">
        <ele>155.713922</ele>
        <time>2024-09-08T21:53:47.047Z</time>
      </trkpt>
      <trkpt lat="48.787679" lon="2.133268">
        <ele>156.003283</ele>
        <time>2024-09-08T21:53:49.797Z</time>
      </trkpt>
      <trkpt lat="48.787787" lon="2.133467">
        <ele>156.629611</ele>
        <time>2024-09-08T21:53:55.956Z</time>
      </trkpt>
      <trkpt lat="48.787797" lon="2.133477">
        <ele>156.673767</ele>
        <time>2024-09-08T21:53:56.372Z</time>
      </trkpt>
      <trkpt lat="48.788417" lon="2.133794">
        <ele>159.086060</ele>
        <time>2024-09-08T21:54:20.729Z</time>
      </trkpt>
      <trkpt lat="48.788681" lon="2.133996">
        <ele>160.176177</ele>
        <time>2024-09-08T21:54:32.154Z</time>
      </trkpt>
      <trkpt lat="48.788728" lon="2.134032">
        <ele>160.370292</ele>
        <time>2024-09-08T21:54:34.243Z</time>
      </trkpt>
      <trkpt lat="48.788697" lon="2.134211">
        <ele>160.819904</ele>
        <time>2024-09-08T21:54:40.525Z</time>
      </trkpt>
      <trkpt lat="48.788762" lon="2.134381">
        <ele>161.297388</ele>
        <time>2024-09-08T21:54:47.240Z</time>
      </trkpt>
      <trkpt lat="48.788793" lon="2.134780">
        <ele>162.254945</ele>
        <time>2024-09-08T21:55:01.327Z</time>
      </trkpt>
      <trkpt lat="48.788833" lon="2.134929">
        <ele>162.630227</ele>
        <time>2024-09-08T21:55:07.014Z</time>
      </trkpt>
      <trkpt lat="48.789454" lon="2.135984">
        <ele>165.930032</ele>
        <time>2024-09-08T21:55:54.996Z</time>
      </trkpt>
      <trkpt lat="48.789475" lon="2.136115">
        <ele>166.244497</ele>
        <time>2024-09-08T21:55:59.393Z</time>
      </trkpt>
      <trkpt lat="48.789389" lon="2.136335">
        <ele>166.841161</ele>
        <time>2024-09-08T21:56:07.462Z</time>
      </trkpt>
      <trkpt lat="48.789075" lon="2.136698">
        <ele>168.190426</ele>
        <time>2024-09-08T21:56:25.684Z</time>
      </trkpt>
      <trkpt lat="48.788878" lon="2.136983">
        <ele>168.383405</ele>
        <time>2024-09-08T21:56:37.589Z</time>
      </trkpt>
      <trkpt lat="48.788768" lon="2.137289">
        <ele>168.546255</ele>
        <time>2024-09-08T21:56:47.074Z</time>
      </trkpt>
      <trkpt lat="48.788557" lon="2.137725">
        <ele>168.798988</ele>
        <time>2024-09-08T21:57:01.055Z</time>
      </trkpt>
      <trkpt lat="48.788505" lon="2.137940">
        <ele>168.905985</ele>
        <time>2024-09-08T21:57:06.590Z</time>
      </trkpt>
      <trkpt lat="48.788619" lon="2.138406">
        <ele>169.138212</ele>
        <time>2024-09-08T21:57:17.538Z</time>
      </trkpt>
      <trkpt lat="48.788636" lon="2.138572">
        <ele>169.216694</ele>
        <time>2024-09-08T21:57:20.938Z</time>
      </trkpt>
      <trkpt lat="48.788581" lon="2.138761">
        <ele>169.313220</ele>
        <time>2024-09-08T21:57:24.951Z</time>
      </trkpt>
      <trkpt lat="48.788473" lon="2.139000">
        <ele>169.448614</ele>
        <time>2024-09-08T21:57:30.341Z</time>
      </trkpt>
      <trkpt lat="48.788514" lon="2.139053">
        <ele>169.349149</ele>
        <time>2024-09-08T21:57:31.834Z</time>
      </trkpt>
      <trkpt lat="48.788772" lon="2.139155">
        <ele>168.750235</ele>
        <time>2024-09-08T21:57:38.956Z</time>
      </trkpt>
      <trkpt lat="48.788854" lon="2.139273">
        <ele>168.496401</ele>
        <time>2024-09-08T21:57:41.944Z</time>
      </trkpt>
      <trkpt lat="48.788753" lon="2.139783">
        <ele>167.708227</ele>
        <time>2024-09-08T21:57:51.091Z</time>
      </trkpt>
      <trkpt lat="48.788745" lon="2.140088">
        <ele>167.256462</ele>
        <time>2024-09-08T21:57:56.320Z</time>
      </trkpt>
      <trkpt lat="48.788822" lon="2.140312">
        <ele>166.882525</ele>
        <time>2024-09-08T21:58:00.808Z</time>
      </trkpt>
      <trkpt lat="48.789223" lon="2.141024">
        <ele>165.496199</ele>
        <time>2024-09-08T21:58:17.526Z</time>
      </trkpt>
      <trkpt lat="48.789275" lon="2.141153">
        <ele>165.224611</ele>
        <time>2024-09-08T21:58:20.365Z</time>
      </trkpt>
      <trkpt lat="48.789322" lon="2.141421">
        <ele>164.675005</ele>
        <time>2024-09-08T21:58:25.422Z</time>
      </trkpt>
      <trkpt lat="48.789334" lon="2.141641">
        <ele>164.237526</ele>
        <time>2024-09-08T21:58:29.632Z</time>
      </trkpt>
      <trkpt lat="48.789311" lon="2.143805">
        <ele>159.893960</ele>
        <time>2024-09-08T21:59:06.903Z</time>
      </trkpt>
      <trkpt lat="48.790213" lon="2.145612">
        <ele>150.910956</ele>
        <time>2024-09-08T21:59:41.862Z</time>
      </trkpt>
      <trkpt lat="48.790465" lon="2.146264">
        <ele>147.729055</ele>
        <time>2024-09-08T21:59:52.965Z</time>
      </trkpt>
      <trkpt lat="48.790634" lon="2.146721">
        <ele>145.347140</ele>
        <time>2024-09-08T22:00:00.635Z</time>
      </trkpt>
      <trkpt lat="48.790874" lon="2.147144">
        <ele>142.809920</ele>
        <time>2024-09-08T22:00:05.819Z</time>
      </trkpt>
      <trkpt lat="48.790677" lon="2.147330">
        <ele>141.209393</ele>
        <time>2024-09-08T22:00:08.696Z</time>
      </trkpt>
      <trkpt lat="48.790237" lon="2.147774">
        <ele>137.564356</ele>
        <time>2024-09-08T22:00:15.544Z</time>
      </trkpt>
      <trkpt lat="48.790277" lon="2.147851">
        <ele>137.118681</ele>
        <time>2024-09-08T22:00:16.362Z</time>
      </trkpt>
      <trkpt lat="48.790307" lon="2.147904">
        <ele>136.801096</ele>
        <time>2024-09-08T22:00:16.953Z</time>
      </trkpt>
      <trkpt lat="48.790387" lon="2.148044">
        <ele>136.300288</ele>
        <time>2024-09-08T22:00:18.549Z</time>
      </trkpt>
      <trkpt lat="48.790815" lon="2.148780">
        <ele>133.700723</ele>
        <time>2024-09-08T22:00:27.337Z</time>
      </trkpt>
      <trkpt lat="48.790863" lon="2.148861">
        <ele>133.412233</ele>
        <time>2024-09-08T22:00:28.353Z</time>
      </trkpt>
      <trkpt lat="48.790910" lon="2.148942">
        <ele>133.126415</ele>
        <time>2024-09-08T22:00:29.436Z</time>
      </trkpt>
      <trkpt lat="48.791333" lon="2.149668">
        <ele>130.560016</ele>
        <time>2024-09-08T22:00:38.461Z</time>
      </trkpt>
      <trkpt lat="48.791672" lon="2.150255">
        <ele>128.770387</ele>
        <time>2024-09-08T22:00:45.968Z</time>
      </trkpt>
      <trkpt lat="48.791803" lon="2.150482">
        <ele>128.181490</ele>
        <time>2024-09-08T22:00:48.880Z</time>
      </trkpt>
      <trkpt lat="48.791951" lon="2.150735">
        <ele>127.521232</ele>
        <time>2024-09-08T22:00:52.152Z</time>
      </trkpt>
      <trkpt lat="48.792287" lon="2.151309">
        <ele>126.022824</ele>
        <time>2024-09-08T22:00:59.549Z</time>
      </trkpt>
      <trkpt lat="48.792467" lon="2.151628">
        <ele>125.203197</ele>
        <time>2024-09-08T22:01:03.560Z</time>
      </trkpt>
      <trkpt lat="48.792512" lon="2.151708">
        <ele>124.997920</ele>
        <time>2024-09-08T22:01:04.566Z</time>
      </trkpt>
      <trkpt lat="48.792720" lon="2.152059">
        <ele>124.091442</ele>
        <time>2024-09-08T22:01:09.092Z</time>
      </trkpt>
      <trkpt lat="48.793114" lon="2.152721">
        <ele>122.530485</ele>
        <time>2024-09-08T22:01:17.694Z</time>
      </trkpt>
      <trkpt lat="48.793579" lon="2.153513">
        <ele>120.674306</ele>
        <time>2024-09-08T22:01:28.078Z</time>
      </trkpt>
      <trkpt lat="48.794057" lon="2.154328">
        <ele>118.918250</ele>
        <time>2024-09-08T22:01:38.882Z</time>
      </trkpt>
      <trkpt lat="48.794397" lon="2.154890">
        <ele>117.884902</ele>
        <time>2024-09-08T22:01:46.603Z</time>
      </trkpt>
      <trkpt lat="48.794741" lon="2.155477">
        <ele>116.820927</ele>
        <time>2024-09-08T22:01:54.562Z</time>
      </trkpt>
      <trkpt lat="48.795034" lon="2.155977">
        <ele>115.914668</ele>
        <time>2024-09-08T22:02:01.426Z</time>
      </trkpt>
      <trkpt lat="48.795386" lon="2.155522">
        <ele>115.573470</ele>
        <time>2024-09-08T22:02:08.817Z</time>
      </trkpt>
      <trkpt lat="48.795612" lon="2.155235">
        <ele>115.440261</ele>
        <time>2024-09-08T22:02:13.759Z</time>
      </trkpt>
      <trkpt lat="48.795743" lon="2.155055">
        <ele>115.360380</ele>
        <time>2024-09-08T22:02:16.916Z</time>
      </trkpt>
      <trkpt lat="48.796089" lon="2.154603">
        <ele>115.154012</ele>
        <time>2024-09-08T22:02:25.247Z</time>
      </trkpt>
      <trkpt lat="48.796211" lon="2.154513">
        <ele>115.092690</ele>
        <time>2024-09-08T22:02:28.239Z</time>
      </trkpt>
      <trkpt lat="48.796412" lon="2.154383">
        <ele>114.993917</ele>
        <time>2024-09-08T22:02:32.824Z</time>
      </trkpt>
      <trkpt lat="48.796974" lon="2.154024">
        <ele>115.433640</ele>
        <time>2024-09-08T22:02:48.045Z</time>
      </trkpt>
      <trkpt lat="48.797140" lon="2.153926">
        <ele>115.622535</ele>
        <time>2024-09-08T22:02:52.248Z</time>
      </trkpt>
      <trkpt lat="48.797242" lon="2.153866">
        <ele>115.738549</ele>
        <time>2024-09-08T22:02:55.297Z</time>
      </trkpt>
      <trkpt lat="48.797452" lon="2.153743">
        <ele>115.977267</ele>
        <time>2024-09-08T22:03:00.726Z</time>
      </trkpt>
      <trkpt lat="48.797738" lon="2.153607">
        <ele>116.295117</ele>
        <time>2024-09-08T22:03:08.550Z</time>
      </trkpt>
      <trkpt lat="48.798017" lon="2.153526">
        <ele>116.596373</ele>
        <time>2024-09-08T22:03:16.135Z</time>
      </trkpt>
      <trkpt lat="48.798076" lon="2.153514">
        <ele>116.659505</ele>
        <time>2024-09-08T22:03:17.517Z</time>
      </trkpt>
      <trkpt lat="48.798147" lon="2.153557">
        <ele>116.740575</ele>
        <time>2024-09-08T22:03:19.134Z</time>
      </trkpt>
      <trkpt lat="48.798346" lon="2.153719">
        <ele>116.874377</ele>
        <time>2024-09-08T22:03:24.932Z</time>
      </trkpt>
      <trkpt lat="48.798350" lon="2.153822">
        <ele>116.892214</ele>
        <time>2024-09-08T22:03:26.376Z</time>
      </trkpt>
      <trkpt lat="48.798357" lon="2.153982">
        <ele>116.919934</ele>
        <time>2024-09-08T22:03:28.548Z</time>
      </trkpt>
      <trkpt lat="48.798387" lon="2.155377">
        <ele>117.161221</ele>
        <time>2024-09-08T22:03:48.637Z</time>
      </trkpt>
      <trkpt lat="48.798440" lon="2.157834">
        <ele>116.296639</ele>
        <time>2024-09-08T22:04:17.148Z</time>
      </trkpt>
      <trkpt lat="48.798461" lon="2.158049">
        <ele>116.157717</ele>
        <time>2024-09-08T22:04:19.522Z</time>
      </trkpt>
      <trkpt lat="48.798619" lon="2.158530">
        <ele>115.814174</ele>
        <time>2024-09-08T22:04:25.675Z</time>
      </trkpt>
      <trkpt lat="48.798787" lon="2.158845">
        <ele>115.542066</ele>
        <time>2024-09-08T22:04:30.210Z</time>
      </trkpt>
      <trkpt lat="48.798847" lon="2.158704">
        <ele>115.310600</ele>
        <time>2024-09-08T22:04:32.021Z</time>
      </trkpt>
      <trkpt lat="48.798902" lon="2.158750">
        <ele>115.179150</ele>
        <time>2024-09-08T22:04:33.017Z</time>
      </trkpt>
      <trkpt lat="48.798963" lon="2.158797">
        <ele>115.035950</ele>
        <time>2024-09-08T22:04:34.099Z</time>
      </trkpt>
      <trkpt lat="48.799199" lon="2.158968">
        <ele>114.488535</ele>
        <time>2024-09-08T22:04:38.225Z</time>
      </trkpt>
      <trkpt lat="48.799440" lon="2.159208">
        <ele>113.885182</ele>
        <time>2024-09-08T22:04:42.701Z</time>
      </trkpt>
      <trkpt lat="48.800666" lon="2.160405">
        <ele>110.730093</ele>
        <time>2024-09-08T22:05:04.613Z</time>
      </trkpt>
      <trkpt lat="48.800826" lon="2.160560">
        <ele>110.290177</ele>
        <time>2024-09-08T22:05:07.433Z</time>
      </trkpt>
      <trkpt lat="48.801457" lon="2.161175">
        <ele>108.552203</ele>
        <time>2024-09-08T22:05:18.706Z</time>
      </trkpt>
      <trkpt lat="48.801899" lon="2.161623">
        <ele>107.464465</ele>
        <time>2024-09-08T22:05:26.919Z</time>
      </trkpt>
      <trkpt lat="48.802213" lon="2.161945">
        <ele>106.991859</ele>
        <time>2024-09-08T22:05:32.800Z</time>
      </trkpt>
      <trkpt lat="48.802234" lon="2.161967">
        <ele>106.960037</ele>
        <time>2024-09-08T22:05:33.195Z</time>
      </trkpt>
      <trkpt lat="48.803010" lon="2.162765">
        <ele>105.791047</ele>
        <time>2024-09-08T22:05:48.446Z</time>
      </trkpt>
      <trkpt lat="48.803354" lon="2.163107">
        <ele>105.553783</ele>
        <time>2024-09-08T22:05:55.817Z</time>
      </trkpt>
      <trkpt lat="48.803964" lon="2.163746">
        <ele>106.929708</ele>
        <time>2024-09-08T22:06:13.399Z</time>
      </trkpt>
      <trkpt lat="48.804151" lon="2.163943">
        <ele>107.352279</ele>
        <time>2024-09-08T22:06:19.827Z</time>
      </trkpt>
      <trkpt lat="48.804467" lon="2.164269">
        <ele>108.061580</ele>
        <time>2024-09-08T22:06:33.135Z</time>
      </trkpt>
      <trkpt lat="48.805078" lon="2.164888">
        <ele>110.802438</ele>
        <time>2024-09-08T22:07:00.202Z</time>
      </trkpt>
      <trkpt lat="48.805130" lon="2.164941">
        <ele>111.148453</ele>
        <time>2024-09-08T22:07:03.028Z</time>
      </trkpt>
      <trkpt lat="48.805157" lon="2.164948">
        <ele>111.299780</ele>
        <time>2024-09-08T22:07:04.175Z</time>
      </trkpt>
      <trkpt lat="48.805248" lon="2.164826">
        <ele>111.970473</ele>
        <time>2024-09-08T22:07:09.583Z</time>
      </trkpt>
      <trkpt lat="48.805371" lon="2.164815">
        <ele>112.651196</ele>
        <time>2024-09-08T22:07:15.154Z</time>
      </trkpt>
      <trkpt lat="48.805514" lon="2.164818">
        <ele>113.441312</ele>
        <time>2024-09-08T22:07:22.097Z</time>
      </trkpt>
      <trkpt lat="48.805625" lon="2.164818">
        <ele>114.054560</ele>
        <time>2024-09-08T22:07:27.640Z</time>
      </trkpt>
      <trkpt lat="48.805666" lon="2.164965">
        <ele>114.635433</ele>
        <time>2024-09-08T22:07:32.786Z</time>
      </trkpt>
      <trkpt lat="48.805695" lon="2.165075">
        <ele>115.066565</ele>
        <time>2024-09-08T22:07:36.915Z</time>
      </trkpt>
      <trkpt lat="48.805761" lon="2.165321">
        <ele>116.033101</ele>
        <time>2024-09-08T22:07:45.977Z</time>
      </trkpt>
      <trkpt lat="48.805777" lon="2.165375">
        <ele>116.248558</ele>
        <time>2024-09-08T22:07:48.037Z</time>
      </trkpt>
      <trkpt lat="48.805878" lon="2.165484">
        <ele>116.933152</ele>
        <time>2024-09-08T22:07:54.618Z</time>
      </trkpt>
      <trkpt lat="48.805995" lon="2.165529">
        <ele>117.599965</ele>
        <time>2024-09-08T22:08:01.090Z</time>
      </trkpt>
      <trkpt lat="48.807448" lon="2.165760">
        <ele>127.120493</ele>
        <time>2024-09-08T22:09:19.361Z</time>
      </trkpt>
      <trkpt lat="48.807569" lon="2.165648">
        <ele>128.065354</ele>
        <time>2024-09-08T22:09:27.423Z</time>
      </trkpt>
      <trkpt lat="48.809401" lon="2.164697">
        <ele>139.608130</ele>
        <time>2024-09-08T22:11:02.316Z</time>
      </trkpt>
      <trkpt lat="48.809513" lon="2.164635">
        <ele>140.297708</ele>
        <time>2024-09-08T22:11:10.254Z</time>
      </trkpt>
      <trkpt lat="48.809464" lon="2.164355">
        <ele>141.359090</ele>
        <time>2024-09-08T22:11:19.889Z</time>
      </trkpt>
      <trkpt lat="48.810238" lon="2.164261">
        <ele>145.290589</ele>
        <time>2024-09-08T22:12:02.321Z</time>
      </trkpt>
      <trkpt lat="48.810384" lon="2.164271">
        <ele>146.030581</ele>
        <time>2024-09-08T22:12:11.093Z</time>
      </trkpt>
      <trkpt lat="48.810591" lon="2.163884">
        <ele>147.693023</ele>
        <time>2024-09-08T22:12:28.587Z</time>
      </trkpt>
      <trkpt lat="48.810810" lon="2.163561">
        <ele>149.238837</ele>
        <time>2024-09-08T22:12:45.030Z</time>
      </trkpt>
      <trkpt lat="48.811073" lon="2.162974">
        <ele>151.788462</ele>
        <time>2024-09-08T22:13:15.206Z</time>
      </trkpt>
      <trkpt lat="48.811284" lon="2.162656">
        <ele>153.484634</ele>
        <time>2024-09-08T22:13:34.419Z</time>
      </trkpt>
      <trkpt lat="48.811370" lon="2.162423">
        <ele>154.488235</ele>
        <time>2024-09-08T22:13:45.448Z</time>
      </trkpt>
      <trkpt lat="48.811466" lon="2.162272">
        <ele>155.276852</ele>
        <time>2024-09-08T22:13:54.155Z</time>
      </trkpt>
      <trkpt lat="48.812154" lon="2.162059">
        <ele>159.283064</ele>
        <time>2024-09-08T22:14:35.956Z</time>
      </trkpt>
      <trkpt lat="48.812499" lon="2.161432">
        <ele>161.762829</ele>
        <time>2024-09-08T22:14:59.950Z</time>
      </trkpt>
      <trkpt lat="48.812753" lon="2.161400">
        <ele>162.770353</ele>
        <time>2024-09-08T22:15:11.058Z</time>
      </trkpt>
      <trkpt lat="48.812933" lon="2.160910">
        <ele>164.230946</ele>
        <time>2024-09-08T22:15:26.933Z</time>
      </trkpt>
      <trkpt lat="48.813190" lon="2.160349">
        <ele>166.009934</ele>
        <time>2024-09-08T22:15:43.711Z</time>
      </trkpt>
      <trkpt lat="48.813193" lon="2.160343">
        <ele>166.029545</ele>
        <time>2024-09-08T22:15:43.865Z</time>
      </trkpt>
      <trkpt lat="48.813667" lon="2.159539">
        <ele>168.098242</ele>
        <time>2024-09-08T22:16:05.329Z</time>
      </trkpt>
      <trkpt lat="48.813873" lon="2.158847">
        <ele>168.946514</ele>
        <time>2024-09-08T22:16:18.627Z</time>
      </trkpt>
      <trkpt lat="48.813898" lon="2.158754">
        <ele>169.058717</ele>
        <time>2024-09-08T22:16:20.514Z</time>
      </trkpt>
      <trkpt lat="48.814473" lon="2.157661">
        <ele>170.609897</ele>
        <time>2024-09-08T22:16:44.891Z</time>
      </trkpt>
      <trkpt lat="48.814538" lon="2.157538">
        <ele>170.715751</ele>
        <time>2024-09-08T22:16:47.837Z</time>
      </trkpt>
      <trkpt lat="48.814599" lon="2.157405">
        <ele>170.824539</ele>
        <time>2024-09-08T22:16:50.679Z</time>
      </trkpt>
      <trkpt lat="48.814633" lon="2.157339">
        <ele>170.880783</ele>
        <time>2024-09-08T22:16:51.998Z</time>
      </trkpt>
      <trkpt lat="48.814678" lon="2.157245">
        <ele>170.958786</ele>
        <time>2024-09-08T22:16:53.876Z</time>
      </trkpt>
      <trkpt lat="48.814824" lon="2.156897">
        <ele>171.235739</ele>
        <time>2024-09-08T22:17:00.504Z</time>
      </trkpt>
      <trkpt lat="48.815444" lon="2.155620">
        <ele>172.300630</ele>
        <time>2024-09-08T22:17:24.854Z</time>
      </trkpt>
      <trkpt lat="48.815810" lon="2.154950">
        <ele>172.699861</ele>
        <time>2024-09-08T22:17:38.834Z</time>
      </trkpt>
      <trkpt lat="48.816073" lon="2.154395">
        <ele>172.973738</ele>
        <time>2024-09-08T22:17:48.633Z</time>
      </trkpt>
      <trkpt lat="48.816124" lon="2.154148">
        <ele>173.077420</ele>
        <time>2024-09-08T22:17:52.163Z</time>
      </trkpt>
      <trkpt lat="48.816073" lon="2.153459">
        <ele>173.355127</ele>
        <time>2024-09-08T22:18:01.685Z</time>
      </trkpt>
      <trkpt lat="48.816118" lon="2.153184">
        <ele>173.468625</ele>
        <time>2024-09-08T22:18:05.857Z</time>
      </trkpt>
      <trkpt lat="48.816766" lon="2.152015">
        <ele>174.172218</ele>
        <time>2024-09-08T22:18:28.208Z</time>
      </trkpt>
      <trkpt lat="48.816966" lon="2.151636">
        <ele>174.398519</ele>
        <time>2024-09-08T22:18:35.582Z</time>
      </trkpt>
      <trkpt lat="48.817102" lon="2.151479">
        <ele>174.519400</ele>
        <time>2024-09-08T22:18:39.670Z</time>
      </trkpt>
      <trkpt lat="48.817527" lon="2.151293">
        <ele>174.815420</ele>
        <time>2024-09-08T22:18:49.530Z</time>
      </trkpt>
      <trkpt lat="48.817656" lon="2.151202">
        <ele>174.872969</ele>
        <time>2024-09-08T22:18:52.438Z</time>
      </trkpt>
      <trkpt lat="48.818012" lon="2.150759">
        <ele>175.059180</ele>
        <time>2024-09-08T22:19:04.647Z</time>
      </trkpt>
      <trkpt lat="48.818313" lon="2.150744">
        <ele>175.181029</ele>
        <time>2024-09-08T22:19:12.201Z</time>
      </trkpt>
      <trkpt lat="48.818809" lon="2.150683">
        <ele>175.382366</ele>
        <time>2024-09-08T22:19:22.372Z</time>
      </trkpt>
      <trkpt lat="48.818903" lon="2.150678">
        <ele>175.420421</ele>
        <time>2024-09-08T22:19:24.217Z</time>
      </trkpt>
      <trkpt lat="48.818977" lon="2.150742">
        <ele>175.454876</ele>
        <time>2024-09-08T22:19:25.692Z</time>
      </trkpt>
      <trkpt lat="48.819123" lon="2.150685">
        <ele>175.515867</ele>
        <time>2024-09-08T22:19:28.393Z</time>
      </trkpt>
      <trkpt lat="48.819156" lon="2.150560">
        <ele>175.351388</ele>
        <time>2024-09-08T22:19:30.028Z</time>
      </trkpt>
      <trkpt lat="48.819182" lon="2.150375">
        <ele>175.078530</ele>
        <time>2024-09-08T22:19:32.068Z</time>
      </trkpt>
      <trkpt lat="48.819185" lon="2.150250">
        <ele>174.898109</ele>
        <time>2024-09-08T22:19:33.430Z</time>
      </trkpt>
      <trkpt lat="48.819098" lon="2.150106">
        <ele>174.616211</ele>
        <time>2024-09-08T22:19:35.502Z</time>
      </trkpt>
      <trkpt lat="48.819106" lon="2.149985">
        <ele>174.440802</ele>
        <time>2024-09-08T22:19:36.745Z</time>
      </trkpt>
      <trkpt lat="48.819149" lon="2.149995">
        <ele>174.345505</ele>
        <time>2024-09-08T22:19:39.781Z</time>
      </trkpt>
      <trkpt lat="48.819339" lon="2.149963">
        <ele>173.926728</ele>
        <time>2024-09-08T22:19:43.100Z</time>
      </trkpt>
      <trkpt lat="48.819466" lon="2.150021">
        <ele>173.636208</ele>
        <time>2024-09-08T22:19:45.439Z</time>
      </trkpt>
      <trkpt lat="48.819655" lon="2.150301">
        <ele>173.057816</ele>
        <time>2024-09-08T22:19:49.931Z</time>
      </trkpt>
      <trkpt lat="48.820410" lon="2.150699">
        <ele>171.277905</ele>
        <time>2024-09-08T22:20:02.966Z</time>
      </trkpt>
      <trkpt lat="48.821127" lon="2.150832">
        <ele>169.526612</ele>
        <time>2024-09-08T22:20:14.678Z</time>
      </trkpt>
      <trkpt lat="48.821298" lon="2.150864">
        <ele>169.108885</ele>
        <time>2024-09-08T22:20:17.509Z</time>
      </trkpt>
      <trkpt lat="48.821681" lon="2.150830">
        <ele>168.178711</ele>
        <time>2024-09-08T22:20:24.086Z</time>
      </trkpt>
      <trkpt lat="48.823121" lon="2.150257">
        <ele>167.681235</ele>
        <time>2024-09-08T22:20:53.733Z</time>
      </trkpt>
      <trkpt lat="48.823437" lon="2.150098">
        <ele>167.821882</ele>
        <time>2024-09-08T22:21:04.418Z</time>
      </trkpt>
      <trkpt lat="48.824127" lon="2.149751">
        <ele>168.378443</ele>
        <time>2024-09-08T22:21:27.408Z</time>
      </trkpt>
      <trkpt lat="48.824692" lon="2.149536">
        <ele>169.034964</ele>
        <time>2024-09-08T22:21:45.685Z</time>
      </trkpt>
      <trkpt lat="48.825076" lon="2.149400">
        <ele>169.479401</ele>
        <time>2024-09-08T22:21:56.051Z</time>
      </trkpt>
      <trkpt lat="48.825947" lon="2.149045">
        <ele>169.297634</ele>
        <time>2024-09-08T22:22:15.298Z</time>
      </trkpt>
      <trkpt lat="48.827213" lon="2.148431">
        <ele>167.126080</ele>
        <time>2024-09-08T22:22:38.082Z</time>
      </trkpt>
      <trkpt lat="48.827386" lon="2.148219">
        <ele>166.846630</ele>
        <time>2024-09-08T22:22:41.829Z</time>
      </trkpt>
      <trkpt lat="48.828156" lon="2.146998">
        <ele>165.527512</ele>
        <time>2024-09-08T22:23:01.696Z</time>
      </trkpt>
      <trkpt lat="48.829261" lon="2.145093">
        <ele>165.646702</ele>
        <time>2024-09-08T22:23:41.631Z</time>
      </trkpt>
      <trkpt lat="48.830238" lon="2.143509">
        <ele>167.165907</ele>
        <time>2024-09-08T22:24:19.466Z</time>
      </trkpt>
      <trkpt lat="48.830609" lon="2.142806">
        <ele>168.008026</ele>
        <time>2024-09-08T22:24:37.266Z</time>
      </trkpt>
      <trkpt lat="48.830653" lon="2.142699">
        <ele>168.125939</ele>
        <time>2024-09-08T22:24:39.779Z</time>
      </trkpt>
      <trkpt lat="48.830714" lon="2.142552">
        <ele>168.288348</ele>
        <time>2024-09-08T22:24:42.897Z</time>
      </trkpt>
      <trkpt lat="48.830896" lon="2.142323">
        <ele>168.638623</ele>
        <time>2024-09-08T22:24:53.165Z</time>
      </trkpt>
      <trkpt lat="48.830678" lon="2.142293">
        <ele>169.053445</ele>
        <time>2024-09-08T22:24:58.872Z</time>
      </trkpt>
      <trkpt lat="48.830896" lon="2.142323">
        <ele>169.468267</ele>
        <time>2024-09-08T22:25:05.173Z</time>
      </trkpt>
      <trkpt lat="48.830987" lon="2.142339">
        <ele>169.641871</ele>
        <time>2024-09-08T22:25:07.254Z</time>
      </trkpt>
      <trkpt lat="48.831112" lon="2.142376">
        <ele>169.883213</ele>
        <time>2024-09-08T22:25:11.279Z</time>
      </trkpt>
      <trkpt lat="48.831425" lon="2.142467">
        <ele>170.487142</ele>
        <time>2024-09-08T22:25:19.602Z</time>
      </trkpt>
      <trkpt lat="48.831505" lon="2.142495">
        <ele>170.642722</ele>
        <time>2024-09-08T22:25:22.023Z</time>
      </trkpt>
      <trkpt lat="48.831942" lon="2.142612">
        <ele>171.483640</ele>
        <time>2024-09-08T22:25:34.785Z</time>
      </trkpt>
      <trkpt lat="48.832858" lon="2.142818">
        <ele>172.765612</ele>
        <time>2024-09-08T22:26:03.977Z</time>
      </trkpt>
      <trkpt lat="48.833039" lon="2.142841">
        <ele>172.979617</ele>
        <time>2024-09-08T22:26:08.336Z</time>
      </trkpt>
      <trkpt lat="48.833572" lon="2.142881">
        <ele>173.608384</ele>
        <time>2024-09-08T22:26:19.962Z</time>
      </trkpt>
      <trkpt lat="48.833787" lon="2.142903">
        <ele>173.862279</ele>
        <time>2024-09-08T22:26:24.474Z</time>
      </trkpt>
      <trkpt lat="48.833887" lon="2.142914">
        <ele>173.980412</ele>
        <time>2024-09-08T22:26:26.574Z</time>
      </trkpt>
      <trkpt lat="48.834260" lon="2.142191">
        <ele>173.881855</ele>
        <time>2024-09-08T22:26:38.879Z</time>
      </trkpt>
      <trkpt lat="48.834486" lon="2.141892">
        <ele>173.745611</ele>
        <time>2024-09-08T22:26:44.794Z</time>
      </trkpt>
      <trkpt lat="48.835847" lon="2.140121">
        <ele>171.867351</ele>
        <time>2024-09-08T22:27:15.046Z</time>
      </trkpt>
      <trkpt lat="48.836085" lon="2.139997">
        <ele>171.414099</ele>
        <time>2024-09-08T22:27:18.976Z</time>
      </trkpt>
      <trkpt lat="48.836153" lon="2.139983">
        <ele>171.290482</ele>
        <time>2024-09-08T22:27:20.050Z</time>
      </trkpt>
      <trkpt lat="48.836286" lon="2.139956">
        <ele>171.048761</ele>
        <time>2024-09-08T22:27:22.125Z</time>
      </trkpt>
      <trkpt lat="48.836349" lon="2.139942">
        <ele>170.934063</ele>
        <time>2024-09-08T22:27:23.080Z</time>
      </trkpt>
      <trkpt lat="48.836450" lon="2.139912">
        <ele>170.748674</ele>
        <time>2024-09-08T22:27:24.642Z</time>
      </trkpt>
      <trkpt lat="48.836499" lon="2.139850">
        <ele>170.633800</ele>
        <time>2024-09-08T22:27:25.600Z</time>
      </trkpt>
      <trkpt lat="48.836514" lon="2.139761">
        <ele>170.524866</ele>
        <time>2024-09-08T22:27:26.532Z</time>
      </trkpt>
      <trkpt lat="48.836896" lon="2.139498">
        <ele>169.551069</ele>
        <time>2024-09-08T22:27:32.681Z</time>
      </trkpt>
      <trkpt lat="48.837164" lon="2.139512">
        <ele>168.692012</ele>
        <time>2024-09-08T22:27:36.525Z</time>
      </trkpt>
      <trkpt lat="48.837871" lon="2.139655">
        <ele>166.407121</ele>
        <time>2024-09-08T22:27:46.534Z</time>
      </trkpt>
      <trkpt lat="48.838891" lon="2.139861">
        <ele>163.743387</ele>
        <time>2024-09-08T22:28:01.434Z</time>
      </trkpt>
      <trkpt lat="48.838841" lon="2.140489">
        <ele>163.126485</ele>
        <time>2024-09-08T22:28:12.698Z</time>
      </trkpt>
      <trkpt lat="48.838700" lon="2.140988">
        <ele>162.596900</ele>
        <time>2024-09-08T22:28:22.737Z</time>
      </trkpt>
      <trkpt lat="48.838633" lon="2.141406">
        <ele>162.177344</ele>
        <time>2024-09-08T22:28:31.208Z</time>
      </trkpt>
      <trkpt lat="48.838621" lon="2.141866">
        <ele>161.728389</ele>
        <time>2024-09-08T22:28:40.738Z</time>
      </trkpt>
      <trkpt lat="48.838500" lon="2.142501">
        <ele>161.672568</ele>
        <time>2024-09-08T22:28:55.884Z</time>
      </trkpt>
      <trkpt lat="48.838375" lon="2.143164">
        <ele>161.734739</ele>
        <time>2024-09-08T22:29:12.401Z</time>
      </trkpt>
      <trkpt lat="48.838269" lon="2.143766">
        <ele>161.790915</ele>
        <time>2024-09-08T22:29:25.966Z</time>
      </trkpt>
      <trkpt lat="48.838204" lon="2.144861">
        <ele>161.954829</ele>
        <time>2024-09-08T22:29:47.803Z</time>
      </trkpt>
      <trkpt lat="48.838572" lon="2.145219">
        <ele>162.199888</ele>
        <time>2024-09-08T22:29:57.216Z</time>
      </trkpt>
      <trkpt lat="48.839239" lon="2.144904">
        <ele>162.591601</ele>
        <time>2024-09-08T22:30:14.953Z</time>
      </trkpt>
      <trkpt lat="48.839696" lon="2.144703">
        <ele>162.858414</ele>
        <time>2024-09-08T22:30:26.952Z</time>
      </trkpt>
      <trkpt lat="48.840341" lon="2.145358">
        <ele>164.489350</ele>
        <time>2024-09-08T22:30:57.419Z</time>
      </trkpt>
      <trkpt lat="48.840752" lon="2.145686">
        <ele>165.498653</ele>
        <time>2024-09-08T22:31:18.696Z</time>
      </trkpt>
      <trkpt lat="48.840769" lon="2.145807">
        <ele>165.675690</ele>
        <time>2024-09-08T22:31:22.536Z</time>
      </trkpt>
      <trkpt lat="48.840876" lon="2.145811">
        <ele>165.908386</ele>
        <time>2024-09-08T22:31:26.047Z</time>
      </trkpt>
      <trkpt lat="48.841796" lon="2.145715">
        <ele>167.731430</ele>
        <time>2024-09-08T22:31:56.823Z</time>
      </trkpt>
      <trkpt lat="48.842342" lon="2.145674">
        <ele>168.727859</ele>
        <time>2024-09-08T22:32:12.229Z</time>
      </trkpt>
      <trkpt lat="48.842489" lon="2.145676">
        <ele>168.995812</ele>
        <time>2024-09-08T22:32:16.353Z</time>
      </trkpt>
      <trkpt lat="48.842876" lon="2.145893">
        <ele>169.747710</ele>
        <time>2024-09-08T22:32:27.089Z</time>
      </trkpt>
      <trkpt lat="48.843216" lon="2.146135">
        <ele>170.004347</ele>
        <time>2024-09-08T22:32:35.671Z</time>
      </trkpt>
      <trkpt lat="48.843978" lon="2.146711">
        <ele>169.739999</ele>
        <time>2024-09-08T22:32:52.856Z</time>
      </trkpt>
      <trkpt lat="48.844453" lon="2.147016">
        <ele>169.579831</ele>
        <time>2024-09-08T22:33:01.514Z</time>
      </trkpt>
      <trkpt lat="48.845274" lon="2.147623">
        <ele>168.335325</ele>
        <time>2024-09-08T22:33:15.853Z</time>
      </trkpt>
      <trkpt lat="48.845834" lon="2.148031">
        <ele>167.266918</ele>
        <time>2024-09-08T22:33:25.446Z</time>
      </trkpt>
      <trkpt lat="48.845994" lon="2.148162">
        <ele>166.954249</ele>
        <time>2024-09-08T22:33:28.358Z</time>
      </trkpt>
      <trkpt lat="48.846353" lon="2.148412">
        <ele>166.364276</ele>
        <time>2024-09-08T22:33:34.734Z</time>
      </trkpt>
      <trkpt lat="48.846675" lon="2.148636">
        <ele>166.147466</ele>
        <time>2024-09-08T22:33:40.509Z</time>
      </trkpt>
      <trkpt lat="48.846905" lon="2.148810">
        <ele>165.990170</ele>
        <time>2024-09-08T22:33:44.820Z</time>
      </trkpt>
      <trkpt lat="48.846999" lon="2.148872">
        <ele>165.927434</ele>
        <time>2024-09-08T22:33:46.609Z</time>
      </trkpt>
      <trkpt lat="48.847022" lon="2.148972">
        <ele>165.884756</ele>
        <time>2024-09-08T22:33:47.869Z</time>
      </trkpt>
      <trkpt lat="48.847420" lon="2.149476">
        <ele>165.567577</ele>
        <time>2024-09-08T22:33:57.584Z</time>
      </trkpt>
      <trkpt lat="48.847606" lon="2.149769">
        <ele>165.403560</ele>
        <time>2024-09-08T22:34:02.745Z</time>
      </trkpt>
      <trkpt lat="48.847750" lon="2.150025">
        <ele>165.307985</ele>
        <time>2024-09-08T22:34:06.914Z</time>
      </trkpt>
      <trkpt lat="48.847878" lon="2.150353">
        <ele>165.292439</ele>
        <time>2024-09-08T22:34:11.714Z</time>
      </trkpt>
      <trkpt lat="48.847978" lon="2.150726">
        <ele>165.276019</ele>
        <time>2024-09-08T22:34:16.856Z</time>
      </trkpt>
      <trkpt lat="48.847997" lon="2.150980">
        <ele>165.265598</ele>
        <time>2024-09-08T22:34:20.132Z</time>
      </trkpt>
      <trkpt lat="48.848021" lon="2.151264">
        <ele>165.253925</ele>
        <time>2024-09-08T22:34:23.764Z</time>
      </trkpt>
      <trkpt lat="48.848193" lon="2.151903">
        <ele>165.225780</ele>
        <time>2024-09-08T22:34:32.539Z</time>
      </trkpt>
      <trkpt lat="48.848348" lon="2.152432">
        <ele>165.202173</ele>
        <time>2024-09-08T22:34:39.807Z</time>
      </trkpt>
      <trkpt lat="48.848600" lon="2.152710">
        <ele>164.965088</ele>
        <time>2024-09-08T22:34:45.598Z</time>
      </trkpt>
      <trkpt lat="48.848723" lon="2.152918">
        <ele>164.817206</ele>
        <time>2024-09-08T22:34:48.908Z</time>
      </trkpt>
      <trkpt lat="48.848835" lon="2.153001">
        <ele>164.717069</ele>
        <time>2024-09-08T22:34:51.079Z</time>
      </trkpt>
      <trkpt lat="48.848957" lon="2.153190">
        <ele>164.577065</ele>
        <time>2024-09-08T22:34:54.045Z</time>
      </trkpt>
      <trkpt lat="48.850900" lon="2.156188">
        <ele>161.608613</ele>
        <time>2024-09-08T22:35:40.241Z</time>
      </trkpt>
      <trkpt lat="48.850932" lon="2.156238">
        <ele>161.552201</ele>
        <time>2024-09-08T22:35:40.993Z</time>
      </trkpt>
      <trkpt lat="48.851004" lon="2.156349">
        <ele>161.134747</ele>
        <time>2024-09-08T22:35:42.662Z</time>
      </trkpt>
      <trkpt lat="48.851036" lon="2.156396">
        <ele>160.945849</ele>
        <time>2024-09-08T22:35:43.387Z</time>
      </trkpt>
      <trkpt lat="48.851054" lon="2.156423">
        <ele>160.838496</ele>
        <time>2024-09-08T22:35:43.782Z</time>
      </trkpt>
      <trkpt lat="48.851097" lon="2.156485">
        <ele>160.586898</ele>
        <time>2024-09-08T22:35:44.716Z</time>
      </trkpt>
      <trkpt lat="48.851315" lon="2.156815">
        <ele>159.280836</ele>
        <time>2024-09-08T22:35:49.475Z</time>
      </trkpt>
      <trkpt lat="48.851463" lon="2.157080">
        <ele>158.310020</ele>
        <time>2024-09-08T22:35:55.460Z</time>
      </trkpt>
      <trkpt lat="48.851882" lon="2.158066">
        <ele>155.031719</ele>
        <time>2024-09-08T22:36:14.130Z</time>
      </trkpt>
      <trkpt lat="48.851980" lon="2.158288">
        <ele>154.285060</ele>
        <time>2024-09-08T22:36:18.147Z</time>
      </trkpt>
      <trkpt lat="48.852060" lon="2.158468">
        <ele>153.435331</ele>
        <time>2024-09-08T22:36:21.367Z</time>
      </trkpt>
      <trkpt lat="48.852155" lon="2.158683">
        <ele>151.953877</ele>
        <time>2024-09-08T22:36:25.164Z</time>
      </trkpt>
      <trkpt lat="48.852677" lon="2.159498">
        <ele>145.447815</ele>
        <time>2024-09-08T22:36:41.581Z</time>
      </trkpt>
      <trkpt lat="48.852921" lon="2.159831">
        <ele>142.596831</ele>
        <time>2024-09-08T22:36:48.715Z</time>
      </trkpt>
      <trkpt lat="48.852967" lon="2.160193">
        <ele>140.487821</ele>
        <time>2024-09-08T22:36:53.929Z</time>
      </trkpt>
      <trkpt lat="48.852960" lon="2.160459">
        <ele>138.965006</ele>
        <time>2024-09-08T22:36:57.694Z</time>
      </trkpt>
      <trkpt lat="48.853049" lon="2.160701">
        <ele>137.545133</ele>
        <time>2024-09-08T22:37:01.614Z</time>
      </trkpt>
      <trkpt lat="48.853238" lon="2.161081">
        <ele>135.325924</ele>
        <time>2024-09-08T22:37:08.444Z</time>
      </trkpt>
      <trkpt lat="48.853238" lon="2.161081">
        <ele>135.325924</ele>
        <time>2024-09-08T22:37:08.456Z</time>
      </trkpt>
      <trkpt lat="48.853355" lon="2.161015">
        <ele>134.442298</ele>
        <time>2024-09-08T22:37:13.807Z</time>
      </trkpt>
      <trkpt lat="48.853406" lon="2.161417">
        <ele>132.534969</ele>
        <time>2024-09-08T22:37:25.355Z</time>
      </trkpt>
      <trkpt lat="48.853891" lon="2.162278">
        <ele>127.254636</ele>
        <time>2024-09-08T22:37:34.954Z</time>
      </trkpt>
      <trkpt lat="48.854081" lon="2.162478">
        <ele>125.618206</ele>
        <time>2024-09-08T22:37:38.066Z</time>
      </trkpt>
      <trkpt lat="48.854399" lon="2.162634">
        <ele>124.125797</ele>
        <time>2024-09-08T22:37:42.636Z</time>
      </trkpt>
      <trkpt lat="48.855054" lon="2.162899">
        <ele>121.160212</ele>
        <time>2024-09-08T22:37:51.946Z</time>
      </trkpt>
      <trkpt lat="48.855054" lon="2.162899">
        <ele>121.160212</ele>
        <time>2024-09-08T22:37:51.946Z</time>
      </trkpt>
      <trkpt lat="48.855330" lon="2.163213">
        <ele>119.651801</ele>
        <time>2024-09-08T22:37:56.710Z</time>
      </trkpt>
      <trkpt lat="48.855722" lon="2.163558">
        <ele>117.669902</ele>
        <time>2024-09-08T22:38:02.970Z</time>
      </trkpt>
      <trkpt lat="48.856189" lon="2.163909">
        <ele>115.066896</ele>
        <time>2024-09-08T22:38:10.049Z</time>
      </trkpt>
      <trkpt lat="48.857812" lon="2.165030">
        <ele>105.961662</ele>
        <time>2024-09-08T22:38:33.603Z</time>
      </trkpt>
      <trkpt lat="48.858074" lon="2.165144">
        <ele>104.493233</ele>
        <time>2024-09-08T22:38:37.166Z</time>
      </trkpt>
      <trkpt lat="48.858530" lon="2.165165">
        <ele>102.035064</ele>
        <time>2024-09-08T22:38:43.121Z</time>
      </trkpt>
      <trkpt lat="48.859537" lon="2.165212">
        <ele>96.953827</ele>
        <time>2024-09-08T22:38:56.466Z</time>
      </trkpt>
      <trkpt lat="48.859883" lon="2.164883">
        <ele>95.075083</ele>
        <time>2024-09-08T22:39:06.448Z</time>
      </trkpt>
      <trkpt lat="48.860021" lon="2.164700">
        <ele>94.232040</ele>
        <time>2024-09-08T22:39:10.989Z</time>
      </trkpt>
      <trkpt lat="48.860080" lon="2.164637">
        <ele>93.900123</ele>
        <time>2024-09-08T22:39:12.791Z</time>
      </trkpt>
      <trkpt lat="48.860084" lon="2.164633">
        <ele>93.878082</ele>
        <time>2024-09-08T22:39:12.916Z</time>
      </trkpt>
      <trkpt lat="48.860110" lon="2.164605">
        <ele>93.731399</ele>
        <time>2024-09-08T22:39:13.726Z</time>
      </trkpt>
      <trkpt lat="48.860223" lon="2.164544">
        <ele>93.179390</ele>
        <time>2024-09-08T22:39:16.687Z</time>
      </trkpt>
      <trkpt lat="48.860248" lon="2.164521">
        <ele>93.044868</ele>
        <time>2024-09-08T22:39:17.398Z</time>
      </trkpt>
      <trkpt lat="48.860299" lon="2.164457">
        <ele>92.740425</ele>
        <time>2024-09-08T22:39:19.058Z</time>
      </trkpt>
      <trkpt lat="48.860699" lon="2.164168">
        <ele>90.700786</ele>
        <time>2024-09-08T22:39:25.112Z</time>
      </trkpt>
      <trkpt lat="48.861299" lon="2.163832">
        <ele>87.477353</ele>
        <time>2024-09-08T22:39:33.736Z</time>
      </trkpt>
      <trkpt lat="48.861451" lon="2.163788">
        <ele>86.697327</ele>
        <time>2024-09-08T22:39:35.825Z</time>
      </trkpt>
      <trkpt lat="48.861916" lon="2.163654">
        <ele>84.311439</ele>
        <time>2024-09-08T22:39:42.127Z</time>
      </trkpt>
      <trkpt lat="48.862507" lon="2.163420">
        <ele>81.123099</ele>
        <time>2024-09-08T22:39:50.156Z</time>
      </trkpt>
      <trkpt lat="48.863375" lon="2.162878">
        <ele>75.130698</ele>
        <time>2024-09-08T22:40:02.187Z</time>
      </trkpt>
      <trkpt lat="48.863901" lon="2.162590">
        <ele>71.560468</ele>
        <time>2024-09-08T22:40:09.263Z</time>
      </trkpt>
      <trkpt lat="48.863962" lon="2.162416">
        <ele>70.732186</ele>
        <time>2024-09-08T22:40:10.930Z</time>
      </trkpt>
      <trkpt lat="48.864058" lon="2.162326">
        <ele>70.002927</ele>
        <time>2024-09-08T22:40:12.559Z</time>
      </trkpt>
      <trkpt lat="48.865101" lon="2.162213">
        <ele>62.913199</ele>
        <time>2024-09-08T22:40:27.642Z</time>
      </trkpt>
      <trkpt lat="48.865929" lon="2.162098">
        <ele>57.285390</ele>
        <time>2024-09-08T22:40:39.591Z</time>
      </trkpt>
      <trkpt lat="48.866609" lon="2.162007">
        <ele>52.721785</ele>
        <time>2024-09-08T22:40:49.386Z</time>
      </trkpt>
      <trkpt lat="48.867103" lon="2.162062">
        <ele>49.410387</ele>
        <time>2024-09-08T22:40:56.501Z</time>
      </trkpt>
      <trkpt lat="48.867335" lon="2.162132">
        <ele>47.829136</ele>
        <time>2024-09-08T22:40:59.922Z</time>
      </trkpt>
      <trkpt lat="48.867816" lon="2.162482">
        <ele>44.756391</ele>
        <time>2024-09-08T22:41:07.720Z</time>
      </trkpt>
      <trkpt lat="48.868278" lon="2.162504">
        <ele>42.575086</ele>
        <time>2024-09-08T22:41:14.661Z</time>
      </trkpt>
      <trkpt lat="48.868679" lon="2.162439">
        <ele>40.671990</ele>
        <time>2024-09-08T22:41:20.887Z</time>
      </trkpt>
      <trkpt lat="48.868766" lon="2.162347">
        <ele>40.171869</ele>
        <time>2024-09-08T22:41:22.566Z</time>
      </trkpt>
      <trkpt lat="48.868795" lon="2.162308">
        <ele>39.989152</ele>
        <time>2024-09-08T22:41:23.175Z</time>
      </trkpt>
      <trkpt lat="48.868904" lon="2.162079">
        <ele>39.111709</ele>
        <time>2024-09-08T22:41:26.145Z</time>
      </trkpt>
      <trkpt lat="48.869179" lon="2.159988">
        <ele>33.732640</ele>
        <time>2024-09-08T22:41:48.579Z</time>
      </trkpt>
      <trkpt lat="48.869192" lon="2.159644">
        <ele>32.930627</ele>
        <time>2024-09-08T22:41:52.246Z</time>
      </trkpt>
      <trkpt lat="48.869166" lon="2.159213">
        <ele>31.923224</ele>
        <time>2024-09-08T22:41:56.829Z</time>
      </trkpt>
      <trkpt lat="48.869193" lon="2.159200">
        <ele>31.823006</ele>
        <time>2024-09-08T22:41:57.301Z</time>
      </trkpt>
      <trkpt lat="48.869318" lon="2.159118">
        <ele>31.341264</ele>
        <time>2024-09-08T22:41:59.535Z</time>
      </trkpt>
      <trkpt lat="48.869333" lon="2.158925">
        <ele>30.919865</ele>
        <time>2024-09-08T22:42:01.577Z</time>
      </trkpt>
      <trkpt lat="48.869412" lon="2.158698">
        <ele>30.416316</ele>
        <time>2024-09-08T22:42:04.358Z</time>
      </trkpt>
      <trkpt lat="48.869501" lon="2.158595">
        <ele>30.082894</ele>
        <time>2024-09-08T22:42:06.146Z</time>
      </trkpt>
      <trkpt lat="48.869689" lon="2.158550">
        <ele>29.515585</ele>
        <time>2024-09-08T22:42:09.202Z</time>
      </trkpt>
      <trkpt lat="48.869870" lon="2.158670">
        <ele>28.926974</ele>
        <time>2024-09-08T22:42:12.386Z</time>
      </trkpt>
      <trkpt lat="48.870059" lon="2.159034">
        <ele>28.017699</ele>
        <time>2024-09-08T22:42:17.301Z</time>
      </trkpt>
      <trkpt lat="48.870097" lon="2.159079">
        <ele>27.874117</ele>
        <time>2024-09-08T22:42:18.223Z</time>
      </trkpt>
      <trkpt lat="48.870392" lon="2.159293">
        <ele>26.899780</ele>
        <time>2024-09-08T22:42:26.672Z</time>
      </trkpt>
      <trkpt lat="48.870611" lon="2.159335">
        <ele>26.241794</ele>
        <time>2024-09-08T22:42:32.515Z</time>
      </trkpt>
      <trkpt lat="48.870816" lon="2.159290">
        <ele>25.712625</ele>
        <time>2024-09-08T22:42:38.143Z</time>
      </trkpt>
      <trkpt lat="48.870939" lon="2.159211">
        <ele>25.668035</ele>
        <time>2024-09-08T22:42:41.859Z</time>
      </trkpt>
      <trkpt lat="48.871194" lon="2.158921">
        <ele>25.561690</ele>
        <time>2024-09-08T22:42:51.396Z</time>
      </trkpt>
      <trkpt lat="48.871714" lon="2.158350">
        <ele>25.347480</ele>
        <time>2024-09-08T22:43:05.359Z</time>
      </trkpt>
      <trkpt lat="48.871871" lon="2.158229">
        <ele>25.288698</ele>
        <time>2024-09-08T22:43:09.395Z</time>
      </trkpt>
      <trkpt lat="48.872152" lon="2.158096">
        <ele>25.190417</ele>
        <time>2024-09-08T22:43:16.230Z</time>
      </trkpt>
      <trkpt lat="48.872481" lon="2.157930">
        <ele>25.173294</ele>
        <time>2024-09-08T22:43:24.290Z</time>
      </trkpt>
      <trkpt lat="48.872618" lon="2.157898">
        <ele>25.221238</ele>
        <time>2024-09-08T22:43:27.645Z</time>
      </trkpt>
      <trkpt lat="48.872722" lon="2.157793">
        <ele>25.264421</ele>
        <time>2024-09-08T22:43:30.353Z</time>
      </trkpt>
      <trkpt lat="48.872776" lon="2.157696">
        <ele>25.293333</ele>
        <time>2024-09-08T22:43:32.154Z</time>
      </trkpt>
      <trkpt lat="48.872865" lon="2.157428">
        <ele>25.361636</ele>
        <time>2024-09-08T22:43:36.972Z</time>
      </trkpt>
      <trkpt lat="48.872922" lon="2.157060">
        <ele>25.447650</ele>
        <time>2024-09-08T22:43:42.806Z</time>
      </trkpt>
      <trkpt lat="48.872911" lon="2.156689">
        <ele>25.532141</ele>
        <time>2024-09-08T22:43:48.619Z</time>
      </trkpt>
      <trkpt lat="48.872862" lon="2.156414">
        <ele>25.596961</ele>
        <time>2024-09-08T22:43:53.231Z</time>
      </trkpt>
      <trkpt lat="48.872889" lon="2.156003">
        <ele>25.690932</ele>
        <time>2024-09-08T22:43:59.391Z</time>
      </trkpt>
      <trkpt lat="48.872827" lon="2.155957">
        <ele>25.714795</ele>
        <time>2024-09-08T22:44:01.028Z</time>
      </trkpt>
      <trkpt lat="48.872794" lon="2.155864">
        <ele>25.738836</ele>
        <time>2024-09-08T22:44:02.624Z</time>
      </trkpt>
      <trkpt lat="48.872805" lon="2.155760">
        <ele>25.728640</ele>
        <time>2024-09-08T22:44:04.149Z</time>
      </trkpt>
      <trkpt lat="48.872886" lon="2.155668">
        <ele>25.695517</ele>
        <time>2024-09-08T22:44:06.434Z</time>
      </trkpt>
      <trkpt lat="48.872771" lon="2.155504">
        <ele>25.643864</ele>
        <time>2024-09-08T22:44:09.921Z</time>
      </trkpt>
      <trkpt lat="48.872547" lon="2.155379">
        <ele>25.565694</ele>
        <time>2024-09-08T22:44:14.863Z</time>
      </trkpt>
      <trkpt lat="48.872323" lon="2.155197">
        <ele>25.482489</ele>
        <time>2024-09-08T22:44:20.952Z</time>
      </trkpt>
      <trkpt lat="48.871882" lon="2.154692">
        <ele>25.301621</ele>
        <time>2024-09-08T22:44:34.105Z</time>
      </trkpt>
      <trkpt lat="48.871781" lon="2.154491">
        <ele>25.247117</ele>
        <time>2024-09-08T22:44:38.014Z</time>
      </trkpt>
      <trkpt lat="48.871744" lon="2.154393">
        <ele>25.222769</ele>
        <time>2024-09-08T22:44:39.774Z</time>
      </trkpt>
      <trkpt lat="48.871746" lon="2.154233">
        <ele>25.188286</ele>
        <time>2024-09-08T22:44:42.230Z</time>
      </trkpt>
      <trkpt lat="48.871827" lon="2.154047">
        <ele>25.135016</ele>
        <time>2024-09-08T22:44:45.760Z</time>
      </trkpt>
      <trkpt lat="48.871966" lon="2.153860">
        <ele>25.054187</ele>
        <time>2024-09-08T22:44:50.188Z</time>
      </trkpt>
      <trkpt lat="48.872338" lon="2.153496">
        <ele>24.861535</ele>
        <time>2024-09-08T22:45:00.786Z</time>
      </trkpt>
      <trkpt lat="48.872583" lon="2.153084">
        <ele>24.702443</ele>
        <time>2024-09-08T22:45:09.630Z</time>
      </trkpt>
      <trkpt lat="48.872831" lon="2.153289">
        <ele>24.579513</ele>
        <time>2024-09-08T22:45:14.755Z</time>
      </trkpt>
      <trkpt lat="48.874316" lon="2.154337">
        <ele>24.179221</ele>
        <time>2024-09-08T22:45:44.736Z</time>
      </trkpt>
      <trkpt lat="48.875002" lon="2.154814">
        <ele>24.118489</ele>
        <time>2024-09-08T22:45:59.023Z</time>
      </trkpt>
      <trkpt lat="48.876346" lon="2.155861">
        <ele>24.696698</ele>
        <time>2024-09-08T22:46:30.964Z</time>
      </trkpt>
      <trkpt lat="48.876842" lon="2.156208">
        <ele>24.934983</ele>
        <time>2024-09-08T22:46:43.490Z</time>
      </trkpt>
      <trkpt lat="48.876880" lon="2.156235">
        <ele>24.954309</ele>
        <time>2024-09-08T22:46:44.391Z</time>
      </trkpt>
      <trkpt lat="48.877690" lon="2.156801">
        <ele>25.365030</ele>
        <time>2024-09-08T22:47:04.517Z</time>
      </trkpt>
      <trkpt lat="48.879908" lon="2.158316">
        <ele>25.649016</ele>
        <time>2024-09-08T22:47:51.614Z</time>
      </trkpt>
      <trkpt lat="48.880263" lon="2.158822">
        <ele>25.614875</ele>
        <time>2024-09-08T22:48:00.680Z</time>
      </trkpt>
      <trkpt lat="48.880472" lon="2.159277">
        <ele>25.589266</ele>
        <time>2024-09-08T22:48:07.631Z</time>
      </trkpt>
      <trkpt lat="48.881012" lon="2.160901">
        <ele>25.476869</ele>
        <time>2024-09-08T22:48:30.334Z</time>
      </trkpt>
      <trkpt lat="48.880992" lon="2.161041">
        <ele>25.463441</ele>
        <time>2024-09-08T22:48:33.401Z</time>
      </trkpt>
      <trkpt lat="48.881009" lon="2.161095">
        <ele>25.457829</ele>
        <time>2024-09-08T22:48:34.127Z</time>
      </trkpt>
      <trkpt lat="48.881304" lon="2.162021">
        <ele>25.361384</ele>
        <time>2024-09-08T22:48:46.690Z</time>
      </trkpt>
      <trkpt lat="48.881348" lon="2.162175">
        <ele>25.345646</ele>
        <time>2024-09-08T22:48:48.695Z</time>
      </trkpt>
      <trkpt lat="48.881444" lon="2.162325">
        <ele>25.326027</ele>
        <time>2024-09-08T22:48:51.258Z</time>
      </trkpt>
      <trkpt lat="48.881511" lon="2.162432">
        <ele>25.312178</ele>
        <time>2024-09-08T22:48:53.208Z</time>
      </trkpt>
      <trkpt lat="48.882037" lon="2.163231">
        <ele>25.168084</ele>
        <time>2024-09-08T22:49:07.220Z</time>
      </trkpt>
      <trkpt lat="48.882289" lon="2.163537">
        <ele>25.097186</ele>
        <time>2024-09-08T22:49:13.167Z</time>
      </trkpt>
      <trkpt lat="48.882309" lon="2.163556">
        <ele>25.092002</ele>
        <time>2024-09-08T22:49:13.605Z</time>
      </trkpt>
      <trkpt lat="48.882366" lon="2.163612">
        <ele>25.077082</ele>
        <time>2024-09-08T22:49:14.821Z</time>
      </trkpt>
      <trkpt lat="48.882574" lon="2.163815">
        <ele>25.022746</ele>
        <time>2024-09-08T22:49:19.365Z</time>
      </trkpt>
      <trkpt lat="48.882843" lon="2.164005">
        <ele>24.957538</ele>
        <time>2024-09-08T22:49:24.928Z</time>
      </trkpt>
      <trkpt lat="48.883045" lon="2.164133">
        <ele>24.909427</ele>
        <time>2024-09-08T22:49:28.909Z</time>
      </trkpt>
      <trkpt lat="48.883429" lon="2.164294">
        <ele>24.832463</ele>
        <time>2024-09-08T22:49:36.235Z</time>
      </trkpt>
      <trkpt lat="48.884075" lon="2.164446">
        <ele>24.714500</ele>
        <time>2024-09-08T22:49:48.492Z</time>
      </trkpt>
      <trkpt lat="48.884224" lon="2.164477">
        <ele>24.687361</ele>
        <time>2024-09-08T22:49:51.473Z</time>
      </trkpt>
      <trkpt lat="48.884526" lon="2.164438">
        <ele>24.632667</ele>
        <time>2024-09-08T22:49:57.411Z</time>
      </trkpt>
      <trkpt lat="48.884879" lon="2.164338">
        <ele>24.567869</ele>
        <time>2024-09-08T22:50:04.121Z</time>
      </trkpt>
      <trkpt lat="48.885109" lon="2.164235">
        <ele>24.554204</ele>
        <time>2024-09-08T22:50:08.325Z</time>
      </trkpt>
      <trkpt lat="48.885445" lon="2.164085">
        <ele>24.549692</ele>
        <time>2024-09-08T22:50:14.542Z</time>
      </trkpt>
      <trkpt lat="48.885505" lon="2.164059">
        <ele>24.548888</ele>
        <time>2024-09-08T22:50:15.743Z</time>
      </trkpt>
      <trkpt lat="48.885554" lon="2.164039">
        <ele>24.548235</ele>
        <time>2024-09-08T22:50:16.763Z</time>
      </trkpt>
      <trkpt lat="48.885626" lon="2.163925">
        <ele>24.546896</ele>
        <time>2024-09-08T22:50:18.623Z</time>
      </trkpt>
      <trkpt lat="48.885805" lon="2.163874">
        <ele>24.544549</ele>
        <time>2024-09-08T22:50:21.777Z</time>
      </trkpt>
      <trkpt lat="48.886005" lon="2.163985">
        <ele>24.541806</ele>
        <time>2024-09-08T22:50:25.736Z</time>
      </trkpt>
      <trkpt lat="48.886457" lon="2.163890">
        <ele>24.535927</ele>
        <time>2024-09-08T22:50:34.689Z</time>
      </trkpt>
      <trkpt lat="48.887083" lon="2.163822">
        <ele>25.130244</ele>
        <time>2024-09-08T22:50:50.718Z</time>
      </trkpt>
      <trkpt lat="48.887382" lon="2.163805">
        <ele>25.551334</ele>
        <time>2024-09-08T22:50:58.358Z</time>
      </trkpt>
      <trkpt lat="48.887820" lon="2.163872">
        <ele>26.170860</ele>
        <time>2024-09-08T22:51:09.075Z</time>
      </trkpt>
      <trkpt lat="48.887847" lon="2.163963">
        <ele>26.263246</ele>
        <time>2024-09-08T22:51:11.106Z</time>
      </trkpt>
      <trkpt lat="48.887947" lon="2.163955">
        <ele>26.404175</ele>
        <time>2024-09-08T22:51:14.069Z</time>
      </trkpt>
      <trkpt lat="48.888220" lon="2.164065">
        <ele>26.801636</ele>
        <time>2024-09-08T22:51:22.825Z</time>
      </trkpt>
      <trkpt lat="48.888307" lon="2.164162">
        <ele>26.953452</ele>
        <time>2024-09-08T22:51:26.122Z</time>
      </trkpt>
      <trkpt lat="48.888465" lon="2.164208">
        <ele>27.133172</ele>
        <time>2024-09-08T22:51:30.696Z</time>
      </trkpt>
      <trkpt lat="48.889110" lon="2.164735">
        <ele>27.746203</ele>
        <time>2024-09-08T22:51:50.525Z</time>
      </trkpt>
      <trkpt lat="48.889351" lon="2.164981">
        <ele>27.989216</ele>
        <time>2024-09-08T22:51:57.476Z</time>
      </trkpt>
      <trkpt lat="48.889554" lon="2.165100">
        <ele>28.171368</ele>
        <time>2024-09-08T22:52:02.038Z</time>
      </trkpt>
      <trkpt lat="48.889869" lon="2.165243">
        <ele>28.446603</ele>
        <time>2024-09-08T22:52:08.209Z</time>
      </trkpt>
      <trkpt lat="48.890035" lon="2.165414">
        <ele>28.532610</ele>
        <time>2024-09-08T22:52:11.655Z</time>
      </trkpt>
      <trkpt lat="48.890062" lon="2.165451">
        <ele>28.506325</ele>
        <time>2024-09-08T22:52:12.344Z</time>
      </trkpt>
      <trkpt lat="48.890194" lon="2.165595">
        <ele>28.388834</ele>
        <time>2024-09-08T22:52:15.243Z</time>
      </trkpt>
      <trkpt lat="48.890670" lon="2.166275">
        <ele>27.916504</ele>
        <time>2024-09-08T22:52:26.710Z</time>
      </trkpt>
      <trkpt lat="48.890706" lon="2.166415">
        <ele>27.845018</ele>
        <time>2024-09-08T22:52:28.277Z</time>
      </trkpt>
      <trkpt lat="48.890699" lon="2.166534">
        <ele>27.788202</ele>
        <time>2024-09-08T22:52:29.476Z</time>
      </trkpt>
      <trkpt lat="48.890684" lon="2.166621">
        <ele>27.745430</ele>
        <time>2024-09-08T22:52:30.483Z</time>
      </trkpt>
      <trkpt lat="48.890646" lon="2.166727">
        <ele>27.688017</ele>
        <time>2024-09-08T22:52:31.973Z</time>
      </trkpt>
      <trkpt lat="48.890743" lon="2.166784">
        <ele>27.612806</ele>
        <time>2024-09-08T22:52:34.886Z</time>
      </trkpt>
      <trkpt lat="48.890881" lon="2.166753">
        <ele>27.511912</ele>
        <time>2024-09-08T22:52:38.681Z</time>
      </trkpt>
      <trkpt lat="48.891012" lon="2.166879">
        <ele>27.399808</ele>
        <time>2024-09-08T22:52:41.703Z</time>
      </trkpt>
      <trkpt lat="48.891173" lon="2.166869">
        <ele>27.283265</ele>
        <time>2024-09-08T22:52:44.550Z</time>
      </trkpt>
      <trkpt lat="48.891407" lon="2.167134">
        <ele>27.149859</ele>
        <time>2024-09-08T22:52:50.675Z</time>
      </trkpt>
      <trkpt lat="48.891489" lon="2.167031">
        <ele>27.103179</ele>
        <time>2024-09-08T22:52:52.505Z</time>
      </trkpt>
      <trkpt lat="48.891522" lon="2.167028">
        <ele>27.088669</ele>
        <time>2024-09-08T22:52:53.232Z</time>
      </trkpt>
      <trkpt lat="48.891543" lon="2.167032">
        <ele>27.079379</ele>
        <time>2024-09-08T22:52:53.753Z</time>
      </trkpt>
      <trkpt lat="48.891761" lon="2.167131">
        <ele>26.979518</ele>
        <time>2024-09-08T22:52:58.480Z</time>
      </trkpt>
      <trkpt lat="48.891961" lon="2.167340">
        <ele>26.873009</ele>
        <time>2024-09-08T22:53:03.774Z</time>
      </trkpt>
      <trkpt lat="48.892183" lon="2.167449">
        <ele>26.770615</ele>
        <time>2024-09-08T22:53:08.201Z</time>
      </trkpt>
      <trkpt lat="48.892462" lon="2.167548">
        <ele>26.644865</ele>
        <time>2024-09-08T22:53:14.148Z</time>
      </trkpt>
      <trkpt lat="48.892491" lon="2.167558">
        <ele>26.631813</ele>
        <time>2024-09-08T22:53:14.699Z</time>
      </trkpt>
      <trkpt lat="48.892814" lon="2.167673">
        <ele>26.486207</ele>
        <time>2024-09-08T22:53:21.462Z</time>
      </trkpt>
      <trkpt lat="48.893076" lon="2.167765">
        <ele>26.398460</ele>
        <time>2024-09-08T22:53:26.775Z</time>
      </trkpt>
      <trkpt lat="48.893570" lon="2.167973">
        <ele>26.234300</ele>
        <time>2024-09-08T22:53:37.320Z</time>
      </trkpt>
      <trkpt lat="48.894061" lon="2.168249">
        <ele>26.066656</ele>
        <time>2024-09-08T22:53:48.098Z</time>
      </trkpt>
      <trkpt lat="48.894132" lon="2.168290">
        <ele>26.042334</ele>
        <time>2024-09-08T22:53:50.055Z</time>
      </trkpt>
      <trkpt lat="48.894249" lon="2.168360">
        <ele>26.002069</ele>
        <time>2024-09-08T22:53:53.913Z</time>
      </trkpt>
      <trkpt lat="48.894412" lon="2.168519">
        <ele>25.940053</ele>
        <time>2024-09-08T22:53:59.703Z</time>
      </trkpt>
      <trkpt lat="48.894569" lon="2.168718">
        <ele>25.902828</ele>
        <time>2024-09-08T22:54:06.062Z</time>
      </trkpt>
      <trkpt lat="48.894727" lon="2.168918">
        <ele>25.899911</ele>
        <time>2024-09-08T22:54:12.563Z</time>
      </trkpt>
      <trkpt lat="48.895067" lon="2.169263">
        <ele>25.894110</ele>
        <time>2024-09-08T22:54:25.414Z</time>
      </trkpt>
      <trkpt lat="48.895721" lon="2.170097">
        <ele>25.881997</ele>
        <time>2024-09-08T22:54:52.726Z</time>
      </trkpt>
      <trkpt lat="48.896015" lon="2.170424">
        <ele>25.897162</ele>
        <time>2024-09-08T22:55:04.768Z</time>
      </trkpt>
      <trkpt lat="48.896485" lon="2.171066">
        <ele>25.990548</ele>
        <time>2024-09-08T22:55:25.157Z</time>
      </trkpt>
      <trkpt lat="48.896730" lon="2.171449">
        <ele>26.042484</ele>
        <time>2024-09-08T22:55:36.470Z</time>
      </trkpt>
      <trkpt lat="48.897700" lon="2.173119">
        <ele>26.372984</ele>
        <time>2024-09-08T22:56:24.808Z</time>
      </trkpt>
      <trkpt lat="48.899558" lon="2.176164">
        <ele>27.144641</ele>
        <time>2024-09-08T22:57:56.325Z</time>
      </trkpt>
      <trkpt lat="48.899926" lon="2.176941">
        <ele>26.916732</ele>
        <time>2024-09-08T22:58:16.097Z</time>
      </trkpt>
      <trkpt lat="48.900214" lon="2.177659">
        <ele>26.656832</ele>
        <time>2024-09-08T22:58:32.584Z</time>
      </trkpt>
      <trkpt lat="48.900607" lon="2.178668">
        <ele>26.297243</ele>
        <time>2024-09-08T22:58:55.589Z</time>
      </trkpt>
      <trkpt lat="48.900613" lon="2.178768">
        <ele>26.269129</ele>
        <time>2024-09-08T22:58:57.624Z</time>
      </trkpt>
      <trkpt lat="48.900670" lon="2.178948">
        <ele>26.213190</ele>
        <time>2024-09-08T22:59:01.678Z</time>
      </trkpt>
      <trkpt lat="48.900658" lon="2.179095">
        <ele>26.171717</ele>
        <time>2024-09-08T22:59:04.630Z</time>
      </trkpt>
      <trkpt lat="48.900691" lon="2.179120">
        <ele>26.156015</ele>
        <time>2024-09-08T22:59:05.716Z</time>
      </trkpt>
      <trkpt lat="48.900714" lon="2.179122">
        <ele>26.146203</ele>
        <time>2024-09-08T22:59:06.419Z</time>
      </trkpt>
      <trkpt lat="48.900734" lon="2.179124">
        <ele>26.137667</ele>
        <time>2024-09-08T22:59:07.047Z</time>
      </trkpt>
      <trkpt lat="48.900749" lon="2.179272">
        <ele>26.095740</ele>
        <time>2024-09-08T22:59:10.050Z</time>
      </trkpt>
      <trkpt lat="48.900841" lon="2.179480">
        <ele>26.025550</ele>
        <time>2024-09-08T22:59:15.027Z</time>
      </trkpt>
      <trkpt lat="48.900851" lon="2.179627">
        <ele>25.984173</ele>
        <time>2024-09-08T22:59:17.913Z</time>
      </trkpt>
      <trkpt lat="48.900866" lon="2.179626">
        <ele>25.977778</ele>
        <time>2024-09-08T22:59:18.358Z</time>
      </trkpt>
      <trkpt lat="48.900878" lon="2.179627">
        <ele>25.972660</ele>
        <time>2024-09-08T22:59:18.693Z</time>
      </trkpt>
      <trkpt lat="48.900878" lon="2.179653">
        <ele>25.965380</ele>
        <time>2024-09-08T22:59:19.218Z</time>
      </trkpt>
      <trkpt lat="48.900784" lon="2.179706">
        <ele>25.922683</ele>
        <time>2024-09-08T22:59:22.223Z</time>
      </trkpt>
      <trkpt lat="48.900690" lon="2.179818">
        <ele>25.871829</ele>
        <time>2024-09-08T22:59:25.813Z</time>
      </trkpt>
      <trkpt lat="48.900623" lon="2.179963">
        <ele>25.822207</ele>
        <time>2024-09-08T22:59:29.325Z</time>
      </trkpt>
      <trkpt lat="48.900608" lon="2.180042">
        <ele>25.799184</ele>
        <time>2024-09-08T22:59:30.967Z</time>
      </trkpt>
      <trkpt lat="48.900625" lon="2.180245">
        <ele>25.741889</ele>
        <time>2024-09-08T22:59:35.049Z</time>
      </trkpt>
      <trkpt lat="48.900799" lon="2.180816">
        <ele>25.565680</ele>
        <time>2024-09-08T22:59:47.898Z</time>
      </trkpt>
      <trkpt lat="48.900813" lon="2.180864">
        <ele>25.562864</ele>
        <time>2024-09-08T22:59:48.538Z</time>
      </trkpt>
      <trkpt lat="48.900825" lon="2.180903">
        <ele>25.570531</ele>
        <time>2024-09-08T22:59:49.067Z</time>
      </trkpt>
      <trkpt lat="48.900837" lon="2.180942">
        <ele>25.578198</ele>
        <time>2024-09-08T22:59:49.971Z</time>
      </trkpt>
      <trkpt lat="48.900931" lon="2.180909">
        <ele>25.604329</ele>
        <time>2024-09-08T22:59:53.111Z</time>
      </trkpt>
      <trkpt lat="48.901118" lon="2.180932">
        <ele>25.655147</ele>
        <time>2024-09-08T22:59:59.439Z</time>
      </trkpt>
      <trkpt lat="48.901300" lon="2.180825">
        <ele>25.707998</ele>
        <time>2024-09-08T23:00:06.118Z</time>
      </trkpt>
      <trkpt lat="48.901388" lon="2.180757">
        <ele>25.734733</ele>
        <time>2024-09-08T23:00:09.537Z</time>
      </trkpt>
      <trkpt lat="48.901404" lon="2.180807">
        <ele>25.744635</ele>
        <time>2024-09-08T23:00:10.540Z</time>
      </trkpt>
      <trkpt lat="48.901404" lon="2.180807">
        <ele>25.744635</ele>
        <time>2024-09-08T23:00:10.540Z</time>
      </trkpt>
      <trkpt lat="48.902122" lon="2.183000">
        <ele>26.108365</ele>
        <time>2024-09-08T23:00:47.713Z</time>
      </trkpt>
      <trkpt lat="48.902344" lon="2.183872">
        <ele>26.185734</ele>
        <time>2024-09-08T23:01:01.422Z</time>
      </trkpt>
      <trkpt lat="48.902455" lon="2.184374">
        <ele>26.229555</ele>
        <time>2024-09-08T23:01:08.806Z</time>
      </trkpt>
      <trkpt lat="48.902527" lon="2.184958">
        <ele>26.267387</ele>
        <time>2024-09-08T23:01:17.034Z</time>
      </trkpt>
      <trkpt lat="48.902773" lon="2.186226">
        <ele>26.196973</ele>
        <time>2024-09-08T23:01:35.201Z</time>
      </trkpt>
      <trkpt lat="48.902800" lon="2.186361">
        <ele>26.189457</ele>
        <time>2024-09-08T23:01:37.104Z</time>
      </trkpt>
      <trkpt lat="48.903053" lon="2.187647">
        <ele>26.137387</ele>
        <time>2024-09-08T23:01:56.006Z</time>
      </trkpt>
      <trkpt lat="48.903558" lon="2.189572">
        <ele>26.290815</ele>
        <time>2024-09-08T23:02:26.241Z</time>
      </trkpt>
      <trkpt lat="48.903912" lon="2.191069">
        <ele>26.447858</ele>
        <time>2024-09-08T23:02:48.956Z</time>
      </trkpt>
      <trkpt lat="48.904426" lon="2.193217">
        <ele>26.748933</ele>
        <time>2024-09-08T23:03:22.750Z</time>
      </trkpt>
      <trkpt lat="48.904510" lon="2.193462">
        <ele>26.800827</ele>
        <time>2024-09-08T23:03:26.872Z</time>
      </trkpt>
      <trkpt lat="48.904461" lon="2.193582">
        <ele>26.827357</ele>
        <time>2024-09-08T23:03:28.714Z</time>
      </trkpt>
      <trkpt lat="48.904269" lon="2.193886">
        <ele>26.906532</ele>
        <time>2024-09-08T23:03:34.481Z</time>
      </trkpt>
      <trkpt lat="48.904235" lon="2.193874">
        <ele>26.916504</ele>
        <time>2024-09-08T23:03:35.185Z</time>
      </trkpt>
      <trkpt lat="48.904187" lon="2.193840">
        <ele>26.931631</ele>
        <time>2024-09-08T23:03:36.246Z</time>
      </trkpt>
      <trkpt lat="48.904158" lon="2.193796">
        <ele>26.943333</ele>
        <time>2024-09-08T23:03:37.091Z</time>
      </trkpt>
      <trkpt lat="48.904107" lon="2.193800">
        <ele>26.957923</ele>
        <time>2024-09-08T23:03:38.171Z</time>
      </trkpt>
      <trkpt lat="48.904095" lon="2.193820">
        <ele>26.963009</ele>
        <time>2024-09-08T23:03:38.749Z</time>
      </trkpt>
      <trkpt lat="48.903761" lon="2.194362">
        <ele>27.102533</ele>
        <time>2024-09-08T23:03:55.128Z</time>
      </trkpt>
      <trkpt lat="48.903052" lon="2.195529">
        <ele>27.344911</ele>
        <time>2024-09-08T23:04:29.852Z</time>
      </trkpt>
      <trkpt lat="48.901797" lon="2.197598">
        <ele>27.645523</ele>
        <time>2024-09-08T23:05:30.121Z</time>
      </trkpt>
      <trkpt lat="48.901251" lon="2.198501">
        <ele>27.729984</ele>
        <time>2024-09-08T23:05:55.289Z</time>
      </trkpt>
      <trkpt lat="48.900878" lon="2.199118">
        <ele>28.011798</ele>
        <time>2024-09-08T23:06:13.916Z</time>
      </trkpt>
      <trkpt lat="48.900466" lon="2.199788">
        <ele>28.340918</ele>
        <time>2024-09-08T23:06:28.683Z</time>
      </trkpt>
      <trkpt lat="48.900334" lon="2.199997">
        <ele>28.444891</ele>
        <time>2024-09-08T23:06:33.071Z</time>
      </trkpt>
      <trkpt lat="48.900222" lon="2.200047">
        <ele>28.508589</ele>
        <time>2024-09-08T23:06:35.543Z</time>
      </trkpt>
      <trkpt lat="48.900177" lon="2.200080">
        <ele>28.535851</ele>
        <time>2024-09-08T23:06:36.509Z</time>
      </trkpt>
      <trkpt lat="48.900133" lon="2.200158">
        <ele>28.572723</ele>
        <time>2024-09-08T23:06:37.952Z</time>
      </trkpt>
      <trkpt lat="48.900120" lon="2.200181">
        <ele>28.583604</ele>
        <time>2024-09-08T23:06:38.384Z</time>
      </trkpt>
      <trkpt lat="48.900026" lon="2.200343">
        <ele>28.661121</ele>
        <time>2024-09-08T23:06:41.481Z</time>
      </trkpt>
      <trkpt lat="48.899748" lon="2.200781">
        <ele>28.878669</ele>
        <time>2024-09-08T23:06:55.402Z</time>
      </trkpt>
      <trkpt lat="48.899706" lon="2.200848">
        <ele>28.911705</ele>
        <time>2024-09-08T23:06:56.732Z</time>
      </trkpt>
      <trkpt lat="48.899620" lon="2.200967">
        <ele>28.974811</ele>
        <time>2024-09-08T23:06:59.471Z</time>
      </trkpt>
      <trkpt lat="48.899566" lon="2.201030">
        <ele>29.011752</ele>
        <time>2024-09-08T23:07:01.173Z</time>
      </trkpt>
      <trkpt lat="48.899619" lon="2.201107">
        <ele>29.051534</ele>
        <time>2024-09-08T23:07:02.825Z</time>
      </trkpt>
      <trkpt lat="48.899694" lon="2.201234">
        <ele>29.112454</ele>
        <time>2024-09-08T23:07:05.325Z</time>
      </trkpt>
      <trkpt lat="48.900085" lon="2.201902">
        <ele>29.431619</ele>
        <time>2024-09-08T23:07:26.434Z</time>
      </trkpt>
      <trkpt lat="48.900161" lon="2.202033">
        <ele>29.493965</ele>
        <time>2024-09-08T23:07:30.349Z</time>
      </trkpt>
      <trkpt lat="48.901081" lon="2.203459">
        <ele>29.833018</ele>
        <time>2024-09-08T23:09:01.621Z</time>
      </trkpt>
      <trkpt lat="48.901081" lon="2.203459">
        <ele>29.833018</ele>
        <time>2024-09-08T23:09:01.647Z</time>
      </trkpt>
      <trkpt lat="48.901978" lon="2.204798">
        <ele>30.218140</ele>
        <time>2024-09-08T23:10:28.974Z</time>
      </trkpt>
      <trkpt lat="48.902061" lon="2.204879">
        <ele>30.281016</ele>
        <time>2024-09-08T23:10:35.832Z</time>
      </trkpt>
      <trkpt lat="48.902152" lon="2.205010">
        <ele>30.360901</ele>
        <time>2024-09-08T23:10:38.570Z</time>
      </trkpt>
      <trkpt lat="48.902862" lon="2.206085">
        <ele>30.999622</ele>
        <time>2024-09-08T23:11:02.050Z</time>
      </trkpt>
      <trkpt lat="48.902865" lon="2.206106">
        <ele>31.008629</ele>
        <time>2024-09-08T23:11:02.369Z</time>
      </trkpt>
      <trkpt lat="48.902893" lon="2.206298">
        <ele>31.091060</ele>
        <time>2024-09-08T23:11:05.588Z</time>
      </trkpt>
      <trkpt lat="48.902913" lon="2.206331">
        <ele>31.111240</ele>
        <time>2024-09-08T23:11:06.231Z</time>
      </trkpt>
      <trkpt lat="48.902257" lon="2.207328">
        <ele>31.916717</ele>
        <time>2024-09-08T23:11:28.490Z</time>
      </trkpt>
      <trkpt lat="48.902067" lon="2.207704">
        <ele>32.187520</ele>
        <time>2024-09-08T23:11:36.032Z</time>
      </trkpt>
      <trkpt lat="48.901842" lon="2.208360">
        <ele>32.610022</ele>
        <time>2024-09-08T23:11:47.337Z</time>
      </trkpt>
      <trkpt lat="48.901520" lon="2.209440">
        <ele>32.964102</ele>
        <time>2024-09-08T23:12:04.336Z</time>
      </trkpt>
      <trkpt lat="48.901512" lon="2.209465">
        <ele>32.971688</ele>
        <time>2024-09-08T23:12:04.722Z</time>
      </trkpt>
      <trkpt lat="48.901401" lon="2.209814">
        <ele>33.077467</ele>
        <time>2024-09-08T23:12:10.130Z</time>
      </trkpt>
      <trkpt lat="48.901356" lon="2.209955">
        <ele>33.120231</ele>
        <time>2024-09-08T23:12:12.206Z</time>
      </trkpt>
      <trkpt lat="48.901292" lon="2.210190">
        <ele>33.189631</ele>
        <time>2024-09-08T23:12:15.662Z</time>
      </trkpt>
      <trkpt lat="48.901252" lon="2.210351">
        <ele>33.236590</ele>
        <time>2024-09-08T23:12:18.044Z</time>
      </trkpt>
      <trkpt lat="48.901234" lon="2.210422">
        <ele>33.257352</ele>
        <time>2024-09-08T23:12:19.010Z</time>
      </trkpt>
      <trkpt lat="48.901180" lon="2.210738">
        <ele>33.346434</ele>
        <time>2024-09-08T23:12:23.241Z</time>
      </trkpt>
      <trkpt lat="48.901194" lon="2.211462">
        <ele>33.732007</ele>
        <time>2024-09-08T23:12:32.580Z</time>
      </trkpt>
      <trkpt lat="48.901258" lon="2.212223">
        <ele>34.246205</ele>
        <time>2024-09-08T23:12:43.756Z</time>
      </trkpt>
      <trkpt lat="48.901247" lon="2.212356">
        <ele>34.336048</ele>
        <time>2024-09-08T23:12:45.870Z</time>
      </trkpt>
      <trkpt lat="48.901205" lon="2.212486">
        <ele>34.433131</ele>
        <time>2024-09-08T23:12:48.216Z</time>
      </trkpt>
      <trkpt lat="48.901008" lon="2.212749">
        <ele>34.700365</ele>
        <time>2024-09-08T23:12:55.510Z</time>
      </trkpt>
      <trkpt lat="48.900962" lon="2.212809">
        <ele>34.762145</ele>
        <time>2024-09-08T23:12:57.018Z</time>
      </trkpt>
      <trkpt lat="48.900899" lon="2.212888">
        <ele>34.845388</ele>
        <time>2024-09-08T23:12:59.300Z</time>
      </trkpt>
      <trkpt lat="48.900718" lon="2.213116">
        <ele>35.084987</ele>
        <time>2024-09-08T23:13:05.860Z</time>
      </trkpt>
      <trkpt lat="48.900692" lon="2.213147">
        <ele>35.118668</ele>
        <time>2024-09-08T23:13:06.652Z</time>
      </trkpt>
      <trkpt lat="48.900663" lon="2.213188">
        <ele>35.159033</ele>
        <time>2024-09-08T23:13:07.703Z</time>
      </trkpt>
      <trkpt lat="48.900382" lon="2.213530">
        <ele>35.904436</ele>
        <time>2024-09-08T23:13:17.309Z</time>
      </trkpt>
      <trkpt lat="48.900103" lon="2.213866">
        <ele>36.762830</ele>
        <time>2024-09-08T23:13:27.784Z</time>
      </trkpt>
      <trkpt lat="48.900037" lon="2.213992">
        <ele>37.018309</ele>
        <time>2024-09-08T23:13:30.879Z</time>
      </trkpt>
      <trkpt lat="48.899948" lon="2.214119">
        <ele>37.312673</ele>
        <time>2024-09-08T23:13:34.539Z</time>
      </trkpt>
      <trkpt lat="48.899799" lon="2.213958">
        <ele>37.753545</ele>
        <time>2024-09-08T23:13:40.725Z</time>
      </trkpt>
      <trkpt lat="48.899404" lon="2.213796">
        <ele>38.740407</ele>
        <time>2024-09-08T23:13:54.739Z</time>
      </trkpt>
      <trkpt lat="48.899180" lon="2.213775">
        <ele>39.281777</ele>
        <time>2024-09-08T23:14:02.698Z</time>
      </trkpt>
      <trkpt lat="48.899088" lon="2.213817">
        <ele>39.513482</ele>
        <time>2024-09-08T23:14:06.033Z</time>
      </trkpt>
      <trkpt lat="48.898914" lon="2.213798">
        <ele>39.958730</ele>
        <time>2024-09-08T23:14:11.956Z</time>
      </trkpt>
      <trkpt lat="48.898826" lon="2.214057">
        <ele>40.453654</ele>
        <time>2024-09-08T23:14:18.632Z</time>
      </trkpt>
      <trkpt lat="48.898857" lon="2.214065">
        <ele>40.534849</ele>
        <time>2024-09-08T23:14:19.364Z</time>
      </trkpt>
      <trkpt lat="48.898908" lon="2.214078">
        <ele>40.668382</ele>
        <time>2024-09-08T23:14:20.614Z</time>
      </trkpt>
      <trkpt lat="48.898763" lon="2.214580">
        <ele>41.599196</ele>
        <time>2024-09-08T23:14:31.479Z</time>
      </trkpt>
      <trkpt lat="48.898755" lon="2.214605">
        <ele>41.646396</ele>
        <time>2024-09-08T23:14:32.072Z</time>
      </trkpt>
      <trkpt lat="48.898747" lon="2.214637">
        <ele>41.704514</ele>
        <time>2024-09-08T23:14:32.850Z</time>
      </trkpt>
      <trkpt lat="48.898660" lon="2.214951">
        <ele>42.282963</ele>
        <time>2024-09-08T23:14:40.252Z</time>
      </trkpt>
      <trkpt lat="48.898585" lon="2.215213">
        <ele>42.768067</ele>
        <time>2024-09-08T23:14:45.709Z</time>
      </trkpt>
      <trkpt lat="48.898564" lon="2.215289">
        <ele>42.908016</ele>
        <time>2024-09-08T23:14:47.843Z</time>
      </trkpt>
      <trkpt lat="48.898494" lon="2.215517">
        <ele>43.335195</ele>
        <time>2024-09-08T23:14:52.861Z</time>
      </trkpt>
      <trkpt lat="48.898474" lon="2.215586">
        <ele>43.463208</ele>
        <time>2024-09-08T23:14:54.057Z</time>
      </trkpt>
      <trkpt lat="48.898414" lon="2.215798">
        <ele>43.855031</ele>
        <time>2024-09-08T23:14:59.995Z</time>
      </trkpt>
      <trkpt lat="48.898344" lon="2.216045">
        <ele>44.306169</ele>
        <time>2024-09-08T23:15:07.577Z</time>
      </trkpt>
      <trkpt lat="48.898330" lon="2.216095">
        <ele>44.392070</ele>
        <time>2024-09-08T23:15:08.490Z</time>
      </trkpt>
      <trkpt lat="48.898285" lon="2.216263">
        <ele>44.678811</ele>
        <time>2024-09-08T23:15:12.931Z</time>
      </trkpt>
      <trkpt lat="48.898180" lon="2.216637">
        <ele>45.321614</ele>
        <time>2024-09-08T23:15:21.001Z</time>
      </trkpt>
      <trkpt lat="48.898170" lon="2.216675">
        <ele>45.386312</ele>
        <time>2024-09-08T23:15:21.903Z</time>
      </trkpt>
      <trkpt lat="48.898157" lon="2.216733">
        <ele>45.483170</ele>
        <time>2024-09-08T23:15:23.276Z</time>
      </trkpt>
      <trkpt lat="48.898136" lon="2.216809">
        <ele>45.613477</ele>
        <time>2024-09-08T23:15:25.112Z</time>
      </trkpt>
      <trkpt lat="48.897796" lon="2.218040">
        <ele>47.723986</ele>
        <time>2024-09-08T23:15:51.229Z</time>
      </trkpt>
      <trkpt lat="48.897774" lon="2.218143">
        <ele>47.895169</ele>
        <time>2024-09-08T23:15:53.481Z</time>
      </trkpt>
      <trkpt lat="48.897803" lon="2.218216">
        <ele>48.029986</ele>
        <time>2024-09-08T23:15:55.358Z</time>
      </trkpt>
      <trkpt lat="48.897789" lon="2.218267">
        <ele>48.117345</ele>
        <time>2024-09-08T23:15:56.573Z</time>
      </trkpt>
      <trkpt lat="48.897776" lon="2.218312">
        <ele>48.195038</ele>
        <time>2024-09-08T23:15:57.610Z</time>
      </trkpt>
      <trkpt lat="48.897745" lon="2.218426">
        <ele>48.390038</ele>
        <time>2024-09-08T23:16:00.176Z</time>
      </trkpt>
      <trkpt lat="48.897731" lon="2.218475">
        <ele>48.474487</ele>
        <time>2024-09-08T23:16:01.235Z</time>
      </trkpt>
      <trkpt lat="48.897530" lon="2.219098">
        <ele>49.446144</ele>
        <time>2024-09-08T23:16:16.044Z</time>
      </trkpt>
      <trkpt lat="48.897512" lon="2.219155">
        <ele>49.533755</ele>
        <time>2024-09-08T23:16:17.447Z</time>
      </trkpt>
      <trkpt lat="48.897491" lon="2.219226">
        <ele>49.641620</ele>
        <time>2024-09-08T23:16:19.199Z</time>
      </trkpt>
      <trkpt lat="48.897483" lon="2.219251">
        <ele>49.680142</ele>
        <time>2024-09-08T23:16:19.795Z</time>
      </trkpt>
      <trkpt lat="48.897474" lon="2.219279">
        <ele>49.723324</ele>
        <time>2024-09-08T23:16:20.458Z</time>
      </trkpt>
      <trkpt lat="48.897462" lon="2.219319">
        <ele>49.784241</ele>
        <time>2024-09-08T23:16:21.439Z</time>
      </trkpt>
      <trkpt lat="48.897456" lon="2.219338">
        <ele>49.813444</ele>
        <time>2024-09-08T23:16:21.877Z</time>
      </trkpt>
      <trkpt lat="48.897450" lon="2.219356">
        <ele>49.841405</ele>
        <time>2024-09-08T23:16:22.300Z</time>
      </trkpt>
      <trkpt lat="48.897388" lon="2.219525">
        <ele>50.109541</ele>
        <time>2024-09-08T23:16:26.122Z</time>
      </trkpt>
      <trkpt lat="48.897346" lon="2.219557">
        <ele>50.208538</ele>
        <time>2024-09-08T23:16:27.676Z</time>
      </trkpt>
      <trkpt lat="48.897214" lon="2.219974">
        <ele>50.849767</ele>
        <time>2024-09-08T23:16:36.623Z</time>
      </trkpt>
      <trkpt lat="48.897149" lon="2.220181">
        <ele>51.167597</ele>
        <time>2024-09-08T23:16:41.303Z</time>
      </trkpt>
      <trkpt lat="48.897088" lon="2.220373">
        <ele>51.463045</ele>
        <time>2024-09-08T23:16:45.202Z</time>
      </trkpt>
      <trkpt lat="48.896962" lon="2.220772">
        <ele>52.076322</ele>
        <time>2024-09-08T23:16:53.147Z</time>
      </trkpt>
      <trkpt lat="48.896820" lon="2.221223">
        <ele>52.506490</ele>
        <time>2024-09-08T23:17:01.789Z</time>
      </trkpt>
      <trkpt lat="48.896685" lon="2.221651">
        <ele>52.754560</ele>
        <time>2024-09-08T23:17:09.732Z</time>
      </trkpt>
      <trkpt lat="48.896555" lon="2.222063">
        <ele>52.993374</ele>
        <time>2024-09-08T23:17:16.663Z</time>
      </trkpt>
      <trkpt lat="48.896431" lon="2.222452">
        <ele>53.219290</ele>
        <time>2024-09-08T23:17:23.072Z</time>
      </trkpt>
      <trkpt lat="48.896332" lon="2.222769">
        <ele>53.402687</ele>
        <time>2024-09-08T23:17:27.855Z</time>
      </trkpt>
      <trkpt lat="48.896162" lon="2.223308">
        <ele>53.715092</ele>
        <time>2024-09-08T23:17:35.945Z</time>
      </trkpt>
      <trkpt lat="48.896158" lon="2.223336">
        <ele>53.730066</ele>
        <time>2024-09-08T23:17:36.430Z</time>
      </trkpt>
      <trkpt lat="48.896161" lon="2.223354">
        <ele>53.739769</ele>
        <time>2024-09-08T23:17:36.739Z</time>
      </trkpt>
      <trkpt lat="48.896149" lon="2.223397">
        <ele>53.764181</ele>
        <time>2024-09-08T23:17:37.450Z</time>
      </trkpt>
      <trkpt lat="48.896145" lon="2.223410">
        <ele>53.771682</ele>
        <time>2024-09-08T23:17:37.669Z</time>
      </trkpt>
      <trkpt lat="48.896124" lon="2.223483">
        <ele>53.775129</ele>
        <time>2024-09-08T23:17:38.744Z</time>
      </trkpt>
      <trkpt lat="48.896101" lon="2.223557">
        <ele>53.772751</ele>
        <time>2024-09-08T23:17:39.844Z</time>
      </trkpt>
      <trkpt lat="48.896087" lon="2.223586">
        <ele>53.771705</ele>
        <time>2024-09-08T23:17:40.404Z</time>
      </trkpt>
      <trkpt lat="48.896078" lon="2.223604">
        <ele>53.771048</ele>
        <time>2024-09-08T23:17:40.773Z</time>
      </trkpt>
      <trkpt lat="48.896067" lon="2.223626">
        <ele>53.770245</ele>
        <time>2024-09-08T23:17:41.173Z</time>
      </trkpt>
      <trkpt lat="48.895991" lon="2.223861">
        <ele>53.762636</ele>
        <time>2024-09-08T23:17:44.816Z</time>
      </trkpt>
      <trkpt lat="48.895790" lon="2.224500">
        <ele>53.742053</ele>
        <time>2024-09-08T23:17:54.595Z</time>
      </trkpt>
      <trkpt lat="48.895665" lon="2.224886">
        <ele>53.729551</ele>
        <time>2024-09-08T23:17:59.704Z</time>
      </trkpt>
      <trkpt lat="48.895545" lon="2.225274">
        <ele>53.717092</ele>
        <time>2024-09-08T23:18:04.603Z</time>
      </trkpt>
      <trkpt lat="48.895473" lon="2.225492">
        <ele>53.710003</ele>
        <time>2024-09-08T23:18:07.331Z</time>
      </trkpt>
      <trkpt lat="48.895406" lon="2.225706">
        <ele>53.703116</ele>
        <time>2024-09-08T23:18:10.121Z</time>
      </trkpt>
      <trkpt lat="48.895244" lon="2.226224">
        <ele>53.652383</ele>
        <time>2024-09-08T23:18:17.469Z</time>
      </trkpt>
      <trkpt lat="48.895126" lon="2.226584">
        <ele>53.605140</ele>
        <time>2024-09-08T23:18:22.848Z</time>
      </trkpt>
      <trkpt lat="48.894993" lon="2.227007">
        <ele>53.550073</ele>
        <time>2024-09-08T23:18:28.504Z</time>
      </trkpt>
      <trkpt lat="48.894850" lon="2.227494">
        <ele>53.487432</ele>
        <time>2024-09-08T23:18:34.784Z</time>
      </trkpt>
      <trkpt lat="48.894848" lon="2.227547">
        <ele>53.481198</ele>
        <time>2024-09-08T23:18:35.445Z</time>
      </trkpt>
      <trkpt lat="48.894838" lon="2.227585">
        <ele>53.476390</ele>
        <time>2024-09-08T23:18:36.019Z</time>
      </trkpt>
      <trkpt lat="48.894818" lon="2.227652">
        <ele>53.467749</ele>
        <time>2024-09-08T23:18:36.835Z</time>
      </trkpt>
      <trkpt lat="48.894799" lon="2.227716">
        <ele>53.459501</ele>
        <time>2024-09-08T23:18:37.580Z</time>
      </trkpt>
      <trkpt lat="48.894786" lon="2.227761">
        <ele>53.453729</ele>
        <time>2024-09-08T23:18:38.094Z</time>
      </trkpt>
      <trkpt lat="48.894556" lon="2.227630">
        <ele>53.409856</ele>
        <time>2024-09-08T23:18:42.678Z</time>
      </trkpt>
      <trkpt lat="48.894526" lon="2.227707">
        <ele>53.399344</ele>
        <time>2024-09-08T23:18:43.632Z</time>
      </trkpt>
      <trkpt lat="48.894531" lon="2.227963">
        <ele>53.423637</ele>
        <time>2024-09-08T23:18:47.128Z</time>
      </trkpt>
      <trkpt lat="48.894686" lon="2.228702">
        <ele>54.032376</ele>
        <time>2024-09-08T23:18:58.124Z</time>
      </trkpt>
      <trkpt lat="48.894716" lon="2.228848">
        <ele>54.152418</ele>
        <time>2024-09-08T23:19:00.510Z</time>
      </trkpt>
      <trkpt lat="48.894687" lon="2.228964">
        <ele>54.249810</ele>
        <time>2024-09-08T23:19:03.364Z</time>
      </trkpt>
      <trkpt lat="48.894542" lon="2.229509">
        <ele>54.711201</ele>
        <time>2024-09-08T23:19:15.072Z</time>
      </trkpt>
      <trkpt lat="48.894438" lon="2.229727">
        <ele>54.922575</ele>
        <time>2024-09-08T23:19:19.805Z</time>
      </trkpt>
      <trkpt lat="48.894368" lon="2.229820">
        <ele>55.033517</ele>
        <time>2024-09-08T23:19:22.197Z</time>
      </trkpt>
      <trkpt lat="48.894314" lon="2.229902">
        <ele>55.124599</ele>
        <time>2024-09-08T23:19:24.977Z</time>
      </trkpt>
      <trkpt lat="48.894264" lon="2.229978">
        <ele>55.208975</ele>
        <time>2024-09-08T23:19:27.138Z</time>
      </trkpt>
      <trkpt lat="48.893937" lon="2.230977">
        <ele>56.328652</ele>
        <time>2024-09-08T23:19:50.104Z</time>
      </trkpt>
      <trkpt lat="48.893813" lon="2.231361">
        <ele>56.810242</ele>
        <time>2024-09-08T23:19:59.451Z</time>
      </trkpt>
      <trkpt lat="48.893464" lon="2.232272">
        <ele>57.997144</ele>
        <time>2024-09-08T23:20:23.005Z</time>
      </trkpt>
      <trkpt lat="48.893108" lon="2.233401">
        <ele>58.389454</ele>
        <time>2024-09-08T23:20:53.461Z</time>
      </trkpt>
      <trkpt lat="48.893023" lon="2.233583">
        <ele>58.322708</ele>
        <time>2024-09-08T23:20:58.313Z</time>
      </trkpt>
      <trkpt lat="48.892962" lon="2.233650">
        <ele>58.288491</ele>
        <time>2024-09-08T23:21:00.360Z</time>
      </trkpt>
      <trkpt lat="48.892908" lon="2.233688">
        <ele>58.261434</ele>
        <time>2024-09-08T23:21:01.901Z</time>
      </trkpt>
      <trkpt lat="48.892762" lon="2.233774">
        <ele>58.190236</ele>
        <time>2024-09-08T23:21:06.693Z</time>
      </trkpt>
      <trkpt lat="48.892665" lon="2.233817">
        <ele>58.144290</ele>
        <time>2024-09-08T23:21:09.540Z</time>
      </trkpt>
      <trkpt lat="48.892650" lon="2.233823">
        <ele>58.137237</ele>
        <time>2024-09-08T23:21:09.930Z</time>
      </trkpt>
      <trkpt lat="48.892542" lon="2.233871">
        <ele>58.086070</ele>
        <time>2024-09-08T23:21:12.350Z</time>
      </trkpt>
      <trkpt lat="48.892328" lon="2.234612">
        <ele>57.844090</ele>
        <time>2024-09-08T23:21:23.054Z</time>
      </trkpt>
      <trkpt lat="48.892005" lon="2.235740">
        <ele>56.016232</ele>
        <time>2024-09-08T23:21:38.639Z</time>
      </trkpt>
      <trkpt lat="48.891849" lon="2.236109">
        <ele>55.264831</ele>
        <time>2024-09-08T23:21:44.498Z</time>
      </trkpt>
      <trkpt lat="48.891792" lon="2.236244">
        <ele>54.990031</ele>
        <time>2024-09-08T23:21:46.565Z</time>
      </trkpt>
      <trkpt lat="48.891702" lon="2.236344">
        <ele>54.699675</ele>
        <time>2024-09-08T23:21:48.222Z</time>
      </trkpt>
      <trkpt lat="48.891586" lon="2.236721">
        <ele>53.986739</ele>
        <time>2024-09-08T23:21:52.217Z</time>
      </trkpt>
      <trkpt lat="48.891804" lon="2.236897">
        <ele>53.343784</ele>
        <time>2024-09-08T23:21:55.961Z</time>
      </trkpt>
      <trkpt lat="48.891752" lon="2.237056">
        <ele>53.153100</ele>
        <time>2024-09-08T23:21:57.875Z</time>
      </trkpt>
      <trkpt lat="48.891367" lon="2.238252">
        <ele>55.202385</ele>
        <time>2024-09-08T23:22:24.688Z</time>
      </trkpt>
      <trkpt lat="48.891071" lon="2.239168">
        <ele>56.773082</ele>
        <time>2024-09-08T23:22:58.508Z</time>
      </trkpt>
      <trkpt lat="48.890985" lon="2.239444">
        <ele>57.243107</ele>
        <time>2024-09-08T23:23:08.667Z</time>
      </trkpt>
      <trkpt lat="48.890939" lon="2.239603">
        <ele>57.391697</ele>
        <time>2024-09-08T23:23:13.757Z</time>
      </trkpt>
      <trkpt lat="48.890826" lon="2.239975">
        <ele>57.650088</ele>
        <time>2024-09-08T23:23:23.627Z</time>
      </trkpt>
      <trkpt lat="48.890713" lon="2.240347">
        <ele>57.908480</ele>
        <time>2024-09-08T23:23:32.072Z</time>
      </trkpt>
      <trkpt lat="48.890678" lon="2.240516">
        <ele>58.020206</ele>
        <time>2024-09-08T23:23:34.842Z</time>
      </trkpt>
      <trkpt lat="48.890889" lon="2.240944">
        <ele>58.357522</ele>
        <time>2024-09-08T23:23:42.366Z</time>
      </trkpt>
      <trkpt lat="48.891133" lon="2.241519">
        <ele>58.789048</ele>
        <time>2024-09-08T23:23:50.826Z</time>
      </trkpt>
      <trkpt lat="48.890787" lon="2.242734">
        <ele>57.335524</ele>
        <time>2024-09-08T23:24:04.305Z</time>
      </trkpt>
      <trkpt lat="48.890839" lon="2.242779">
        <ele>57.170249</ele>
        <time>2024-09-08T23:24:05.442Z</time>
      </trkpt>
      <trkpt lat="48.891422" lon="2.243214">
        <ele>55.376347</ele>
        <time>2024-09-08T23:24:17.711Z</time>
      </trkpt>
      <trkpt lat="48.891499" lon="2.243331">
        <ele>55.075670</ele>
        <time>2024-09-08T23:24:19.223Z</time>
      </trkpt>
      <trkpt lat="48.891520" lon="2.243363">
        <ele>54.993551</ele>
        <time>2024-09-08T23:24:19.682Z</time>
      </trkpt>
      <trkpt lat="48.891569" lon="2.243344">
        <ele>54.853859</ele>
        <time>2024-09-08T23:24:20.485Z</time>
      </trkpt>
      <trkpt lat="48.891682" lon="2.243591">
        <ele>54.307314</ele>
        <time>2024-09-08T23:24:23.595Z</time>
      </trkpt>
      <trkpt lat="48.891817" lon="2.243912">
        <ele>53.800392</ele>
        <time>2024-09-08T23:24:27.760Z</time>
      </trkpt>
      <trkpt lat="48.891903" lon="2.244119">
        <ele>53.538559</ele>
        <time>2024-09-08T23:24:30.080Z</time>
      </trkpt>
      <trkpt lat="48.891937" lon="2.244198">
        <ele>53.437595</ele>
        <time>2024-09-08T23:24:31.191Z</time>
      </trkpt>
      <trkpt lat="48.891962" lon="2.244260">
        <ele>53.359824</ele>
        <time>2024-09-08T23:24:32.284Z</time>
      </trkpt>
      <trkpt lat="48.892099" lon="2.244585">
        <ele>52.947008</ele>
        <time>2024-09-08T23:24:36.179Z</time>
      </trkpt>
      <trkpt lat="48.892145" lon="2.244695">
        <ele>52.807609</ele>
        <time>2024-09-08T23:24:37.691Z</time>
      </trkpt>
      <trkpt lat="48.892163" lon="2.244737">
        <ele>52.754000</ele>
        <time>2024-09-08T23:24:38.382Z</time>
      </trkpt>
      <trkpt lat="48.892418" lon="2.245357">
        <ele>51.972007</ele>
        <time>2024-09-08T23:24:45.959Z</time>
      </trkpt>
      <trkpt lat="48.892490" lon="2.245531">
        <ele>51.752168</ele>
        <time>2024-09-08T23:24:47.830Z</time>
      </trkpt>
      <trkpt lat="48.892575" lon="2.245746">
        <ele>51.483909</ele>
        <time>2024-09-08T23:24:50.980Z</time>
      </trkpt>
      <trkpt lat="48.892741" lon="2.246143">
        <ele>51.086626</ele>
        <time>2024-09-08T23:24:55.714Z</time>
      </trkpt>
      <trkpt lat="48.892776" lon="2.246227">
        <ele>51.050866</ele>
        <time>2024-09-08T23:24:57.060Z</time>
      </trkpt>
      <trkpt lat="48.893001" lon="2.246765">
        <ele>50.821582</ele>
        <time>2024-09-08T23:25:06.897Z</time>
      </trkpt>
      <trkpt lat="48.893037" lon="2.246853">
        <ele>50.784312</ele>
        <time>2024-09-08T23:25:08.200Z</time>
      </trkpt>
      <trkpt lat="48.893704" lon="2.248449">
        <ele>50.064798</ele>
        <time>2024-09-08T23:25:30.243Z</time>
      </trkpt>
      <trkpt lat="48.893990" lon="2.249136">
        <ele>49.551352</ele>
        <time>2024-09-08T23:25:39.177Z</time>
      </trkpt>
      <trkpt lat="48.894168" lon="2.249322">
        <ele>49.343942</ele>
        <time>2024-09-08T23:25:42.919Z</time>
      </trkpt>
      <trkpt lat="48.894275" lon="2.249311">
        <ele>49.240943</ele>
        <time>2024-09-08T23:25:44.644Z</time>
      </trkpt>
      <trkpt lat="48.894326" lon="2.249306">
        <ele>49.191860</ele>
        <time>2024-09-08T23:25:45.534Z</time>
      </trkpt>
      <trkpt lat="48.894539" lon="2.249374">
        <ele>48.982834</ele>
        <time>2024-09-08T23:25:49.455Z</time>
      </trkpt>
      <trkpt lat="48.894690" lon="2.249479">
        <ele>48.823374</ele>
        <time>2024-09-08T23:25:52.340Z</time>
      </trkpt>
      <trkpt lat="48.894819" lon="2.249637">
        <ele>48.664306</ele>
        <time>2024-09-08T23:25:55.313Z</time>
      </trkpt>
      <trkpt lat="48.894911" lon="2.249799">
        <ele>48.529138</ele>
        <time>2024-09-08T23:25:57.711Z</time>
      </trkpt>
      <trkpt lat="48.894996" lon="2.249946">
        <ele>48.425533</ele>
        <time>2024-09-08T23:26:00.038Z</time>
      </trkpt>
      <trkpt lat="48.895057" lon="2.250012">
        <ele>48.414799</ele>
        <time>2024-09-08T23:26:01.373Z</time>
      </trkpt>
      <trkpt lat="48.895106" lon="2.250092">
        <ele>48.404492</ele>
        <time>2024-09-08T23:26:02.621Z</time>
      </trkpt>
      <trkpt lat="48.895190" lon="2.250169">
        <ele>48.390430</ele>
        <time>2024-09-08T23:26:04.294Z</time>
      </trkpt>
      <trkpt lat="48.895428" lon="2.250406">
        <ele>48.349642</ele>
        <time>2024-09-08T23:26:09.430Z</time>
      </trkpt>
      <trkpt lat="48.895485" lon="2.250487">
        <ele>48.338458</ele>
        <time>2024-09-08T23:26:11.170Z</time>
      </trkpt>
      <trkpt lat="48.895876" lon="2.251088">
        <ele>48.258754</ele>
        <time>2024-09-08T23:26:22.537Z</time>
      </trkpt>
      <trkpt lat="48.896075" lon="2.251485">
        <ele>48.211695</ele>
        <time>2024-09-08T23:26:28.944Z</time>
      </trkpt>
      <trkpt lat="48.896266" lon="2.251891">
        <ele>48.159542</ele>
        <time>2024-09-08T23:26:35.550Z</time>
      </trkpt>
      <trkpt lat="48.896348" lon="2.252016">
        <ele>48.129885</ele>
        <time>2024-09-08T23:26:37.751Z</time>
      </trkpt>
      <trkpt lat="48.896337" lon="2.252226">
        <ele>48.094503</ele>
        <time>2024-09-08T23:26:40.914Z</time>
      </trkpt>
      <trkpt lat="48.896361" lon="2.252339">
        <ele>48.074559</ele>
        <time>2024-09-08T23:26:42.449Z</time>
      </trkpt>
      <trkpt lat="48.896417" lon="2.252511">
        <ele>48.042323</ele>
        <time>2024-09-08T23:26:44.918Z</time>
      </trkpt>
      <trkpt lat="48.896461" lon="2.252633">
        <ele>48.018953</ele>
        <time>2024-09-08T23:26:46.954Z</time>
      </trkpt>
      <trkpt lat="48.896508" lon="2.252940">
        <ele>47.966013</ele>
        <time>2024-09-08T23:26:50.940Z</time>
      </trkpt>
      <trkpt lat="48.896674" lon="2.254743">
        <ele>47.718254</ele>
        <time>2024-09-08T23:27:13.587Z</time>
      </trkpt>
      <trkpt lat="48.896678" lon="2.254815">
        <ele>47.719812</ele>
        <time>2024-09-08T23:27:14.689Z</time>
      </trkpt>
      <trkpt lat="48.896755" lon="2.254882">
        <ele>47.722721</ele>
        <time>2024-09-08T23:27:16.186Z</time>
      </trkpt>
      <trkpt lat="48.896808" lon="2.255221">
        <ele>47.730235</ele>
        <time>2024-09-08T23:27:20.295Z</time>
      </trkpt>
      <trkpt lat="48.896825" lon="2.255399">
        <ele>47.734113</ele>
        <time>2024-09-08T23:27:22.539Z</time>
      </trkpt>
      <trkpt lat="48.896807" lon="2.255581">
        <ele>47.738081</ele>
        <time>2024-09-08T23:27:24.818Z</time>
      </trkpt>
      <trkpt lat="48.896827" lon="2.255836">
        <ele>47.743618</ele>
        <time>2024-09-08T23:27:28.529Z</time>
      </trkpt>
      <trkpt lat="48.896847" lon="2.256236">
        <ele>47.752268</ele>
        <time>2024-09-08T23:27:33.573Z</time>
      </trkpt>
      <trkpt lat="48.896854" lon="2.256372">
        <ele>47.755209</ele>
        <time>2024-09-08T23:27:35.969Z</time>
      </trkpt>
      <trkpt lat="48.896853" lon="2.256495">
        <ele>47.757862</ele>
        <time>2024-09-08T23:27:37.521Z</time>
      </trkpt>
      <trkpt lat="48.896853" lon="2.256556">
        <ele>47.759177</ele>
        <time>2024-09-08T23:27:38.351Z</time>
      </trkpt>
      <trkpt lat="48.897033" lon="2.256543">
        <ele>47.765087</ele>
        <time>2024-09-08T23:27:42.410Z</time>
      </trkpt>
      <trkpt lat="48.897035" lon="2.256490">
        <ele>47.766232</ele>
        <time>2024-09-08T23:27:43.235Z</time>
      </trkpt>
      <trkpt lat="48.897189" lon="2.256469">
        <ele>47.773861</ele>
        <time>2024-09-08T23:27:46.130Z</time>
      </trkpt>
      <trkpt lat="48.897573" lon="2.256523">
        <ele>47.835695</ele>
        <time>2024-09-08T23:27:54.452Z</time>
      </trkpt>
      <trkpt lat="48.897722" lon="2.256544">
        <ele>47.859688</ele>
        <time>2024-09-08T23:27:57.929Z</time>
      </trkpt>
      <trkpt lat="48.897721" lon="2.256670">
        <ele>47.872970</ele>
        <time>2024-09-08T23:27:59.717Z</time>
      </trkpt>
      <trkpt lat="48.897962" lon="2.257437">
        <ele>47.962579</ele>
        <time>2024-09-08T23:28:11.360Z</time>
      </trkpt>
      <trkpt lat="48.897973" lon="2.257467">
        <ele>47.966200</ele>
        <time>2024-09-08T23:28:11.922Z</time>
      </trkpt>
      <trkpt lat="48.898087" lon="2.257798">
        <ele>48.005588</ele>
        <time>2024-09-08T23:28:16.768Z</time>
      </trkpt>
      <trkpt lat="48.898095" lon="2.257823">
        <ele>48.008519</ele>
        <time>2024-09-08T23:28:17.225Z</time>
      </trkpt>
      <trkpt lat="48.898207" lon="2.258149">
        <ele>48.047291</ele>
        <time>2024-09-08T23:28:22.118Z</time>
      </trkpt>
      <trkpt lat="48.898572" lon="2.259264">
        <ele>47.344281</ele>
        <time>2024-09-08T23:28:35.773Z</time>
      </trkpt>
      <trkpt lat="48.898598" lon="2.259338">
        <ele>47.291400</ele>
        <time>2024-09-08T23:28:36.775Z</time>
      </trkpt>
      <trkpt lat="48.898750" lon="2.259780">
        <ele>46.977027</ele>
        <time>2024-09-08T23:28:42.009Z</time>
      </trkpt>
      <trkpt lat="48.898965" lon="2.260386">
        <ele>46.543039</ele>
        <time>2024-09-08T23:28:49.784Z</time>
      </trkpt>
      <trkpt lat="48.899064" lon="2.260642">
        <ele>46.355856</ele>
        <time>2024-09-08T23:28:53.036Z</time>
      </trkpt>
      <trkpt lat="48.899140" lon="2.260833">
        <ele>46.163022</ele>
        <time>2024-09-08T23:28:55.806Z</time>
      </trkpt>
      <trkpt lat="48.899496" lon="2.261689">
        <ele>45.246350</ele>
        <time>2024-09-08T23:29:07.030Z</time>
      </trkpt>
      <trkpt lat="48.898752" lon="2.262416">
        <ele>44.029020</ele>
        <time>2024-09-08T23:29:21.687Z</time>
      </trkpt>
      <trkpt lat="48.898295" lon="2.262889">
        <ele>42.008877</ele>
        <time>2024-09-08T23:29:29.793Z</time>
      </trkpt>
      <trkpt lat="48.898200" lon="2.262985">
        <ele>41.517090</ele>
        <time>2024-09-08T23:29:31.473Z</time>
      </trkpt>
      <trkpt lat="48.897993" lon="2.263189">
        <ele>40.453562</ele>
        <time>2024-09-08T23:29:34.693Z</time>
      </trkpt>
      <trkpt lat="48.897937" lon="2.263244">
        <ele>40.166134</ele>
        <time>2024-09-08T23:29:35.581Z</time>
      </trkpt>
      <trkpt lat="48.897830" lon="2.263351">
        <ele>39.613985</ele>
        <time>2024-09-08T23:29:37.226Z</time>
      </trkpt>
      <trkpt lat="48.897742" lon="2.263434">
        <ele>39.167509</ele>
        <time>2024-09-08T23:29:38.504Z</time>
      </trkpt>
      <trkpt lat="48.897545" lon="2.263637">
        <ele>38.141492</ele>
        <time>2024-09-08T23:29:41.670Z</time>
      </trkpt>
      <trkpt lat="48.897458" lon="2.263666">
        <ele>37.757451</ele>
        <time>2024-09-08T23:29:42.792Z</time>
      </trkpt>
      <trkpt lat="48.897215" lon="2.263920">
        <ele>36.486104</ele>
        <time>2024-09-08T23:29:46.753Z</time>
      </trkpt>
      <trkpt lat="48.897096" lon="2.264073">
        <ele>35.927894</ele>
        <time>2024-09-08T23:29:48.848Z</time>
      </trkpt>
      <trkpt lat="48.896933" lon="2.264188">
        <ele>35.458108</ele>
        <time>2024-09-08T23:29:51.457Z</time>
      </trkpt>
      <trkpt lat="48.896764" lon="2.264319">
        <ele>34.962180</ele>
        <time>2024-09-08T23:29:54.162Z</time>
      </trkpt>
      <trkpt lat="48.896693" lon="2.264370">
        <ele>34.756888</ele>
        <time>2024-09-08T23:29:55.312Z</time>
      </trkpt>
      <trkpt lat="48.896650" lon="2.264407">
        <ele>34.627719</ele>
        <time>2024-09-08T23:29:56.034Z</time>
      </trkpt>
      <trkpt lat="48.896510" lon="2.264527">
        <ele>34.207564</ele>
        <time>2024-09-08T23:29:58.345Z</time>
      </trkpt>
      <trkpt lat="48.895740" lon="2.265315">
        <ele>31.781107</ele>
        <time>2024-09-08T23:30:12.390Z</time>
      </trkpt>
      <trkpt lat="48.895536" lon="2.265539">
        <ele>31.343636</ele>
        <time>2024-09-08T23:30:16.582Z</time>
      </trkpt>
      <trkpt lat="48.895364" lon="2.265700">
        <ele>31.235661</ele>
        <time>2024-09-08T23:30:20.234Z</time>
      </trkpt>
      <trkpt lat="48.895318" lon="2.265740">
        <ele>31.207332</ele>
        <time>2024-09-08T23:30:21.241Z</time>
      </trkpt>
      <trkpt lat="48.895227" lon="2.265668">
        <ele>31.152491</ele>
        <time>2024-09-08T23:30:23.949Z</time>
      </trkpt>
      <trkpt lat="48.895141" lon="2.265568">
        <ele>31.094616</ele>
        <time>2024-09-08T23:30:26.595Z</time>
      </trkpt>
      <trkpt lat="48.895049" lon="2.265375">
        <ele>31.010822</ele>
        <time>2024-09-08T23:30:30.867Z</time>
      </trkpt>
      <trkpt lat="48.894756" lon="2.264762">
        <ele>30.744429</ele>
        <time>2024-09-08T23:30:41.783Z</time>
      </trkpt>
      <trkpt lat="48.894368" lon="2.264125">
        <ele>30.439201</ele>
        <time>2024-09-08T23:30:52.005Z</time>
      </trkpt>
      <trkpt lat="48.893960" lon="2.263455">
        <ele>29.519650</ele>
        <time>2024-09-08T23:31:01.555Z</time>
      </trkpt>
      <trkpt lat="48.893750" lon="2.263171">
        <ele>29.088804</ele>
        <time>2024-09-08T23:31:06.147Z</time>
      </trkpt>
      <trkpt lat="48.893279" lon="2.262539">
        <ele>28.125799</ele>
        <time>2024-09-08T23:31:16.286Z</time>
      </trkpt>
      <trkpt lat="48.892778" lon="2.262134">
        <ele>27.680907</ele>
        <time>2024-09-08T23:31:26.062Z</time>
      </trkpt>
      <trkpt lat="48.892601" lon="2.262034">
        <ele>27.680907</ele>
        <time>2024-09-08T23:31:29.670Z</time>
      </trkpt>
      <trkpt lat="48.892357" lon="2.262301">
        <ele>27.680907</ele>
        <time>2024-09-08T23:31:35.280Z</time>
      </trkpt>
      <trkpt lat="48.892290" lon="2.262410">
        <ele>27.680907</ele>
        <time>2024-09-08T23:31:37.087Z</time>
      </trkpt>
      <trkpt lat="48.892245" lon="2.262505">
        <ele>27.680907</ele>
        <time>2024-09-08T23:31:38.572Z</time>
      </trkpt>
      <trkpt lat="48.892242" lon="2.262510">
        <ele>27.680907</ele>
        <time>2024-09-08T23:31:38.658Z</time>
      </trkpt>
      <trkpt lat="48.891602" lon="2.261864">
        <ele>27.680907</ele>
        <time>2024-09-08T23:32:11.520Z</time>
      </trkpt>
    </trkseg>
  </trk>
</gpx>